GFSGL_sfc_dewp_000.txt.gz
Dewpoint
69 67 65 63 62 61 62 62 61 61 62 62 62 62 62 62 63 63 63 63 64 64 64 64 64 64 62 61 60 59 58 57 55 56 56 57 58 59 59 59 59 59 58
69 66 64 61 62 61 62 63 62 62 62 62 62 63 63 63 63 63 63 64 63 63 63 63 63 62 62 62 59 60 60 59 58 57 58 57 58 60 60 59 58 56 58
68 65 63 62 63 63 63 63 63 62 61 61 63 63 62 62 61 61 63 63 63 63 63 63 62 61 61 61 60 60 60 60 59 57 57 58 57 58 58 59 59 58 57
66 64 63 63 62 64 64 63 63 62 62 62 62 62 61 60 60 61 62 62 62 62 63 63 62 61 61 61 61 61 61 60 59 58 57 57 57 58 57 55 54 55 55
66 64 64 64 64 64 64 64 63 62 62 62 62 61 61 60 59 62 63 62 63 63 63 63 61 61 62 62 62 61 60 59 59 57 56 56 56 56 55 55 54 54 55
67 65 66 65 65 65 65 65 63 62 62 62 61 61 61 60 60 61 63 62 63 63 61 61 59 59 60 60 61 62 62 60 59 58 56 56 57 57 56 54 53 52 52
67 67 66 65 64 64 65 65 63 62 62 61 61 61 61 62 59 59 61 64 62 60 60 60 58 59 60 58 58 59 60 60 61 61 58 57 57 57 57 55 55 53 53
68 68 66 64 64 64 63 62 63 62 61 61 62 62 62 62 58 58 60 63 62 60 59 59 59 59 57 58 58 58 57 57 57 55 57 57 57 58 58 57 55 55 55
68 66 66 65 64 65 63 63 62 63 63 62 63 63 62 62 58 57 59 62 61 60 59 57 56 58 56 55 56 56 55 55 55 55 55 55 55 55 56 56 54 54 52
67 66 66 65 63 63 64 64 63 63 63 64 63 62 60 62 58 58 58 61 59 57 57 57 55 54 53 52 54 54 54 53 52 52 53 53 54 55 55 57 57 53 52
66 66 67 66 66 65 64 63 63 64 63 63 62 60 61 62 62 57 54 59 57 56 55 54 54 52 50 49 50 54 53 53 52 52 50 50 51 52 53 55 56 55 52
66 66 65 65 65 63 61 61 62 61 60 60 61 59 59 61 56 55 52 54 55 56 54 52 53 48 48 49 51 50 49 50 52 51 49 49 51 51 52 53 55 55 56
63 63 64 63 63 62 61 61 61 60 60 60 61 61 62 58 55 51 51 51 52 50 50 49 48 46 46 49 50 49 49 50 49 48 46 48 50 52 53 53 54 54 55
62 62 63 63 62 61 62 62 61 60 59 61 61 61 59 56 54 51 50 50 50 48 46 46 49 50 49 48 48 47 48 48 47 46 45 48 49 50 50 52 52 53 52
61 61 61 61 62 62 61 60 61 59 57 61 60 59 56 54 51 48 48 48 48 46 45 50 51 48 46 44 42 43 44 43 43 43 44 45 47 46 46 50 51 51 51
61 60 60 61 61 60 54 52 46 45 45 44 46 51 50 47 43 42 40 40 40 42 46 48 46 43 42 40 39 37 38 38 38 39 39 42 40 43 44 47 49 49 49
60 58 56 56 59 57 55 54 52 47 43 41 41 41 41 41 40 40 39 39 39 42 45 43 41 39 37 36 34 33 33 35 38 36 39 36 36 40 43 45 46 48 49
59 54 59 59 58 57 55 54 52 52 50 46 43 42 40 40 40 39 38 40 42 40 40 39 36 32 32 33 33 31 32 34 34 34 34 35 35 36 38 41 45 45 47
58 57 57 58 57 55 55 54 53 51 49 48 47 44 42 40 39 39 40 44 42 38 35 33 32 33 34 35 32 29 30 33 33 32 32 33 34 35 36 39 41 42 46
59 56 56 56 55 55 54 53 52 51 50 48 48 48 47 45 45 43 42 41 39 36 36 36 37 37 37 32 27 27 31 32 31 31 32 32 33 34 34 36 38 40 44
55 56 56 56 55 54 54 53 53 52 51 49 49 47 44 47 45 43 41 41 40 39 39 39 38 35 28 26 29 31 30 30 30 31 31 32 33 33 34 34 35 36 38
54 54 56 56 56 55 55 55 55 54 51 50 48 46 41 45 44 44 42 41 41 41 37 34 29 25 23 25 30 29 29 29 30 30 31 31 32 32 32 32 32 34 35
54 53 54 54 54 52 53 53 53 52 51 50 47 44 43 44 44 43 43 41 41 41 35 31 28 24 24 26 27 27 26 27 28 29 30 30 30 31 32 32 31 32 33
52 52 52 51 52 51 51 51 52 48 50 49 47 45 43 43 43 43 43 43 42 38 32 29 27 23 23 23 23 22 23 25 29 30 31 30 30 31 31 31 31 32 31
48 49 49 50 49 49 49 48 49 50 49 48 47 46 45 44 42 42 43 42 41 36 33 30 26 23 20 19 18 18 23 27 30 31 30 30 30 32 30 29 30 30 30
46 47 47 48 47 47 46 46 45 45 45 48 47 47 46 44 43 42 41 39 37 35 32 29 27 23 21 19 20 23 26 27 30 30 30 29 28 29 29 29 29 27 29

GFSGL_sfc_dewp_003.txt.gz
Dewpoint
72 73 74 74 74 74 72 71 68 68 67 67 67 65 65 65 65 66 66 64 64 65 66 66 66 67 63 62 63 63 60 59 57 55 55 60 62 62 61 62 61 60 57
72 73 73 73 71 70 71 67 67 67 67 67 66 66 65 65 65 66 65 61 63 64 64 65 64 62 66 65 62 64 61 62 59 59 60 57 60 62 62 62 60 58 58
70 70 71 71 70 71 65 66 65 66 66 65 65 66 65 65 66 66 65 63 64 64 64 64 64 65 65 61 63 61 59 64 61 59 57 56 57 58 59 61 60 60 58
68 69 71 70 69 67 67 65 66 65 65 65 66 67 66 66 65 64 63 64 65 64 65 65 65 65 64 63 62 63 62 61 60 58 57 55 55 59 58 56 54 54 54
70 69 70 70 69 68 66 65 64 65 65 64 64 66 66 64 60 63 64 64 65 65 65 66 65 65 63 62 59 62 62 60 56 55 55 53 53 53 54 54 54 54 56
70 70 70 69 68 67 68 65 64 64 64 65 65 65 65 62 60 61 63 64 65 66 65 65 65 63 63 61 61 61 62 61 61 58 53 55 59 57 55 56 54 53 50
70 70 69 69 67 68 67 67 65 63 64 64 65 64 66 65 60 60 62 63 64 65 66 65 63 59 61 60 59 59 59 60 61 62 60 59 59 59 60 58 56 55 54
70 70 69 68 68 68 68 67 66 64 64 65 65 66 65 65 59 58 61 65 65 65 65 65 63 63 61 59 59 58 58 59 60 57 59 59 59 58 58 57 57 57 56
69 70 69 68 68 67 67 67 67 65 65 66 64 65 65 65 58 58 61 64 64 63 65 64 62 61 58 56 56 57 58 58 56 56 55 55 55 55 55 55 54 53 52
69 70 69 68 67 66 67 67 66 66 65 64 65 66 63 66 57 57 61 62 63 63 63 62 56 57 53 53 57 57 56 56 55 55 54 54 55 55 55 56 54 54 54
70 69 69 69 68 68 68 67 66 66 65 66 66 66 65 65 64 54 55 63 63 61 59 58 58 52 51 50 51 57 55 52 53 52 51 51 51 52 52 53 55 54 55
70 69 69 68 67 66 67 66 66 66 66 66 65 64 62 64 56 56 54 55 60 61 59 57 55 49 47 49 51 50 50 49 49 49 48 48 48 48 49 51 53 54 55
69 67 68 68 67 66 65 65 63 64 63 63 60 59 60 63 62 53 51 52 54 57 55 49 47 46 46 49 50 49 48 49 47 46 45 45 45 46 51 49 50 55 56
67 67 68 67 66 65 63 63 61 60 62 62 62 59 61 60 59 56 54 52 50 51 49 50 49 50 49 50 48 48 47 46 44 43 43 43 43 43 42 41 44 49 53
67 67 66 65 64 64 61 59 61 63 58 61 59 59 60 59 57 53 52 53 53 49 49 51 52 51 50 50 48 47 46 44 42 41 40 40 39 39 38 39 44 49 53
66 65 64 62 61 60 59 57 45 45 45 45 45 56 55 48 44 42 42 41 41 43 47 48 48 48 48 47 45 43 42 40 40 39 39 38 37 36 36 38 44 48 52
64 64 61 61 61 61 59 58 56 47 42 41 42 42 45 42 40 39 39 39 40 42 46 47 46 46 44 43 40 38 37 36 40 36 37 36 36 36 36 37 43 47 47
62 55 59 57 58 59 59 58 57 56 55 50 43 42 40 40 39 38 39 41 44 44 46 45 44 41 39 39 39 36 34 32 31 34 35 34 34 35 35 36 42 43 47
58 56 57 58 58 56 59 58 56 56 54 51 48 45 42 38 39 39 40 47 46 44 42 41 39 38 40 41 39 35 33 28 32 34 33 33 33 34 34 35 38 43 44
62 58 58 59 59 58 58 56 56 55 52 51 50 49 48 46 47 47 47 46 44 41 40 40 40 41 42 40 34 31 29 33 34 32 33 33 33 33 32 33 36 40 44
60 57 57 57 57 57 56 56 55 53 51 51 51 51 46 49 48 47 45 44 43 42 42 42 42 41 37 34 32 32 33 33 33 33 32 32 33 32 33 32 31 36 40
56 57 57 56 57 57 56 56 55 54 53 52 51 49 43 49 48 46 45 44 43 44 42 40 35 33 29 29 31 32 33 33 33 32 32 31 31 31 31 30 30 32 35
55 54 55 55 56 54 55 56 56 56 54 53 52 50 48 48 47 45 45 44 44 43 42 37 34 29 27 26 30 32 31 31 31 32 31 31 29 29 30 29 29 31 32
53 52 52 53 54 53 53 54 54 50 52 52 51 50 48 45 45 45 44 44 44 43 40 35 33 27 26 22 27 28 30 31 33 32 33 30 29 30 29 28 28 31 29
51 51 51 52 52 53 52 51 51 50 49 50 50 50 49 48 47 45 44 44 44 43 40 35 32 28 24 23 19 22 25 27 31 31 31 31 31 33 30 27 29 28 30
46 47 47 47 47 47 46 45 45 45 44 45 45 47 49 49 48 46 44 43 42 41 39 35 31 29 25 23 25 25 26 27 31 30 31 29 28 28 27 27 28 25 28

GFSGL_sfc_dewp_006.txt.gz
Dewpoint
72 74 73 73 73 75 74 75 74 73 71 69 69 66 65 64 65 65 65 62 61 62 61 63 64 66 60 56 55 55 54 54 53 53 53 57 61 62 61 61 60 60 58
72 74 72 73 73 73 75 75 74 74 70 69 68 67 67 64 65 65 63 61 61 60 61 63 63 60 64 65 59 62 59 60 56 60 59 56 61 61 61 62 60 56 57
69 70 71 72 72 73 74 74 74 71 69 67 67 68 67 67 65 65 65 64 62 61 62 63 63 63 64 60 61 58 55 56 57 54 55 55 55 55 58 63 61 61 56
66 69 72 72 72 73 74 72 70 69 68 67 67 67 65 66 66 65 64 64 62 61 63 63 63 63 63 63 61 62 62 59 59 55 55 53 58 59 58 56 53 51 51
68 68 70 73 73 73 73 71 68 68 67 63 66 63 65 66 63 65 64 62 63 63 63 63 64 64 63 63 58 62 63 58 55 54 52 51 52 54 58 53 51 52 55
70 69 71 73 74 73 73 70 69 68 66 66 64 63 63 63 59 61 63 62 63 64 64 65 66 66 65 63 62 62 61 61 59 54 53 53 59 59 56 53 53 52 51
71 71 72 73 73 72 71 70 68 67 67 65 64 64 64 65 60 60 62 61 62 63 66 66 65 63 64 63 62 61 61 60 60 61 60 59 61 60 59 60 58 55 53
72 72 72 72 72 71 71 69 68 65 65 66 66 66 65 64 61 60 62 64 65 66 66 65 65 64 65 63 63 60 60 60 61 59 60 59 59 59 58 57 57 57 56
70 71 72 71 71 69 69 69 69 66 65 66 66 66 66 66 58 58 62 63 64 65 66 65 65 65 61 57 59 59 59 59 57 57 56 55 54 54 55 54 52 52 52
70 71 71 71 71 70 70 70 69 68 66 64 65 66 63 68 57 56 60 61 65 62 64 65 59 61 54 54 58 58 57 57 57 56 56 56 56 55 56 57 55 55 54
70 71 71 71 71 71 71 70 69 68 67 67 66 66 67 65 65 55 56 64 58 61 60 65 63 54 52 51 52 56 56 56 54 54 51 48 47 50 49 55 57 52 49
71 71 70 71 69 69 70 69 67 68 68 66 69 68 67 67 60 55 54 56 60 60 65 58 56 49 48 50 51 51 51 49 50 49 47 44 45 46 47 48 54 54 51
70 69 70 70 69 69 68 67 65 67 64 65 67 64 69 64 61 54 53 53 56 61 59 51 48 47 47 47 51 50 49 50 49 47 44 44 45 46 50 51 52 56 57
70 70 69 69 69 68 67 67 66 64 63 67 66 64 64 64 61 59 58 58 52 54 51 51 52 51 50 51 51 50 50 50 47 45 45 45 45 44 43 42 39 38 45
69 69 67 66 67 67 63 59 62 61 57 60 60 61 60 64 59 55 53 55 55 51 54 53 51 51 50 51 51 50 49 47 45 44 44 43 41 40 38 37 36 39 47
66 65 64 64 65 65 63 60 44 45 46 46 45 55 58 50 45 42 41 42 43 44 48 49 47 48 48 48 48 46 45 44 43 42 41 40 38 37 36 35 36 42 48
65 66 63 61 60 61 61 58 56 49 42 41 41 42 45 44 40 40 39 40 42 43 47 47 47 47 47 46 44 41 41 41 46 40 39 38 36 35 35 34 36 41 45
65 57 61 60 59 58 58 58 57 56 54 53 43 44 40 40 39 39 40 42 45 45 46 46 46 46 45 43 42 41 40 39 36 35 35 35 34 34 33 34 35 40 44
59 58 58 56 55 55 56 56 55 55 54 54 47 44 41 39 39 39 40 48 47 45 45 43 43 42 42 43 43 42 40 35 31 34 34 33 33 32 33 33 33 40 44
58 57 56 55 57 57 57 56 55 54 54 54 51 50 48 46 48 49 48 49 46 44 44 42 42 43 43 44 41 38 34 31 33 32 32 33 32 32 30 30 30 32 41
55 58 57 57 56 55 54 53 52 52 52 50 50 51 47 50 48 48 48 47 45 44 45 43 43 43 43 40 36 33 29 30 32 32 31 31 32 30 31 30 28 28 31
55 55 53 51 52 53 53 53 53 51 50 49 49 50 45 50 49 49 49 47 46 46 44 45 41 38 35 34 32 28 29 30 32 32 31 30 29 28 28 28 27 27 28
53 53 53 54 54 54 54 52 52 51 50 51 51 51 50 50 49 49 49 47 46 45 44 42 40 35 34 29 26 28 28 31 31 31 31 30 28 28 29 28 26 27 27
53 53 52 52 52 50 49 50 51 50 52 53 53 52 50 49 49 49 48 46 45 45 44 41 38 34 32 26 24 26 29 31 32 31 33 31 29 31 30 28 27 28 27
50 51 52 52 51 49 50 49 48 48 49 49 47 48 48 49 49 48 48 46 45 45 43 40 37 35 31 27 20 22 28 27 31 31 32 33 32 35 29 27 28 26 29
45 46 47 47 46 46 45 45 45 45 44 44 45 45 45 46 47 49 48 46 45 43 42 39 37 34 30 26 25 27 25 26 28 30 30 31 29 29 26 28 28 25 27

GFSGL_sfc_dewp_009.txt.gz
Dewpoint
74 75 76 75 76 77 76 76 76 74 74 72 73 71 68 68 68 69 67 65 65 67 66 64 65 67 60 56 55 56 53 55 52 55 55 59 67 65 62 64 61 63 59
73 75 76 76 76 75 77 77 77 76 75 73 72 71 68 67 66 68 66 64 63 63 63 66 64 60 68 69 59 67 63 63 57 62 60 57 63 65 66 66 61 56 58
71 71 74 74 75 75 76 76 77 77 75 72 72 72 68 68 68 68 68 67 64 64 64 65 64 66 68 62 65 62 60 61 60 54 55 58 58 58 60 64 65 63 60
65 67 72 74 75 74 76 77 77 77 76 73 72 70 69 68 68 67 67 67 67 66 66 65 65 66 67 68 66 68 65 62 60 57 55 55 57 59 60 55 57 58 57
68 68 71 75 75 76 76 77 77 76 75 73 71 69 69 65 62 68 65 65 67 65 64 64 65 66 65 65 64 65 67 61 56 55 55 54 54 54 57 56 57 56 57
71 70 73 76 77 76 77 78 77 75 74 72 69 67 65 61 60 62 65 62 66 66 65 66 67 65 64 63 63 63 63 64 63 57 56 56 60 60 57 57 58 54 51
73 74 75 77 77 78 77 76 75 73 73 71 68 64 64 66 62 61 63 62 64 65 68 67 64 61 63 62 63 63 62 61 61 63 62 61 61 62 62 61 60 57 54
75 75 76 77 77 77 76 75 74 72 72 69 67 66 67 67 61 60 63 64 65 65 67 68 68 67 65 66 65 63 64 64 64 60 63 63 63 61 60 58 60 59 56
72 74 75 74 75 74 74 73 72 71 70 67 66 66 68 68 59 58 62 65 65 67 67 67 66 67 63 60 63 61 61 61 59 59 58 56 54 54 55 53 51 48 48
72 72 74 75 74 72 73 73 72 72 70 66 65 68 66 68 58 57 61 64 64 65 68 69 62 63 57 56 61 60 60 60 58 58 58 57 57 58 56 58 54 51 50
70 71 73 73 73 73 73 73 72 72 70 69 67 69 69 68 67 56 56 65 61 60 63 63 63 55 54 53 53 59 58 57 58 55 52 52 53 52 46 53 61 54 50
73 72 73 73 71 71 72 72 71 71 69 69 69 69 66 70 61 55 54 55 60 62 64 63 65 54 53 52 51 53 52 51 51 49 49 49 47 44 45 50 58 56 53
73 73 72 72 72 72 72 70 68 69 67 67 65 66 69 71 68 56 54 55 56 60 63 54 53 50 49 47 49 52 52 50 49 50 49 45 43 45 55 54 56 59 58
72 71 71 70 69 69 68 67 66 65 65 65 65 67 67 66 65 62 60 60 56 57 55 55 53 52 51 53 52 52 52 52 51 48 45 45 45 44 43 42 40 38 37
71 71 70 68 68 67 64 63 65 62 60 62 64 65 61 59 63 57 57 59 58 55 57 55 54 53 51 53 54 56 54 51 48 46 45 43 41 41 40 39 37 37 36
69 67 67 66 66 66 63 58 45 46 45 45 46 54 57 50 45 43 42 43 44 46 52 51 49 48 47 48 50 51 49 48 46 45 43 42 40 39 38 36 36 36 38
67 66 63 62 62 64 61 61 60 51 43 42 43 45 47 45 41 40 40 41 43 44 48 46 47 47 47 47 47 45 43 44 50 43 41 40 38 37 36 35 35 36 39
66 59 61 59 58 59 59 58 56 56 55 54 45 47 41 40 40 40 40 43 46 45 47 45 46 46 46 45 44 42 42 41 40 38 36 36 35 35 34 34 34 36 37
63 60 59 58 57 56 56 55 54 54 54 54 50 46 43 40 40 40 41 49 47 46 45 45 45 43 43 43 43 44 44 40 35 34 36 35 34 33 33 33 32 36 38
58 58 57 56 55 54 54 53 52 52 51 56 52 50 47 46 47 49 49 49 48 45 45 45 44 44 44 45 44 42 39 34 34 33 33 33 33 33 31 30 30 30 32
54 55 57 54 54 53 53 52 51 50 49 50 53 52 46 50 49 51 49 49 48 46 46 46 45 46 45 45 42 38 33 30 31 32 32 32 33 30 32 30 28 27 28
53 54 53 52 52 52 52 50 49 48 48 50 53 49 45 50 48 48 49 54 48 48 47 48 46 43 40 38 37 33 28 28 31 32 31 31 30 30 29 29 27 27 27
53 51 51 51 53 54 52 51 50 54 51 53 53 51 51 51 49 49 54 53 54 48 47 46 44 41 38 37 31 27 26 28 31 31 32 32 30 30 31 31 28 27 28
56 51 54 54 56 51 49 55 54 49 50 50 50 52 52 51 53 54 53 52 50 49 47 46 43 39 38 35 27 24 26 31 32 31 35 32 32 32 33 31 28 29 27
52 51 53 53 50 49 48 47 49 49 49 49 51 52 51 53 52 50 50 50 49 48 49 45 42 39 38 35 29 28 29 28 29 30 29 33 34 36 31 28 29 27 28
47 48 48 48 47 47 46 45 45 47 49 49 48 51 50 48 48 48 49 51 49 48 46 43 42 40 36 32 29 27 26 25 27 29 30 29 32 31 30 28 30 26 27

GFSGL_sfc_dewp_012.txt.gz
Dewpoint
76 76 76 76 76 75 76 75 75 74 73 73 73 71 71 70 70 70 69 67 67 67 67 67 66 68 66 65 66 65 62 62 60 60 62 62 62 63 63 64 66 65 64
75 76 76 76 76 76 75 76 75 76 74 73 73 72 71 68 70 68 66 65 67 67 67 67 66 64 68 68 67 65 65 65 62 61 62 62 64 65 66 64 64 59 62
74 74 75 75 76 76 76 75 77 75 74 72 73 72 71 68 69 68 67 67 67 65 66 66 65 67 68 67 67 66 65 64 65 62 60 61 62 61 61 62 62 64 64
71 72 73 74 75 74 76 76 75 76 74 74 72 72 71 68 68 67 67 67 67 66 67 67 66 65 67 67 66 67 67 66 64 62 62 60 62 62 63 60 60 62 62
70 71 73 74 75 75 75 76 76 76 76 75 74 72 71 68 65 68 68 67 68 66 68 67 67 68 66 67 68 66 67 65 62 58 55 56 57 58 59 59 58 59 59
68 69 72 74 75 75 76 76 76 76 76 76 74 72 71 68 62 64 67 67 68 66 67 68 67 66 65 64 64 64 65 65 61 59 57 56 59 60 61 60 59 57 55
69 70 71 73 75 75 75 76 76 76 76 75 74 72 70 69 62 62 64 66 65 65 68 67 66 62 67 67 64 63 63 62 61 60 58 59 60 62 61 60 59 59 56
72 71 72 74 75 76 76 76 76 77 76 75 73 70 69 66 62 61 63 65 64 66 67 68 67 66 67 66 66 66 64 63 64 63 61 61 62 63 62 60 58 57 57
70 75 73 77 76 76 76 76 77 75 73 72 71 67 67 68 62 59 61 64 63 65 67 66 67 67 64 60 65 64 63 64 62 59 61 60 57 55 56 57 54 53 51
73 74 77 77 77 77 77 76 74 72 72 71 68 67 65 68 61 58 59 64 63 65 68 67 62 64 60 58 64 63 62 62 63 62 62 59 57 57 56 56 55 53 53
74 75 76 77 77 77 77 74 72 72 73 70 68 67 68 67 68 55 56 67 67 67 67 66 67 59 56 55 56 63 61 57 59 59 58 55 55 55 56 58 59 57 55
75 75 76 77 74 74 74 73 73 72 70 69 68 68 69 71 61 55 55 56 62 66 67 67 66 54 53 55 53 53 52 53 55 54 53 52 52 53 54 56 57 57 55
74 75 75 75 74 74 72 72 71 71 69 68 68 68 70 71 69 55 55 55 56 61 65 60 54 53 55 52 52 52 53 53 53 53 52 53 52 54 56 55 57 59 59
75 74 73 72 71 72 71 70 69 68 67 67 68 70 70 69 66 64 62 59 57 57 55 55 54 54 53 54 54 51 52 55 55 56 54 53 55 52 51 52 50 49 45
72 71 70 69 69 67 60 63 67 59 59 69 69 67 65 64 64 60 59 61 60 58 58 57 55 55 55 55 55 55 55 56 56 56 54 53 50 50 49 50 48 44 44
70 69 68 68 67 65 61 58 46 46 44 44 46 60 55 50 47 45 44 44 45 49 58 62 59 57 55 56 55 56 56 55 55 54 53 51 49 48 48 47 47 47 46
69 69 67 66 66 65 64 62 58 50 44 43 43 48 50 46 42 41 41 42 44 49 58 56 53 57 55 55 54 53 52 54 55 52 51 50 47 47 45 46 45 46 45
70 62 66 65 65 65 65 63 62 60 57 55 45 46 41 40 40 40 41 46 50 49 53 52 56 55 55 53 53 52 52 51 50 49 45 44 44 46 44 44 44 43 43
67 64 64 65 63 63 62 61 59 59 58 55 51 47 42 41 41 42 42 54 53 52 51 52 53 52 52 53 53 53 52 49 46 45 45 45 46 42 43 42 41 40 40
67 61 61 61 59 60 58 57 56 58 56 54 54 51 48 47 49 50 51 53 53 51 54 53 52 53 53 53 53 52 49 47 46 46 46 45 45 44 39 38 38 37 40
58 60 58 59 57 56 55 55 54 53 55 55 53 52 47 52 51 52 52 53 53 53 56 53 54 54 54 53 51 48 44 41 42 43 42 42 44 40 42 40 35 35 35
56 56 55 54 57 58 56 56 55 53 54 56 54 50 44 52 52 54 55 53 55 55 53 55 52 52 50 48 47 44 40 38 41 42 41 39 40 38 40 36 36 35 35
55 53 53 56 55 54 55 52 56 55 55 52 52 50 48 52 54 53 54 54 55 53 52 51 51 49 48 46 43 40 35 37 40 40 40 40 38 39 38 38 36 35 33
54 55 55 56 59 55 55 59 56 50 54 52 52 52 52 54 53 54 55 55 55 53 51 53 49 46 47 44 43 37 37 40 38 37 39 37 36 39 38 38 35 35 34
53 55 58 56 54 53 51 52 54 50 50 51 52 53 53 54 52 52 54 53 52 52 52 51 48 48 46 44 39 31 29 30 34 30 34 38 37 40 40 33 35 33 35
50 52 52 49 48 50 49 49 50 51 50 51 52 52 54 53 52 52 52 52 51 50 50 50 49 47 44 40 35 28 27 29 31 29 31 33 34 37 37 36 36 32 34

GFSGL_sfc_dewp_015.txt.gz
Dewpoint
74 73 74 74 74 72 73 72 71 71 70 69 70 70 68 67 68 68 64 64 65 63 63 62 64 62 61 60 62 60 58 57 55 55 57 58 59 57 58 61 62 62 61
74 74 74 74 74 73 72 72 73 70 71 70 70 70 68 67 66 67 64 64 63 65 63 62 61 62 62 61 63 62 62 61 58 56 59 58 58 60 61 62 61 60 61
74 74 74 73 74 74 73 73 73 73 71 71 71 69 69 68 66 67 65 63 65 64 64 63 63 62 61 63 64 63 62 62 61 60 58 59 59 59 57 58 59 59 62
74 74 73 73 73 74 74 72 73 74 73 69 70 69 69 68 66 66 65 64 65 65 64 64 63 62 62 64 63 63 63 62 61 60 59 59 59 58 60 59 57 58 58
72 73 73 73 73 74 74 74 73 73 73 72 70 70 70 68 66 66 65 65 65 65 64 65 64 65 65 64 64 63 64 63 61 59 57 55 55 56 56 57 58 58 58
71 71 72 72 73 73 74 74 74 73 74 72 72 71 70 69 64 65 65 65 66 65 64 66 64 66 65 65 65 64 64 63 60 58 56 56 55 57 58 58 58 56 55
69 71 71 71 72 73 73 73 74 74 74 74 73 72 70 70 64 63 65 66 65 65 65 65 65 63 64 63 63 62 63 62 61 59 57 56 56 58 58 57 56 56 56
66 69 70 71 71 73 73 74 73 74 74 75 74 71 71 69 62 62 63 64 64 64 66 66 65 64 64 65 64 63 62 63 62 62 60 59 60 60 60 59 57 55 54
65 67 69 70 71 72 73 73 73 74 75 74 72 69 68 67 61 60 61 62 62 62 65 66 65 65 62 60 63 63 63 62 62 60 61 61 59 58 59 56 53 52 51
63 67 68 69 71 73 73 73 74 74 72 72 69 68 65 66 60 58 59 61 61 62 63 65 62 63 60 59 63 62 60 59 59 59 58 58 56 55 56 55 53 52 51
64 74 71 73 74 74 75 74 72 71 71 69 67 67 65 65 64 56 56 62 63 64 63 63 63 59 58 57 57 61 61 55 54 52 53 53 53 53 55 55 56 55 53
74 75 76 76 76 74 73 71 70 71 70 68 66 66 67 66 62 56 55 56 62 63 62 63 62 57 54 55 57 56 51 51 50 51 52 51 51 50 50 51 54 57 57
74 74 74 73 72 72 71 70 70 69 68 67 66 66 65 67 64 56 54 54 56 61 62 59 54 53 54 55 55 53 52 50 50 51 51 51 48 48 49 47 47 46 45
73 72 72 71 71 71 70 69 69 68 67 67 67 65 65 65 62 59 58 57 57 57 56 55 56 54 54 53 51 51 50 50 51 52 52 50 50 45 44 46 44 42 39
71 70 70 70 67 59 53 56 63 55 60 65 66 65 65 64 64 60 58 59 58 55 55 54 53 52 51 51 52 52 51 51 53 54 53 48 43 43 44 43 42 38 38
68 68 68 65 62 60 57 53 45 46 45 45 51 58 53 55 51 49 51 52 51 51 55 55 53 54 54 54 53 53 54 55 54 51 46 45 43 44 41 41 41 40 41
68 67 66 64 63 62 60 57 53 49 45 43 44 49 50 47 45 44 43 43 46 50 55 55 52 51 51 52 54 53 51 54 49 46 43 38 38 38 40 40 38 40 39
67 61 66 65 64 63 61 59 56 55 54 53 44 44 42 42 41 41 42 46 48 47 51 50 49 49 48 47 46 46 46 44 42 38 35 36 36 39 38 37 37 38 36
67 66 66 65 65 63 63 61 58 57 56 52 47 44 41 40 40 42 43 52 50 49 48 48 50 47 47 48 48 47 43 41 37 35 35 38 41 38 36 35 37 40 39
63 62 63 64 66 65 64 62 61 58 54 52 51 50 44 44 45 46 47 49 49 50 50 48 47 47 47 47 47 44 42 40 39 39 42 39 38 36 34 35 36 34 35
64 61 59 60 64 62 57 56 59 57 54 53 53 51 46 48 49 49 49 50 51 51 50 49 49 47 47 47 46 42 39 37 35 38 35 34 35 35 37 35 33 35 35
58 58 57 58 59 60 57 55 56 57 55 55 53 49 43 51 51 51 52 52 53 52 51 50 49 48 47 45 42 38 33 32 36 36 35 34 35 36 36 34 36 36 34
56 55 58 57 54 55 57 57 54 55 55 55 55 49 47 49 53 53 54 54 53 52 51 50 49 46 44 41 37 32 29 34 38 38 36 34 34 35 37 35 35 34 31
58 58 58 56 58 58 56 56 56 54 55 54 53 49 49 50 53 53 53 53 51 51 51 49 47 42 40 38 35 34 37 35 35 31 29 31 33 35 37 37 32 32 31
57 58 58 58 55 55 54 54 55 54 54 55 53 51 51 53 53 53 53 53 52 51 50 49 47 44 40 29 26 23 30 30 24 29 31 30 29 31 34 33 30 33 32
53 54 55 54 53 53 52 51 49 55 56 55 53 53 54 54 53 52 52 51 50 49 49 48 47 43 40 33 27 26 28 30 26 27 24 26 29 32 36 31 30 33 32

GFSGL_sfc_dewp_018.txt.gz
Dewpoint
71 71 71 70 70 72 72 72 71 70 69 70 69 67 66 65 64 67 64 65 62 63 64 63 62 61 60 59 61 59 57 58 55 54 56 56 60 59 57 59 62 60 61
71 72 72 72 72 71 70 72 72 70 69 69 69 68 67 66 65 65 65 64 64 62 62 62 61 62 62 60 60 60 59 60 56 54 57 58 57 57 59 61 61 60 60
71 71 72 72 73 72 71 70 72 71 70 69 69 69 67 67 66 66 65 64 62 64 63 62 61 61 60 61 61 61 62 61 61 59 57 59 59 58 58 57 58 59 60
71 71 72 73 73 73 72 72 71 72 70 70 69 69 69 67 66 66 66 64 63 63 63 63 62 62 61 60 62 61 62 62 60 60 59 58 58 58 58 58 57 57 57
71 72 72 73 73 73 73 72 71 72 72 70 70 69 68 68 67 66 65 64 64 63 64 64 64 64 64 62 62 62 62 62 61 61 58 57 55 55 55 56 57 57 58
72 72 73 73 73 73 74 74 72 72 73 71 70 69 69 68 65 64 66 66 65 64 63 64 64 65 65 63 63 63 63 62 60 60 60 57 56 55 57 57 56 55 54
71 72 73 73 73 73 73 73 74 72 72 72 70 70 69 69 64 63 65 66 66 65 64 64 64 65 65 65 63 63 62 62 63 63 61 59 57 57 57 56 56 55 55
71 72 73 73 73 73 73 73 73 74 72 73 72 71 70 70 63 61 64 67 67 66 66 65 65 65 64 64 63 62 61 63 63 63 61 61 59 59 59 58 57 55 54
69 70 72 72 72 73 72 73 73 74 74 74 74 72 71 70 61 60 63 66 66 65 65 66 65 64 61 61 63 61 62 63 63 60 60 59 58 58 59 57 56 53 51
67 69 71 71 71 72 72 73 73 74 74 74 73 72 68 67 58 58 62 63 63 63 63 64 61 64 59 58 63 62 61 59 60 60 57 57 57 56 57 57 55 52 51
66 67 69 70 71 71 72 73 74 74 73 72 69 67 68 67 63 58 56 61 61 63 63 64 64 58 55 55 58 62 60 59 57 52 51 51 52 52 51 53 55 54 52
65 65 67 69 70 72 73 74 73 72 70 68 67 67 67 66 61 56 54 56 61 63 64 64 61 55 53 54 57 56 56 54 52 50 50 50 50 51 47 50 49 52 55
64 67 68 69 71 74 73 72 71 70 69 67 66 66 66 65 63 56 54 54 57 62 62 60 54 52 52 55 56 56 52 50 49 49 49 50 51 48 47 44 45 45 44
69 73 74 73 73 73 72 71 70 68 67 66 66 66 65 64 61 60 57 56 55 59 58 56 55 55 54 54 53 52 51 49 49 49 50 51 50 44 42 44 42 40 38
73 73 72 71 69 63 57 64 67 63 66 67 66 65 64 63 62 58 56 59 58 55 55 54 54 54 54 51 51 51 50 49 51 51 52 51 44 42 43 41 41 38 37
70 69 66 64 63 61 59 56 48 48 48 52 54 61 58 55 50 48 46 47 48 50 54 52 52 51 51 51 51 51 52 52 51 52 49 45 42 42 39 39 40 38 37
68 66 64 64 63 62 61 58 54 50 45 45 49 50 54 52 48 46 45 45 47 50 55 55 53 53 53 52 52 52 52 52 51 46 41 36 36 36 37 39 37 37 36
66 59 65 65 63 62 60 58 56 56 56 52 45 45 45 46 45 43 42 45 51 50 53 53 51 50 49 49 47 46 44 42 38 36 35 34 35 38 38 35 35 35 35
66 65 65 63 63 61 60 58 57 55 54 50 47 45 41 40 41 41 45 51 50 50 48 47 49 47 46 46 45 45 43 41 38 36 34 34 37 37 35 34 35 39 38
65 62 64 64 63 63 60 58 57 56 53 51 52 49 44 45 47 47 48 51 50 50 50 49 47 46 46 46 44 42 41 39 37 36 37 38 37 36 33 34 35 33 34
62 63 63 65 65 64 63 61 59 57 54 52 52 50 45 51 50 49 48 49 48 49 48 47 46 46 46 46 44 42 39 37 34 36 36 34 34 32 35 34 33 35 35
61 60 61 64 65 64 63 62 61 58 55 53 52 48 43 50 50 49 49 49 49 51 49 48 47 46 46 46 45 41 37 33 35 36 34 34 34 34 36 35 35 35 33
59 57 58 57 58 57 57 58 61 57 56 56 55 51 48 49 51 51 51 51 51 51 51 49 49 46 46 45 40 36 31 35 36 36 35 33 31 32 35 34 35 32 31
59 57 57 58 58 57 57 57 57 54 57 56 54 52 50 50 51 52 53 53 53 52 51 50 48 43 40 37 34 31 34 37 36 34 31 29 29 32 31 33 33 30 32
58 57 58 58 57 56 56 56 55 55 55 54 52 50 50 50 51 53 53 52 51 51 50 49 44 41 37 33 31 33 33 32 26 28 29 29 27 28 31 34 31 31 31
57 57 56 56 56 55 54 54 54 54 55 53 53 51 51 51 52 52 52 51 50 49 49 47 42 38 32 30 29 30 28 29 29 28 24 24 24 29 32 35 32 30 29

GFSGL_sfc_dewp_021.txt.gz
Dewpoint
68 69 69 69 70 69 69 69 70 71 70 70 70 69 67 65 65 65 65 64 62 63 63 61 60 60 60 60 60 59 57 56 52 55 57 56 56 59 58 57 59 60 60
68 68 69 69 70 70 69 69 70 70 70 70 70 69 67 66 63 65 65 64 63 61 62 62 62 62 61 60 59 60 57 57 56 53 55 57 57 57 57 59 60 60 59
68 69 69 69 69 70 70 70 71 70 70 69 69 69 67 66 65 63 65 64 64 63 61 62 62 61 60 61 60 60 61 60 59 57 56 58 58 58 58 57 57 58 59
68 69 69 69 70 69 70 70 70 71 70 69 69 69 68 67 66 65 64 64 64 64 64 63 61 61 60 60 60 61 60 61 59 59 58 58 58 58 58 57 56 57 57
68 69 69 70 70 71 70 70 70 71 71 69 69 69 69 67 67 66 66 65 65 64 63 64 63 63 63 62 60 60 62 60 60 59 58 58 58 58 58 58 56 57 57
68 69 69 70 71 71 72 72 71 70 71 70 69 68 69 68 65 64 66 66 65 65 63 64 65 65 65 63 62 62 63 61 60 58 59 58 57 59 58 58 56 55 54
69 69 70 70 71 72 72 72 72 71 71 70 70 69 69 69 63 63 65 67 65 65 65 65 64 64 64 65 63 62 63 62 62 60 58 60 60 60 59 56 56 55 54
69 70 70 71 71 72 72 72 72 71 72 72 70 70 69 69 63 61 64 67 66 66 66 65 64 64 64 64 63 62 61 62 63 62 61 62 61 61 59 58 57 55 55
69 69 70 71 71 72 72 72 73 72 71 72 71 70 70 70 61 60 62 67 66 66 66 66 65 64 62 61 63 62 61 61 62 60 61 60 59 58 59 57 56 54 52
69 69 71 72 72 72 72 72 73 73 73 72 72 72 68 70 60 58 63 67 66 66 65 65 62 64 59 58 64 62 60 61 60 59 58 56 56 54 57 57 55 52 50
68 70 70 72 72 72 72 73 73 73 74 73 73 73 70 67 62 57 60 66 66 65 63 61 62 58 56 55 57 62 61 59 59 57 53 51 51 51 51 52 53 53 51
66 68 70 71 72 72 73 73 73 73 73 73 71 70 69 65 58 57 58 60 60 61 61 63 63 56 52 52 55 56 54 56 54 51 49 48 49 50 47 48 47 50 53
65 66 68 70 71 72 72 73 73 73 73 70 69 68 66 67 64 56 55 54 57 62 64 61 55 52 50 52 54 54 54 54 50 49 48 48 50 50 48 43 44 43 41
64 65 66 69 70 72 73 73 73 73 71 69 69 66 66 65 62 60 58 56 56 60 57 56 56 55 55 55 55 54 52 51 49 48 48 49 50 46 42 43 41 40 37
63 65 67 69 70 71 62 68 72 68 68 68 68 67 65 64 62 59 58 59 60 58 56 55 55 54 54 52 51 51 51 50 49 49 49 50 49 43 42 42 40 38 36
67 70 71 71 65 62 61 58 54 53 55 55 55 59 62 56 50 49 47 48 48 50 55 55 53 53 53 52 50 50 50 51 49 49 50 49 44 42 40 37 39 37 35
71 68 66 64 65 65 66 64 62 59 51 46 50 49 52 49 47 45 44 45 46 51 54 52 52 52 51 51 51 51 51 51 51 50 47 43 38 36 36 37 36 35 34
65 59 66 65 65 65 63 62 61 60 61 57 45 49 45 45 44 43 43 47 53 52 53 53 53 52 52 51 51 50 48 46 43 38 35 34 34 36 38 34 33 33 34
66 65 64 64 63 61 61 61 61 61 60 53 50 46 43 42 43 44 46 56 55 53 52 52 51 50 49 48 46 45 42 40 38 36 35 33 36 38 35 33 34 38 37
60 60 62 63 61 60 59 58 59 59 56 55 56 54 46 49 51 50 51 52 53 52 49 48 48 47 46 46 45 43 42 39 37 36 36 37 37 36 32 33 34 33 34
64 64 61 63 61 61 60 58 57 56 55 55 54 50 48 55 53 51 51 51 51 50 50 49 47 46 46 45 43 42 40 38 36 34 36 37 34 32 34 34 33 34 34
63 64 64 63 63 62 61 60 58 56 54 54 51 46 44 52 52 51 51 50 49 49 49 48 46 45 45 45 44 42 40 38 35 35 35 33 33 34 35 34 34 34 31
59 60 61 63 63 59 61 61 59 57 56 53 52 49 48 51 51 51 51 50 50 49 50 47 47 46 46 47 45 43 38 35 35 36 35 34 33 32 34 33 33 31 30
58 57 57 57 59 60 60 58 58 54 56 55 54 52 51 51 51 51 51 51 50 50 51 49 48 47 47 45 42 36 34 35 36 36 34 33 30 32 31 32 33 30 31
57 56 57 56 56 56 56 57 56 57 57 56 54 53 52 51 51 52 52 52 52 51 50 50 47 45 43 39 34 31 33 35 34 33 30 27 26 26 29 33 33 30 30
57 57 57 56 56 56 56 56 55 55 56 54 53 52 51 50 51 52 52 52 52 51 50 48 45 42 38 35 33 33 31 32 29 29 27 26 24 25 31 34 34 31 27

GFSGL_sfc_dewp_024.txt.gz
Dewpoint
69 69 69 69 69 69 69 69 69 70 71 71 72 72 70 69 67 66 66 66 65 65 65 63 63 64 61 61 61 60 59 57 57 58 59 60 61 62 62 62 61 63 62
69 70 69 70 70 69 69 70 70 70 71 71 71 71 71 69 68 67 66 66 65 64 65 64 63 62 63 63 61 63 61 61 59 60 59 60 61 62 62 63 62 60 62
66 69 69 69 69 69 70 70 70 71 71 71 71 71 70 69 67 67 67 66 66 65 65 65 64 64 63 62 63 62 62 61 63 60 60 60 61 61 62 62 62 62 60
65 67 68 69 69 69 70 70 70 71 71 71 71 71 70 69 68 67 67 67 66 66 66 65 64 64 63 63 63 64 64 64 63 62 61 62 60 61 61 60 59 60 59
66 66 68 69 69 70 71 71 71 71 71 71 70 71 70 69 68 68 67 66 66 66 66 66 65 65 65 63 62 64 65 63 64 63 62 61 60 61 61 60 58 59 60
67 66 68 69 69 69 70 71 71 71 71 71 70 70 70 69 65 64 67 67 67 66 65 66 66 65 65 63 62 62 64 63 64 63 62 62 61 62 61 60 59 58 57
67 68 69 69 70 70 70 70 70 70 71 71 70 70 70 70 63 63 65 68 68 67 66 66 65 66 65 66 63 62 62 62 63 64 63 60 61 64 62 59 58 59 58
67 68 69 70 70 71 71 71 71 71 70 71 71 70 70 70 62 62 64 68 68 68 67 66 66 66 66 65 65 65 65 65 64 64 65 63 63 64 62 62 61 60 60
68 68 69 70 70 71 71 71 71 71 71 71 71 71 70 70 61 60 63 68 68 67 67 67 67 66 62 61 66 65 65 64 61 61 60 60 60 60 62 61 59 58 57
68 69 70 70 70 71 71 72 72 72 72 72 72 71 68 71 60 59 63 68 68 67 67 67 62 65 59 58 66 66 65 63 63 63 62 60 59 57 59 61 58 54 54
67 69 70 71 71 71 71 72 73 73 73 72 72 72 72 71 68 58 58 69 68 67 67 66 66 59 56 54 59 66 63 63 62 62 60 56 54 54 53 55 58 55 54
69 69 70 71 71 71 72 72 73 73 73 72 72 72 72 72 64 56 57 62 64 67 66 66 65 56 53 53 56 58 54 58 60 57 55 52 51 53 51 52 54 55 56
68 69 71 71 72 72 73 72 72 73 72 72 71 71 71 70 61 55 57 59 59 65 65 63 56 50 50 52 55 54 55 59 56 54 52 51 52 54 53 51 51 51 50
67 68 70 71 71 72 73 73 72 72 72 71 71 71 70 66 64 62 63 61 58 61 58 59 57 57 56 57 57 56 59 57 55 53 51 52 53 52 49 48 47 45 43
65 67 68 70 70 73 65 68 73 73 71 72 71 70 67 66 65 60 60 61 62 59 58 59 58 58 57 57 57 57 56 54 52 52 52 52 52 51 48 46 44 43 42
68 66 68 70 71 63 61 57 49 54 54 52 54 62 62 56 51 50 51 49 48 50 60 60 59 58 57 56 55 55 54 53 52 52 53 53 52 50 46 42 43 42 41
70 69 69 68 65 63 66 65 60 54 52 52 53 54 55 56 50 47 46 45 46 52 60 60 59 57 56 55 54 53 53 54 54 52 52 52 49 44 40 41 41 40 39
71 60 67 66 66 68 66 65 63 61 60 58 52 52 51 49 46 46 46 47 56 56 59 58 57 55 54 53 54 53 53 53 53 53 50 46 41 40 41 40 39 38 39
64 66 66 67 67 63 62 62 62 62 61 59 54 50 47 44 43 44 49 60 59 58 57 56 55 54 54 53 54 53 52 51 48 45 41 39 40 41 40 39 37 39 39
63 60 61 63 63 62 62 61 61 61 58 57 59 54 49 52 54 56 57 58 58 56 55 55 55 54 52 53 51 50 47 44 43 42 41 39 39 40 37 36 37 36 38
63 64 60 62 61 61 61 61 61 60 59 60 60 56 52 59 57 56 55 56 56 55 54 54 53 51 51 50 48 47 45 44 43 42 41 40 41 38 38 38 36 36 36
64 64 63 62 61 61 61 61 61 60 59 58 57 52 47 56 55 55 54 55 55 55 54 53 50 50 48 48 48 46 45 44 43 40 39 39 39 37 37 37 36 36 34
63 64 63 62 62 58 60 59 59 59 58 56 55 53 54 56 55 54 54 54 53 53 52 51 50 48 48 48 48 46 44 43 41 39 39 38 36 36 37 36 35 35 33
60 61 61 61 61 62 61 60 58 54 56 55 54 55 55 54 54 54 54 53 53 51 51 50 49 48 49 48 47 45 44 43 41 40 40 37 36 35 35 35 35 35 33
58 57 60 60 61 59 60 59 59 58 57 57 56 54 54 53 52 53 53 53 53 51 51 50 49 49 49 49 46 45 40 35 39 37 38 38 36 36 31 30 35 34 33
58 58 57 57 57 59 58 58 58 58 58 57 57 56 54 54 54 54 53 53 52 52 51 51 50 49 49 48 46 40 31 33 36 33 36 33 31 30 29 33 37 35 33

GFSGL_sfc_dewp_027.txt.gz
Dewpoint
71 72 72 72 72 73 73 73 74 74 74 74 74 74 74 74 74 73 72 70 69 69 68 68 68 68 63 62 63 62 61 59 56 57 60 63 65 64 62 64 63 64 61
71 72 72 72 72 72 72 73 74 74 74 75 74 74 74 74 74 73 72 70 70 69 68 68 67 65 67 67 63 66 63 63 59 63 62 61 64 65 66 66 63 59 61
70 70 71 72 72 72 72 73 74 74 74 73 74 74 74 73 73 73 72 72 70 70 69 68 67 67 66 63 64 62 61 63 63 60 59 61 62 62 63 65 65 64 62
67 69 71 72 72 72 73 73 73 74 74 74 75 75 74 73 73 72 72 72 71 70 70 68 68 67 67 67 65 66 65 63 64 61 60 60 61 63 63 60 59 61 60
69 68 70 72 73 73 73 73 74 74 74 74 74 74 74 72 70 72 72 72 71 71 70 69 68 68 66 66 64 66 67 64 62 61 61 61 60 61 61 61 58 59 61
69 69 71 73 73 73 73 74 74 74 74 74 74 74 74 71 66 66 71 71 71 72 71 70 70 68 66 63 63 64 67 67 66 61 61 61 64 63 63 59 58 58 55
69 70 71 72 73 73 73 74 74 74 74 74 74 74 74 74 64 64 66 71 71 72 72 71 69 67 66 66 64 62 63 63 64 67 65 65 65 65 64 64 63 60 59
70 70 71 71 72 73 73 73 74 74 74 74 74 74 74 73 63 62 65 72 72 72 72 71 71 70 69 68 68 66 66 65 65 63 66 67 66 66 65 65 65 64 63
69 70 71 71 72 73 73 73 73 73 74 74 74 74 74 74 61 61 64 70 71 72 72 72 71 70 65 62 68 67 66 66 63 61 62 61 60 61 62 62 61 59 55
69 70 71 72 72 72 73 74 74 73 73 72 73 74 71 74 61 59 63 69 71 70 72 72 63 68 60 59 68 68 67 66 67 65 65 62 62 62 60 65 59 54 50
68 69 72 73 74 73 73 74 74 74 73 74 73 74 74 73 72 58 58 71 69 69 70 68 69 59 56 55 59 69 67 67 65 65 64 63 62 61 57 59 59 54 50
70 71 74 74 72 71 74 74 75 74 74 74 74 72 73 74 65 57 57 62 66 70 69 68 69 56 54 53 58 59 56 61 63 62 60 59 58 53 53 56 59 57 54
71 73 74 74 74 74 74 74 72 72 72 72 72 72 72 72 73 57 55 57 61 69 69 67 59 53 53 55 55 55 56 63 61 59 58 57 54 52 56 57 56 57 57
71 72 73 74 74 75 73 73 72 72 71 70 71 71 71 72 70 63 62 63 61 64 61 60 59 59 58 59 58 58 63 63 61 59 58 55 54 54 53 51 50 49 47
70 70 71 71 72 73 74 73 72 72 71 72 72 71 72 67 64 58 61 64 64 61 60 61 62 61 60 61 62 62 63 61 59 58 56 53 52 53 52 52 50 48 44
68 68 67 67 68 71 73 69 54 53 55 54 56 67 68 57 50 51 51 51 52 54 62 62 63 61 61 61 60 60 60 59 59 57 55 53 52 53 52 50 48 44 43
66 67 67 66 66 72 67 69 65 56 48 50 51 52 53 53 50 50 50 50 50 54 63 63 63 61 61 60 59 58 58 58 59 55 54 54 54 53 50 47 44 43 39
67 58 66 69 70 68 68 67 63 62 61 58 50 54 49 49 48 48 50 53 55 59 64 63 62 61 60 59 58 57 56 56 55 54 55 54 53 50 46 43 42 39 38
65 64 65 64 63 63 66 66 65 62 60 60 53 49 46 44 45 47 47 61 60 62 63 62 62 61 59 58 56 56 56 55 55 54 53 51 48 45 44 41 38 39 39
64 59 61 63 62 60 61 61 62 62 61 57 58 56 52 53 56 57 62 62 62 63 63 62 61 60 58 56 56 56 55 53 53 51 48 46 45 43 39 38 36 35 36
62 63 60 65 63 63 62 61 62 61 60 61 59 56 52 61 58 60 62 62 62 64 63 61 60 58 57 57 56 54 50 48 48 46 45 45 43 39 39 37 34 34 33
63 63 64 62 63 63 62 62 62 61 61 60 57 53 47 61 61 61 61 61 61 61 60 59 56 56 55 54 53 50 47 46 47 46 45 42 41 39 38 36 34 34 33
64 64 63 62 63 59 61 61 60 60 59 58 58 58 61 62 61 60 58 57 58 57 57 57 56 54 52 52 51 48 46 46 46 46 44 42 39 38 37 35 34 33 30
63 64 63 63 63 62 62 60 60 55 59 59 59 60 60 58 56 56 56 56 56 56 56 55 53 50 52 51 49 48 47 47 46 45 44 41 39 37 36 35 32 29 29
57 58 61 62 63 63 62 61 60 59 58 58 57 57 57 59 57 56 56 56 56 56 55 53 52 52 52 52 49 48 44 39 45 39 43 41 39 40 35 31 30 29 30
52 54 54 56 58 59 61 61 61 59 58 58 57 56 57 56 57 58 56 56 55 54 53 52 52 52 52 51 50 43 33 34 39 35 39 38 37 35 32 32 31 28 31

GFSGL_sfc_dewp_030.txt.gz
Dewpoint
73 74 74 73 74 75 75 76 77 75 76 75 75 74 73 74 75 76 75 73 73 72 70 68 69 69 60 59 60 59 59 58 55 55 58 62 66 66 62 62 62 62 59
72 74 75 75 75 74 75 76 77 77 76 77 76 75 74 73 75 75 74 72 73 72 72 71 68 65 69 67 60 68 63 63 57 63 62 60 66 67 66 67 62 57 58
71 71 72 73 73 75 76 76 77 77 77 73 76 77 75 74 75 75 74 74 73 73 72 72 70 68 68 64 65 62 61 62 62 58 57 60 60 62 64 66 65 66 60
66 68 72 74 74 74 76 76 76 77 77 76 76 77 76 75 74 73 73 74 74 73 73 72 71 69 68 68 65 66 64 61 63 59 57 57 60 63 61 58 60 62 59
69 68 71 74 75 75 76 76 76 77 77 77 77 77 77 73 70 75 75 73 74 73 73 73 72 70 67 67 65 67 70 65 57 58 59 57 58 58 61 59 59 61 61
70 70 72 75 76 76 76 77 77 77 77 77 76 76 76 72 66 66 72 73 75 75 74 73 73 70 68 64 64 64 67 68 68 58 58 59 66 63 62 60 59 57 55
71 72 73 75 76 76 76 77 77 77 77 77 76 76 76 76 64 64 67 72 74 75 75 74 72 70 70 70 65 63 64 64 65 69 66 66 66 69 69 65 65 62 60
72 73 74 75 75 76 77 76 77 76 76 76 76 77 77 76 64 62 65 73 74 75 75 75 75 74 72 71 70 67 66 66 67 64 67 66 70 68 68 66 67 66 64
71 73 73 74 74 75 76 76 76 76 76 75 75 77 77 77 63 61 65 72 72 75 75 74 75 75 68 63 71 70 70 68 63 61 62 62 63 61 63 63 61 64 61
70 72 73 74 75 74 76 77 76 76 75 72 74 76 72 77 64 59 65 70 71 70 75 76 65 72 62 60 70 70 70 69 70 67 65 64 63 63 61 65 61 58 54
68 69 73 75 75 76 77 77 77 76 74 76 74 75 76 75 75 58 59 72 68 69 68 70 71 62 57 57 62 71 70 70 68 68 65 65 65 64 62 63 64 55 50
71 71 74 75 72 71 77 77 76 76 76 75 74 73 73 76 67 59 58 61 67 70 70 68 71 58 55 55 59 63 59 62 72 66 64 63 62 61 60 59 60 58 55
71 73 74 74 74 76 76 77 73 75 71 72 70 71 70 73 74 61 57 57 60 68 68 67 61 54 54 55 58 58 59 67 65 63 62 62 60 59 60 59 61 61 60
71 72 72 73 73 73 71 72 71 70 71 70 70 70 70 71 72 73 67 62 60 64 63 65 61 60 60 61 60 62 68 65 64 63 61 62 59 56 55 54 52 52 50
71 71 72 71 73 73 73 70 70 72 68 70 70 70 69 70 72 68 65 66 67 64 61 63 63 63 63 63 65 66 67 65 64 63 62 59 56 55 53 52 52 51 50
69 67 66 65 67 69 69 72 52 54 53 52 53 61 65 61 52 50 50 51 51 54 63 64 64 63 62 63 65 64 65 64 63 62 60 58 55 53 52 53 52 51 48
68 68 64 63 63 63 66 67 67 65 48 47 47 52 53 53 50 49 48 49 51 57 66 65 63 63 63 63 64 66 64 62 64 60 58 56 53 53 53 53 51 48 45
67 57 65 65 65 66 69 69 70 72 71 72 57 50 47 48 49 49 48 52 57 62 66 64 64 64 65 64 64 65 62 60 60 59 56 54 53 53 53 51 48 46 43
61 63 63 62 64 64 65 63 64 65 63 61 58 54 50 47 47 46 50 61 61 65 67 66 65 65 65 63 62 61 61 59 58 56 54 54 53 52 50 46 44 42 41
63 60 60 62 59 61 63 64 63 62 61 61 61 58 56 54 55 56 62 64 64 66 66 65 66 66 63 62 61 60 59 57 56 55 53 52 50 48 45 44 41 37 37
61 63 60 60 61 61 60 59 61 62 62 62 58 54 48 59 59 61 63 64 64 64 66 65 64 64 64 62 60 57 55 54 54 53 50 49 48 45 44 41 37 35 34
63 61 60 59 60 60 60 61 60 60 61 61 60 57 47 60 60 62 64 64 64 63 63 65 65 62 60 59 58 55 54 52 51 49 48 46 45 43 40 37 35 34 33
61 62 62 62 62 59 60 60 61 61 60 60 59 59 60 61 61 63 64 64 65 66 67 66 64 59 58 57 55 52 49 48 48 48 47 45 43 42 39 37 35 33 33
60 61 61 61 62 61 61 62 61 56 60 60 61 62 63 62 62 62 63 64 64 63 61 59 57 55 57 55 52 49 48 48 48 47 47 44 43 41 40 38 34 34 32
55 57 60 61 62 61 61 60 60 60 59 59 59 59 59 58 58 57 56 56 56 57 56 55 54 53 54 53 50 48 44 40 48 43 47 46 45 44 39 36 34 32 31
49 51 52 54 57 58 58 59 59 59 58 58 58 58 58 58 58 56 56 55 55 54 54 52 51 52 53 51 50 43 36 37 43 39 45 44 41 39 37 36 35 30 30

GFSGL_sfc_dewp_033.txt.gz
Dewpoint
75 75 76 76 77 78 76 77 77 77 78 76 77 76 76 76 77 78 77 75 76 75 73 73 73 73 60 58 59 59 58 58 55 55 57 66 68 66 64 65 63 66 61
74 75 75 76 76 76 77 76 78 78 77 78 77 77 76 76 77 77 76 72 75 74 73 73 71 66 73 72 61 71 64 66 58 69 65 62 68 70 70 71 64 58 61
72 73 74 75 75 75 77 77 77 78 78 76 77 78 77 76 76 77 77 76 75 75 75 75 73 72 72 66 67 63 61 63 64 60 59 60 61 64 67 70 70 69 62
67 69 72 75 75 75 76 78 77 78 78 77 77 78 77 77 76 76 76 77 76 75 75 75 75 73 72 72 70 70 68 64 64 61 59 57 59 66 63 61 61 64 62
69 69 71 75 76 76 77 77 78 78 78 78 78 77 78 77 73 76 75 76 76 76 76 76 75 74 70 70 68 70 70 65 58 58 59 59 57 60 64 62 62 60 63
70 70 73 75 77 77 78 78 78 78 78 78 78 77 77 74 68 66 73 75 76 76 76 76 76 72 70 66 65 66 70 71 70 62 61 62 70 66 62 60 61 59 59
71 72 73 75 76 77 78 78 78 78 78 78 77 77 77 77 65 64 67 74 75 75 77 76 75 70 72 72 66 64 64 64 66 72 70 68 71 70 71 68 68 66 62
72 72 73 74 76 77 78 78 78 78 78 78 78 78 78 77 66 62 65 74 75 75 76 76 76 74 75 73 73 70 69 69 69 66 70 71 71 71 69 70 70 69 68
72 73 73 75 75 77 77 78 78 77 77 77 77 78 78 77 65 62 64 72 73 74 75 76 76 76 70 65 74 73 71 70 64 63 64 63 64 63 65 66 63 65 63
71 73 74 76 76 76 77 78 78 78 77 75 76 77 74 78 67 61 63 71 72 72 75 76 67 73 65 61 73 73 72 71 70 68 66 64 65 64 62 68 63 61 61
70 72 75 76 77 77 78 78 78 78 76 77 77 77 77 76 77 60 59 73 71 71 71 72 73 63 61 58 64 73 72 72 69 70 69 69 68 68 64 64 67 62 60
72 73 75 77 74 73 78 78 79 78 77 77 77 76 75 77 69 63 58 62 69 71 71 70 71 60 58 56 61 64 60 66 71 70 70 68 66 64 64 64 67 66 63
75 76 76 77 77 76 77 78 75 77 74 74 73 73 73 74 75 62 57 58 61 70 71 67 63 55 55 56 60 59 60 71 70 68 67 66 65 64 67 67 67 67 66
76 77 76 77 76 76 72 73 72 71 72 72 70 71 71 72 72 74 70 64 59 64 64 68 62 61 62 64 62 63 69 70 69 68 68 69 66 64 62 60 57 59 56
72 71 72 71 73 75 75 70 70 73 68 69 70 70 69 69 69 66 68 73 70 67 68 68 67 67 65 64 65 65 67 69 69 68 67 68 67 61 60 59 57 57 54
71 70 68 67 68 70 70 72 59 60 57 52 48 58 69 57 55 52 53 53 55 55 69 68 66 66 65 64 65 65 67 67 69 68 66 67 65 59 58 59 56 55 53
69 70 65 63 62 63 66 67 66 64 52 52 48 49 47 50 50 48 48 51 51 56 69 67 66 66 65 65 66 66 65 68 67 68 66 65 63 59 57 56 55 54 52
67 57 65 64 64 64 66 67 67 67 67 69 54 50 45 44 44 45 47 50 57 62 68 66 66 66 66 66 66 66 66 67 66 66 65 64 61 58 56 55 55 53 50
64 62 62 62 64 63 64 65 65 66 65 63 63 57 52 46 45 43 44 68 63 64 68 66 67 66 66 67 67 66 68 67 64 63 62 61 58 56 55 55 52 47 47
63 60 61 61 60 60 61 62 62 63 63 62 61 60 59 57 59 59 56 58 62 65 67 67 67 66 66 66 66 66 65 62 62 62 60 58 57 55 54 52 48 45 44
60 61 59 60 60 60 60 60 59 59 60 59 59 57 45 58 59 60 61 62 63 64 65 67 66 66 66 65 65 63 62 61 61 60 57 57 57 53 53 48 44 43 40
60 59 59 59 58 59 59 59 59 59 61 60 58 59 49 62 62 64 65 64 66 66 66 66 66 67 66 64 63 61 60 59 59 58 56 54 53 51 47 44 41 39 37
59 60 61 62 61 58 59 60 60 60 59 59 60 59 63 62 62 62 64 64 65 66 66 66 66 66 67 63 61 60 57 56 57 56 53 52 48 46 45 42 39 36 35
61 61 60 59 59 59 59 60 60 56 60 61 61 62 63 62 62 63 64 64 64 65 66 67 65 64 63 62 60 57 56 55 54 52 52 48 46 44 43 41 38 37 34
53 56 58 59 60 60 59 59 59 59 59 59 59 59 59 60 61 61 61 63 64 65 65 65 65 61 60 58 56 54 48 42 51 45 49 50 46 49 43 40 39 36 35
50 51 53 54 55 56 56 55 55 55 55 55 56 57 58 57 58 58 56 56 57 58 58 56 56 57 57 55 55 42 36 39 45 41 48 46 45 44 42 41 39 35 35

GFSGL_sfc_dewp_036.txt.gz
Dewpoint
74 75 75 75 75 75 75 75 77 75 78 75 77 76 76 76 76 77 76 75 76 75 73 73 72 72 71 69 68 68 68 67 64 64 68 71 69 67 66 68 68 68 67
75 75 75 75 76 75 75 75 76 77 75 78 77 76 76 75 76 76 75 73 75 75 73 72 72 70 72 72 72 68 67 69 67 66 67 69 69 69 70 70 66 61 66
74 74 74 74 74 75 76 75 75 76 77 75 77 77 75 75 75 76 75 75 73 75 75 73 72 72 71 68 70 69 68 69 69 66 66 68 70 70 69 69 70 69 67
71 73 73 74 74 75 75 76 75 75 76 76 76 76 76 75 75 75 75 76 75 74 75 75 74 72 71 71 69 69 69 68 67 67 66 65 68 69 68 66 67 68 67
69 71 73 74 75 75 75 76 76 76 75 76 76 76 76 76 74 75 75 75 75 74 74 75 75 74 70 70 69 70 68 68 67 64 63 65 65 66 65 67 65 64 67
69 69 72 74 74 75 75 76 76 77 76 76 76 76 76 74 69 68 73 74 75 75 75 75 75 72 71 67 67 67 69 67 65 62 63 63 65 66 69 66 65 64 62
70 71 72 73 74 75 76 76 76 76 77 77 76 76 76 76 67 66 68 74 74 75 75 75 74 73 72 72 66 65 66 66 66 67 66 68 69 69 69 68 67 67 65
73 72 73 74 74 75 76 76 76 76 77 76 76 77 76 76 67 64 66 73 74 74 75 75 75 74 74 73 71 68 68 68 67 67 69 68 71 71 70 70 69 68 68
71 73 73 74 74 75 75 76 76 77 76 77 77 77 77 76 65 63 64 71 72 73 74 75 75 75 70 65 73 70 68 68 64 63 64 66 64 65 69 69 68 66 64
71 71 74 74 74 74 76 77 77 77 76 76 76 77 73 77 68 62 64 72 71 71 73 74 67 72 66 61 72 72 70 69 69 67 65 63 64 64 64 69 67 64 63
71 72 74 74 74 75 76 77 77 77 77 77 76 77 77 76 76 62 60 73 72 71 70 71 72 63 61 59 63 72 71 71 68 68 67 67 68 68 67 68 68 66 63
74 73 74 76 73 73 77 77 77 77 77 77 76 76 76 77 69 65 59 61 69 73 71 71 71 61 58 57 60 65 62 65 71 69 67 67 66 67 68 68 67 67 67
78 77 76 77 76 75 77 77 76 77 76 76 75 75 75 75 76 63 59 58 59 68 73 70 59 55 56 58 59 61 61 70 71 70 68 67 67 68 68 68 67 67 66
79 79 78 77 76 76 74 75 75 74 75 75 75 74 73 74 75 75 72 64 60 64 67 69 68 63 60 64 63 63 71 72 72 70 69 69 69 68 67 67 66 64 62
77 77 78 75 76 76 76 73 75 75 73 74 74 73 72 73 71 60 62 73 71 67 69 72 72 71 72 68 67 68 71 72 71 70 69 68 67 66 66 65 64 62 59
75 73 72 72 72 74 75 75 63 63 57 50 50 61 73 57 50 51 54 56 52 55 67 71 72 71 69 69 68 69 70 69 70 69 68 67 66 65 63 63 63 59 57
74 76 72 69 71 73 72 73 73 59 49 49 46 46 48 48 47 48 49 49 50 54 70 70 71 71 69 69 68 68 68 69 69 68 67 66 65 65 62 61 58 57 56
70 58 69 68 68 69 70 70 69 70 70 69 53 53 45 44 44 44 43 49 66 61 69 69 69 70 69 68 67 68 68 68 68 67 66 65 65 62 61 60 57 56 55
70 65 66 65 66 64 66 65 64 65 64 64 65 58 56 50 47 44 44 57 60 65 66 68 70 70 69 68 68 68 67 67 67 66 66 65 64 62 60 59 57 53 54
65 61 62 64 63 64 64 64 64 64 64 64 61 59 59 59 61 62 64 60 59 60 62 64 64 66 68 68 68 67 66 66 66 66 65 64 63 62 59 56 54 52 53
61 63 60 62 62 62 62 62 62 62 61 62 60 57 47 59 61 63 63 62 62 65 67 66 66 66 66 66 67 67 66 65 65 65 64 62 62 59 56 55 54 52 48
61 61 61 59 60 61 62 61 61 60 59 59 59 59 49 61 61 64 65 64 66 68 68 67 65 66 65 66 66 65 65 65 64 63 61 59 58 56 55 54 53 50 47
60 60 61 61 61 60 60 60 59 59 60 60 61 61 61 61 61 62 62 64 65 66 67 67 67 67 67 67 66 65 64 63 63 63 60 57 56 55 53 52 49 48 45
60 60 61 60 60 59 59 60 59 56 58 59 58 59 60 62 63 63 64 65 66 66 67 65 65 66 64 64 64 64 64 63 62 59 57 55 54 51 51 50 48 46 44
56 57 58 58 57 57 56 55 55 54 55 55 55 56 57 58 58 59 59 64 65 66 65 66 64 64 63 63 63 61 49 46 56 51 55 55 53 53 50 47 46 44 44
49 52 52 54 56 55 54 53 53 54 53 53 53 54 54 54 55 57 58 58 58 62 64 65 63 63 61 61 60 47 39 41 46 45 54 53 52 50 48 48 48 44 44

GFSGL_sfc_dewp_039.txt.gz
Dewpoint
72 71 72 72 70 72 72 70 73 70 72 72 73 73 73 73 74 74 73 73 74 73 72 71 70 68 65 65 64 63 61 60 56 58 62 64 64 64 65 65 66 66 63
72 72 72 73 73 71 72 73 69 74 71 74 74 73 74 73 73 75 73 73 72 73 72 70 70 69 67 67 68 62 61 63 59 56 63 64 63 63 62 63 64 64 65
72 72 72 72 73 72 72 72 74 70 74 71 75 74 73 74 74 73 74 73 72 73 73 71 69 70 67 65 67 66 65 63 65 62 62 66 66 66 66 66 64 63 64
71 72 72 73 73 73 72 72 71 74 72 75 72 75 74 74 73 74 73 73 73 72 74 73 71 70 68 67 66 65 65 64 63 63 61 60 63 67 64 63 64 66 64
70 71 72 73 72 72 73 73 73 71 73 73 74 73 74 73 73 73 73 73 73 73 72 74 73 71 69 67 67 66 64 65 64 61 62 63 61 64 64 65 63 64 65
68 70 72 72 72 72 73 73 74 74 72 73 73 73 73 74 69 68 72 73 73 73 73 72 74 72 70 67 66 66 66 62 61 63 59 59 60 61 64 64 63 61 61
66 68 70 72 72 72 72 73 73 73 74 73 72 73 73 73 66 66 68 73 72 73 73 73 71 72 71 72 66 66 65 65 62 60 61 60 60 61 63 63 63 62 61
66 67 69 71 72 72 72 72 73 73 73 74 74 73 74 73 66 64 66 72 72 72 73 73 73 72 72 72 72 69 68 67 66 63 61 60 63 67 64 66 65 64 65
67 68 69 71 71 72 72 72 73 73 73 73 74 74 74 74 64 63 64 71 72 72 72 73 73 73 69 65 72 71 69 68 64 62 63 63 64 65 68 67 65 64 63
68 70 71 71 72 71 72 72 73 73 73 73 73 75 72 74 66 62 64 72 72 71 72 72 66 71 65 62 71 72 70 69 68 66 65 63 64 65 65 67 66 64 63
68 71 73 73 72 72 72 73 73 73 74 74 74 74 75 74 74 61 60 72 72 72 71 71 71 63 60 59 61 72 70 70 67 67 67 66 66 66 66 68 67 66 64
70 71 71 72 72 73 74 74 74 74 74 74 74 74 75 75 67 63 59 61 69 73 72 72 70 60 58 58 59 64 61 64 70 68 67 67 66 65 66 67 68 67 66
70 71 72 73 73 71 74 74 75 75 75 75 74 74 74 75 75 62 59 58 60 70 74 71 64 59 56 58 59 60 60 69 71 70 68 68 66 67 67 66 67 67 66
72 74 74 74 75 73 75 74 74 75 75 74 75 74 74 74 75 75 72 65 60 63 67 70 68 66 64 64 64 61 66 70 71 71 70 70 68 67 66 67 65 66 63
70 75 74 75 74 75 73 75 74 74 73 75 75 74 74 74 71 60 61 70 69 66 67 71 72 72 71 71 68 68 66 68 71 72 72 71 67 66 66 67 66 65 63
73 74 74 73 74 75 75 72 52 54 54 52 50 65 60 53 48 47 47 48 49 50 63 69 70 71 72 72 72 71 68 67 70 72 71 69 67 66 66 66 65 64 62
69 72 71 70 72 73 74 73 66 56 47 46 49 48 48 47 46 45 45 46 49 54 65 69 69 70 71 72 72 72 70 69 70 71 71 68 67 66 64 64 63 63 61
66 59 66 68 67 68 68 69 69 65 65 62 50 50 46 44 44 43 46 50 58 58 63 65 67 68 70 71 72 71 70 70 70 71 70 68 67 65 64 63 63 61 60
68 66 66 66 66 64 65 65 64 64 63 63 60 53 51 48 43 45 48 56 57 59 60 60 62 63 63 64 66 68 70 70 69 70 69 68 66 64 63 63 61 57 57
62 61 63 64 64 64 64 64 63 63 62 61 58 57 56 57 59 60 59 57 57 57 59 62 64 65 64 64 64 65 66 67 68 68 68 68 64 63 62 61 60 59 58
62 62 61 63 63 63 63 62 62 61 61 60 58 55 48 58 59 60 60 60 60 61 62 63 62 62 63 64 65 65 66 66 66 66 67 64 63 62 61 61 60 58 56
62 62 61 60 60 60 60 60 60 60 60 60 59 58 46 57 61 60 60 61 62 63 64 63 64 64 63 63 64 64 64 64 64 64 64 63 62 62 61 60 57 53 52
60 60 60 60 59 58 59 59 59 59 59 59 59 59 60 61 61 61 61 62 63 63 63 63 63 64 65 64 64 63 62 62 63 63 63 63 62 61 59 55 53 48 47
60 59 57 57 56 56 56 55 55 52 55 56 56 56 56 57 58 58 57 58 59 63 64 63 63 62 62 64 64 63 63 63 63 62 60 60 57 54 52 50 51 47 45
57 57 56 55 54 54 54 54 53 53 53 53 53 53 53 54 54 53 53 52 54 53 53 52 53 60 60 59 60 60 54 50 57 52 55 54 53 51 48 46 45 43 42
49 54 55 54 52 52 52 52 51 52 51 51 50 49 48 48 48 49 49 49 48 48 47 47 47 44 40 41 41 42 39 39 47 45 52 52 50 49 48 45 43 41 41

GFSGL_sfc_dewp_042.txt.gz
Dewpoint
68 70 69 68 68 72 70 68 68 70 67 70 71 72 73 72 72 72 72 74 72 72 72 70 69 68 67 64 63 63 60 58 55 55 61 60 62 63 63 63 61 59 60
69 70 71 71 69 69 72 70 69 69 70 68 72 72 73 73 72 72 72 73 73 72 72 71 70 69 68 66 64 64 61 60 57 54 57 64 62 63 62 64 62 61 62
69 70 71 71 71 70 69 73 71 69 70 71 73 72 73 73 73 73 72 72 73 73 73 72 71 70 69 67 65 65 65 61 62 58 57 63 63 63 62 63 63 63 64
70 71 70 71 72 72 70 70 73 72 68 72 73 73 73 73 72 72 73 73 72 72 73 73 71 70 69 68 66 65 64 64 63 63 60 62 63 65 63 61 62 64 62
70 71 71 71 72 73 72 71 71 72 73 70 72 73 73 73 73 73 72 72 73 72 72 73 73 71 69 68 67 65 64 63 63 62 61 60 60 63 63 62 61 61 64
70 70 71 72 71 72 73 73 71 71 71 73 72 73 73 73 69 68 71 72 72 72 72 72 72 71 69 66 66 65 65 64 62 61 61 59 60 59 64 63 62 61 60
69 69 71 71 72 72 72 73 73 72 71 70 71 72 72 73 66 66 68 72 72 72 72 72 72 72 71 72 66 65 64 64 63 61 60 59 59 59 60 63 63 62 60
66 69 70 72 72 72 72 72 72 73 73 72 71 71 72 72 65 64 66 72 72 72 72 72 72 72 71 72 73 70 68 67 65 64 62 61 60 60 60 60 62 63 63
65 66 70 71 72 72 72 72 72 72 72 73 73 73 71 72 64 62 64 71 72 72 72 72 73 72 69 64 72 72 71 70 66 62 63 61 59 59 61 63 64 63 62
64 66 67 70 71 72 72 72 72 72 72 72 73 73 71 73 64 61 64 71 71 72 72 73 66 70 65 62 69 71 71 71 71 70 66 63 61 60 62 64 64 64 63
66 66 68 68 70 71 72 72 72 72 72 72 72 73 73 73 73 60 60 72 73 72 72 72 72 63 60 59 61 72 71 71 70 70 69 68 67 67 65 67 67 64 64
68 70 69 70 69 70 71 71 71 71 72 72 72 73 73 74 65 60 59 61 69 73 73 73 72 61 58 57 60 64 62 63 71 72 70 69 69 67 67 68 68 68 67
69 69 70 71 72 72 71 71 71 72 72 72 73 73 73 74 75 61 58 59 60 70 74 71 64 60 57 58 58 60 60 69 71 72 71 71 69 70 69 68 69 69 68
66 71 70 71 71 71 73 73 73 73 73 73 73 73 74 75 75 75 69 64 60 63 66 70 68 64 61 65 65 62 63 68 70 71 71 72 73 71 68 68 67 67 66
71 70 72 72 71 72 68 68 73 74 73 74 75 75 75 74 73 63 65 71 69 65 66 69 70 71 72 72 72 71 70 67 67 70 71 72 72 72 68 68 67 66 65
68 71 73 72 72 73 67 61 51 49 49 52 55 66 56 54 49 49 50 49 49 51 64 66 68 69 69 71 71 72 73 70 70 69 70 71 71 71 68 67 66 66 64
66 65 69 71 73 73 73 66 61 56 48 46 47 48 50 49 48 48 47 48 49 53 64 64 66 68 69 70 71 71 72 73 73 70 71 71 71 71 68 66 65 65 64
66 60 66 69 70 71 71 67 63 62 59 58 51 49 44 44 45 45 46 50 57 57 60 60 60 60 61 62 63 63 64 66 67 68 69 69 70 69 69 67 65 64 63
66 66 66 66 65 65 67 67 66 65 62 59 57 52 47 43 43 45 47 57 58 57 59 58 59 60 63 64 64 64 64 64 64 65 65 66 67 68 67 67 66 59 59
62 62 64 65 65 64 64 64 64 62 60 59 59 58 56 55 57 58 57 56 56 57 57 59 60 63 62 64 64 64 65 64 64 65 65 66 66 64 62 62 61 61 61
62 63 61 62 62 62 61 61 62 61 59 58 57 53 46 58 58 58 58 59 59 59 59 60 61 61 62 62 62 63 63 64 64 63 63 63 63 62 62 61 61 61 60
62 60 60 59 59 59 60 60 60 60 59 59 58 56 49 59 59 58 58 59 61 61 61 61 61 62 63 64 64 64 62 63 63 63 63 62 61 61 61 60 60 60 57
60 59 59 58 58 56 56 56 56 56 56 56 55 56 57 56 56 55 55 56 56 59 60 61 61 62 63 65 65 62 60 61 61 61 61 62 61 61 60 59 59 58 56
58 58 57 56 55 54 54 54 53 51 53 53 53 53 53 53 51 51 51 51 50 50 51 52 50 48 49 53 59 61 61 62 61 60 60 60 58 57 57 53 52 52 50
57 56 55 55 54 53 52 52 51 51 50 50 49 48 48 48 48 48 48 48 49 49 48 47 46 44 42 43 41 39 38 37 51 51 58 56 54 53 52 51 48 47 45
56 54 53 53 52 51 51 50 49 49 48 48 47 46 46 46 45 45 45 45 46 46 46 46 46 45 42 42 40 36 32 33 41 41 54 53 51 49 47 46 45 44 44

GFSGL_sfc_dewp_045.txt.gz
Dewpoint
67 67 68 68 68 68 69 68 69 67 69 70 71 71 72 72 72 72 72 72 71 71 71 70 68 67 67 65 63 63 60 58 55 55 59 60 61 62 63 65 63 61 60
67 68 68 69 69 70 70 68 68 70 68 69 71 71 72 72 72 71 71 72 72 71 71 71 71 70 67 66 64 62 62 60 57 55 55 60 60 62 62 64 64 61 59
66 68 68 67 68 69 71 71 69 68 69 68 70 71 71 72 72 72 71 71 72 72 72 71 71 70 69 68 66 64 63 62 60 57 56 59 62 62 62 63 62 62 61
66 67 68 69 69 68 68 70 71 70 69 70 69 70 71 72 72 72 72 71 71 72 73 73 72 71 71 70 68 66 64 63 62 61 60 59 61 62 62 61 61 62 61
67 67 68 70 70 70 69 69 70 71 70 70 70 71 71 71 72 72 72 72 71 71 72 72 72 72 70 70 70 68 66 64 63 62 61 60 60 62 62 61 59 58 61
67 68 69 69 70 71 71 70 69 70 72 70 69 70 71 72 68 68 70 71 72 71 71 72 72 71 70 67 67 67 67 66 64 63 62 60 59 60 62 60 60 59 58
68 69 69 70 70 71 72 72 71 70 70 71 71 70 70 71 66 66 68 71 71 71 71 71 71 72 70 72 68 66 65 64 66 67 64 64 62 60 60 62 60 60 58
69 69 70 71 70 71 71 72 72 71 70 70 70 71 71 71 65 64 66 71 72 71 71 71 71 71 71 71 71 71 69 69 67 66 67 67 66 63 60 60 60 61 62
67 69 70 71 71 71 71 71 72 72 72 71 71 70 70 71 63 63 64 71 71 72 72 72 72 71 68 64 71 71 71 71 67 63 63 63 62 61 61 61 61 61 61
66 68 69 70 71 71 72 71 71 72 72 72 72 73 69 70 63 61 64 71 71 71 72 72 66 70 64 62 69 71 70 71 71 71 70 65 63 64 60 61 63 62 60
64 65 68 70 71 71 71 72 72 71 72 71 72 72 73 72 71 60 59 71 71 71 71 71 72 63 60 60 61 72 71 71 71 71 71 71 71 69 68 64 63 66 65
66 65 66 68 70 71 71 71 71 72 71 71 71 72 72 73 66 61 59 61 68 72 72 72 72 62 58 58 60 63 62 63 71 72 72 72 72 71 70 70 68 67 68
68 67 67 68 68 69 70 71 71 71 71 71 71 71 71 73 73 62 59 59 60 69 73 70 64 59 57 58 57 58 58 67 70 71 71 72 72 72 72 71 69 68 68
69 68 70 70 70 69 70 70 70 71 71 70 71 71 72 73 74 73 68 65 61 63 66 70 67 64 62 65 65 64 64 66 68 70 71 71 72 73 73 73 70 68 67
68 69 69 70 68 70 65 65 70 71 69 71 71 72 73 73 73 68 70 72 71 67 68 69 70 70 71 71 71 71 71 69 67 68 69 70 71 71 72 73 71 70 68
66 66 66 70 70 69 64 60 49 47 46 49 53 67 61 55 52 51 50 51 53 53 66 68 68 68 68 68 68 69 70 69 71 70 70 70 70 70 70 70 71 70 67
64 66 65 65 71 70 66 64 59 54 48 45 45 48 51 50 46 45 45 46 48 55 66 66 66 64 62 61 61 61 62 63 64 64 64 64 65 66 66 67 69 68 67
63 60 65 66 70 71 69 64 61 61 58 56 49 47 44 44 44 44 46 53 60 59 61 59 58 58 58 61 62 62 62 63 63 63 64 64 64 64 64 65 65 66 66
63 64 64 64 64 66 68 65 63 60 58 57 58 53 48 44 45 45 48 59 59 57 58 57 57 60 62 62 62 63 63 63 63 63 63 63 64 65 65 64 62 53 58
62 60 62 64 64 65 66 65 62 60 60 60 59 59 58 57 59 59 57 56 57 57 57 57 58 59 59 60 62 62 62 62 64 64 63 63 64 63 62 61 60 59 60
62 61 60 61 61 62 62 61 61 60 59 59 56 53 48 60 58 58 59 59 60 59 58 59 59 61 62 62 63 62 62 63 64 64 63 62 62 60 60 61 61 61 59
61 60 60 60 60 60 60 60 60 60 59 58 58 55 49 57 56 55 55 55 56 57 58 60 61 61 61 62 64 63 62 61 62 63 63 62 60 61 60 59 60 58 57
60 59 59 58 57 56 57 57 56 56 55 55 55 54 53 52 51 51 50 50 50 50 51 51 50 49 49 50 52 55 58 60 61 61 62 62 61 61 60 59 59 57 56
59 58 57 56 55 55 54 53 52 50 51 51 50 49 49 49 48 48 48 49 49 49 49 48 47 45 45 46 45 44 44 42 43 58 62 61 61 58 57 55 55 53 52
56 55 55 54 53 52 52 51 50 49 49 48 47 47 46 46 46 46 46 46 46 46 46 46 45 44 43 44 43 41 38 34 36 39 55 58 57 56 54 53 52 50 48
55 54 53 53 52 51 50 49 48 47 46 46 45 45 44 44 44 44 43 43 44 44 44 44 43 43 40 40 38 36 34 35 37 34 42 56 55 54 55 51 50 48 47

GFSGL_sfc_dewp_048.txt.gz
Dewpoint
66 67 67 67 68 68 68 69 69 68 69 70 71 71 71 72 73 73 73 73 72 72 72 72 71 70 69 68 66 65 63 61 60 62 61 64 66 66 66 67 67 67 66
67 67 67 68 68 68 69 69 69 68 69 70 71 71 72 72 72 72 72 73 72 72 72 72 72 71 70 70 68 67 65 65 63 63 64 63 65 66 67 67 66 64 65
67 67 67 67 68 69 69 70 70 70 69 69 70 71 71 72 73 73 73 72 73 73 73 72 72 72 72 71 70 68 66 65 64 62 62 62 64 65 65 66 66 67 65
66 67 67 68 68 69 70 70 70 70 70 70 70 71 71 72 73 73 73 72 72 72 73 73 73 73 72 72 71 71 70 67 66 64 63 63 63 65 65 64 63 64 64
66 67 67 68 69 69 70 71 72 70 69 70 70 70 71 71 71 73 73 73 72 72 73 73 73 73 70 71 72 72 71 69 69 67 66 65 63 64 63 64 63 64 65
66 66 68 69 69 69 69 70 71 72 71 71 70 70 70 70 67 67 71 72 73 72 72 73 73 71 71 67 67 68 70 70 69 67 67 66 67 66 65 63 63 62 61
66 67 68 69 70 70 70 70 70 70 72 72 71 71 71 72 65 65 67 72 72 72 73 72 72 72 71 73 68 66 67 65 67 71 69 69 68 69 68 66 65 64 63
67 68 69 69 70 71 71 71 71 70 70 71 72 71 71 71 64 63 66 72 72 72 73 73 73 72 73 72 73 73 72 71 70 68 70 71 72 72 71 69 67 67 66
68 69 69 70 70 71 71 71 72 71 71 70 71 72 72 72 63 62 65 71 72 72 73 73 73 73 68 64 72 72 72 72 68 64 65 64 63 62 65 69 65 62 62
69 69 70 71 71 70 71 71 72 73 72 72 71 72 69 72 64 61 63 71 71 71 73 73 66 70 64 61 71 72 72 72 73 73 72 67 65 67 62 65 68 67 65
69 70 71 71 71 72 72 72 72 72 73 73 73 73 73 71 71 60 59 71 71 71 71 72 72 63 60 59 60 72 72 72 71 72 72 72 73 72 71 70 68 68 68
68 69 70 71 71 71 72 73 73 72 72 72 72 73 73 74 65 61 58 60 67 71 72 72 73 62 58 58 59 62 60 62 71 72 72 72 72 73 73 73 73 70 70
67 68 69 71 71 72 72 72 72 72 72 72 72 72 72 73 74 61 59 58 59 68 72 70 64 59 57 58 57 58 58 66 68 69 70 71 72 72 73 74 74 73 72
70 69 69 69 69 71 72 72 72 72 71 72 71 71 72 73 74 74 70 66 60 63 65 69 67 65 63 66 67 65 65 67 68 69 70 71 72 72 72 73 72 72 72
70 70 71 71 70 70 69 68 72 72 69 71 72 72 73 73 73 68 69 73 73 69 69 71 70 71 71 72 72 72 72 71 69 69 69 69 69 69 69 70 70 70 68
68 68 68 71 70 71 65 61 49 48 48 49 53 67 67 57 58 54 52 53 54 55 68 70 70 70 69 69 68 67 67 65 66 65 64 65 64 65 65 65 65 66 65
65 66 67 65 72 69 67 66 63 54 46 44 44 50 54 56 47 45 45 46 48 58 70 68 67 66 64 63 64 65 64 65 66 64 64 64 64 64 64 64 65 65 65
65 58 66 67 69 71 68 67 64 63 64 59 47 47 43 43 43 44 46 54 63 61 63 63 62 62 63 63 64 64 64 64 64 64 65 65 63 63 64 65 65 63 61
64 66 66 66 67 69 68 65 63 61 60 58 58 53 49 44 45 48 51 61 61 61 61 61 63 63 63 63 64 64 64 63 63 64 64 63 63 63 63 63 62 56 57
64 60 62 65 66 67 66 64 61 60 61 61 61 60 60 59 60 60 60 60 60 61 62 62 63 63 63 62 63 64 64 63 64 64 64 65 65 64 63 62 63 62 60
63 63 60 63 63 63 62 61 61 61 60 58 56 54 50 60 59 58 58 58 59 61 61 62 62 62 63 64 64 64 64 63 64 64 64 64 64 63 63 63 61 62 61
62 61 61 61 61 61 61 61 60 60 59 57 56 53 49 55 54 53 52 52 53 53 53 54 53 52 52 52 53 56 59 61 62 62 63 64 63 62 63 62 61 59 59
61 60 60 60 60 57 59 59 58 57 56 55 53 51 51 50 50 49 50 50 50 50 50 49 48 47 48 48 48 47 48 49 50 51 59 63 63 62 62 60 59 58 57
60 59 58 58 58 57 56 56 54 50 52 51 50 49 49 48 48 48 48 48 48 48 48 47 47 45 46 45 45 43 44 42 42 45 53 61 62 59 60 59 59 57 55
57 57 56 56 55 54 53 51 50 49 49 48 47 47 46 46 46 46 46 46 46 46 45 45 44 43 43 43 42 41 38 34 38 38 44 57 61 60 60 58 57 56 55
55 54 53 52 51 50 49 48 47 46 45 45 45 44 43 43 43 43 43 43 42 41 41 41 40 40 40 39 38 36 33 34 39 35 46 51 56 58 58 57 57 55 52

GFSGL_sfc_dewp_051.txt.gz
Dewpoint
69 70 70 70 70 71 71 71 72 71 72 72 73 73 73 73 74 75 75 74 74 75 74 74 74 75 70 69 68 67 66 65 62 61 64 66 69 69 67 68 68 68 66
69 70 70 71 71 70 71 71 73 73 72 72 73 73 73 73 73 74 73 72 73 74 74 74 73 72 74 74 70 72 69 69 65 69 67 64 69 70 70 70 67 63 65
68 68 69 70 70 71 72 72 72 72 73 71 72 73 73 73 73 73 73 73 73 73 74 74 74 74 74 72 73 71 70 70 69 66 65 65 66 65 67 70 69 70 66
66 67 69 70 70 70 72 73 72 73 73 72 72 73 73 72 73 73 73 73 74 73 74 74 74 74 74 75 73 74 73 72 71 70 68 67 67 70 67 65 64 64 64
68 68 69 71 71 72 72 73 73 73 73 73 73 72 72 71 69 72 73 73 74 73 74 74 74 74 71 72 72 75 75 72 70 68 67 66 66 66 67 66 65 65 68
69 69 70 72 72 72 73 73 74 73 73 74 73 72 72 69 65 66 71 72 74 74 73 74 75 72 72 68 67 68 72 75 73 70 68 68 73 71 70 69 68 67 66
70 70 71 72 72 73 73 74 74 74 73 74 73 72 73 74 64 64 67 71 72 73 74 74 72 70 72 74 69 66 67 66 68 74 74 74 74 75 75 73 73 71 70
70 71 72 72 72 73 73 73 74 73 74 73 73 74 74 73 64 63 65 72 73 74 75 74 75 75 74 73 74 73 74 74 74 71 73 74 75 76 76 75 76 74 72
70 71 71 72 72 73 73 73 73 72 73 73 73 74 74 74 63 62 65 72 72 74 74 75 75 75 70 65 74 74 75 74 68 65 66 66 64 63 66 71 70 70 68
70 71 72 72 73 73 74 74 74 73 73 71 71 74 71 74 64 61 64 70 71 70 74 75 66 71 64 62 73 73 74 73 73 74 75 70 66 70 64 67 70 69 70
69 70 72 73 73 74 75 75 74 73 73 73 73 74 74 73 74 60 59 71 70 70 69 69 70 62 61 60 61 74 74 73 73 75 74 74 75 75 75 74 71 70 70
72 72 73 74 71 71 75 74 74 75 74 74 74 73 73 74 66 62 58 60 68 72 72 71 73 62 58 58 60 62 61 63 72 72 72 73 73 73 74 74 76 75 73
73 74 73 74 73 75 74 74 72 74 71 72 71 71 71 72 74 61 58 57 59 69 72 69 63 59 57 59 58 58 58 67 69 70 70 71 72 72 75 75 74 76 76
72 73 73 73 73 74 72 72 71 71 71 71 71 71 71 72 73 74 72 68 60 63 65 69 68 66 64 68 70 64 66 67 68 69 70 71 72 71 68 67 65 65 65
71 70 71 71 72 72 73 71 71 73 69 71 71 71 71 71 72 68 70 73 73 69 70 73 73 73 73 74 74 73 73 71 70 71 71 70 66 65 65 65 64 64 64
70 71 70 69 70 70 71 67 48 49 49 50 53 64 72 60 56 54 52 54 54 54 71 73 73 72 72 72 71 71 69 66 68 66 65 64 63 64 64 64 64 64 65
68 69 68 72 74 72 71 68 68 57 46 44 44 51 52 59 53 50 48 48 49 55 72 72 72 71 70 67 66 66 65 65 67 64 64 64 64 64 62 63 64 64 62
67 59 68 68 69 72 71 70 70 69 68 66 50 49 44 44 44 44 46 54 66 65 70 70 67 65 64 64 64 64 64 64 64 64 64 64 64 63 63 63 62 62 61
66 65 68 70 70 69 71 70 69 69 69 62 59 53 47 44 45 47 51 69 69 65 63 64 64 64 64 64 64 65 65 64 63 63 63 64 63 64 63 63 61 57 58
64 62 62 68 68 69 68 67 67 67 66 65 64 62 60 60 63 62 62 63 63 63 64 64 64 65 65 66 65 66 65 64 64 64 64 64 65 65 63 62 62 62 62
61 64 61 65 67 67 65 64 64 65 65 64 64 61 52 63 62 60 59 59 61 61 63 63 63 61 60 61 62 65 64 64 63 64 65 65 65 64 65 64 63 62 62
59 62 63 64 66 65 64 62 62 61 60 58 57 54 48 58 57 55 54 54 54 56 56 57 55 53 53 53 53 54 56 58 59 60 62 64 64 63 63 62 62 62 61
59 61 62 63 64 60 62 61 60 59 57 56 55 55 54 53 53 52 51 51 51 50 51 50 50 49 49 49 49 49 49 50 51 51 55 61 64 62 61 60 59 60 59
60 62 62 62 61 61 61 60 58 53 54 53 52 51 51 51 50 50 49 49 49 49 48 48 48 48 48 48 48 47 47 44 43 47 52 55 60 60 61 60 58 57 58
59 60 60 59 58 57 55 54 53 52 51 50 49 49 48 48 48 47 47 47 47 47 47 47 47 47 47 46 45 45 39 34 41 39 47 52 56 61 61 61 59 57 57
56 55 54 54 53 52 51 50 49 48 47 47 47 47 47 47 47 47 47 46 45 43 41 38 37 38 37 35 36 34 32 32 40 35 48 52 52 54 57 59 60 59 58

GFSGL_sfc_dewp_054.txt.gz
Dewpoint
71 71 71 70 71 72 71 72 73 72 72 73 72 71 71 72 73 75 74 72 74 74 73 73 74 75 69 65 65 65 64 63 61 59 59 63 71 71 69 68 67 68 65
70 72 72 72 72 70 72 71 73 73 73 73 73 72 71 71 73 74 73 71 72 73 73 74 73 70 75 74 68 72 69 70 63 70 67 62 69 72 71 72 68 64 63
69 68 69 70 70 71 72 72 74 73 73 72 72 73 72 71 73 74 74 73 72 72 73 73 73 74 74 71 71 69 68 69 70 68 67 65 65 66 69 73 73 71 67
66 66 69 70 70 70 73 74 72 74 74 73 73 73 72 71 71 72 72 73 72 72 73 73 74 74 75 75 74 74 74 72 71 68 66 64 63 68 66 66 66 66 65
68 66 69 72 72 73 74 75 74 74 74 74 73 73 73 71 67 71 71 71 72 72 72 73 74 73 71 72 73 76 78 73 68 66 64 63 63 63 67 65 66 66 69
70 69 71 74 74 74 75 76 76 75 75 75 73 73 72 68 64 64 69 70 71 73 72 73 74 72 72 68 68 68 71 75 76 70 67 67 75 72 69 68 67 68 68
72 72 73 75 75 75 75 76 76 76 75 76 73 73 74 73 63 63 66 69 69 72 74 73 71 68 72 73 69 67 68 66 68 74 75 74 75 76 77 77 75 74 73
73 73 73 75 75 76 76 76 77 75 75 75 74 75 75 74 64 62 65 71 72 73 73 73 75 74 73 71 72 72 73 73 74 72 74 74 74 75 77 77 77 76 75
72 73 74 74 75 74 75 75 75 75 74 74 74 75 75 76 63 62 65 71 70 74 73 74 75 75 69 65 73 74 74 73 66 63 65 65 65 64 67 72 72 71 71
72 73 74 75 75 75 75 76 76 75 74 72 73 75 71 75 65 61 65 70 71 68 74 76 66 71 64 62 74 73 74 71 71 72 72 72 67 70 64 72 73 72 72
70 71 73 75 75 76 77 77 76 75 74 75 73 75 76 74 74 60 59 72 68 67 66 65 66 61 61 60 61 74 73 71 71 74 75 75 75 74 74 77 77 74 73
72 72 74 75 72 71 77 76 75 75 76 76 75 73 72 74 66 61 58 61 67 70 68 65 68 59 57 58 61 63 61 63 72 72 73 73 73 75 75 75 77 77 77
73 74 73 73 73 75 75 75 73 75 72 72 71 71 70 70 73 61 58 58 60 69 70 67 62 60 56 59 57 59 58 71 72 73 73 74 74 74 75 75 75 77 76
73 73 73 73 73 73 72 72 71 70 71 69 70 69 69 70 70 72 71 66 60 65 67 70 68 66 64 66 70 67 72 73 73 74 71 71 73 73 72 68 63 63 62
72 72 73 72 73 73 73 70 71 73 66 70 69 69 69 69 70 67 68 73 72 69 70 72 71 72 72 73 74 74 75 75 71 70 71 71 71 69 64 63 63 63 62
70 69 69 68 71 71 71 70 49 49 49 49 51 61 70 63 59 58 57 54 55 55 70 72 73 73 74 73 74 74 74 71 73 72 71 68 65 63 63 63 64 64 64
70 72 71 68 70 71 71 71 68 60 48 47 46 50 52 53 53 53 50 49 51 58 73 74 75 75 74 73 73 72 71 70 72 68 66 65 63 63 64 64 64 64 62
69 59 69 67 70 70 70 68 69 69 70 73 52 52 48 49 50 48 47 54 66 64 73 73 73 71 70 69 68 68 67 67 66 65 64 63 64 64 64 64 63 62 62
66 66 67 68 69 69 72 71 67 71 71 69 67 55 48 43 44 45 48 74 73 70 68 68 68 67 67 66 68 69 67 66 64 63 63 64 64 64 64 63 63 57 59
64 62 64 68 69 72 72 71 71 73 71 69 68 66 60 61 65 65 66 70 70 68 66 66 65 65 66 66 66 65 64 64 64 64 64 64 64 64 64 63 62 62 62
58 62 63 65 66 68 69 68 69 70 71 70 68 61 54 68 67 66 65 65 66 66 66 66 66 64 66 66 66 66 64 63 63 62 62 62 63 63 64 62 63 62 62
54 57 61 61 65 66 67 65 66 68 65 61 59 59 52 63 62 61 60 59 58 59 61 62 61 60 59 61 61 62 61 61 61 61 61 61 62 63 62 62 61 60 59
53 53 56 61 64 61 64 64 63 63 62 61 61 60 59 58 57 56 54 53 53 53 54 55 55 54 53 54 53 54 55 55 56 56 56 58 61 61 62 62 59 57 57
52 56 59 61 62 63 63 62 62 56 59 58 57 56 56 55 53 52 52 52 52 52 51 51 51 51 51 51 51 51 48 47 46 49 54 56 58 57 61 61 59 57 56
54 58 59 59 60 59 59 59 58 57 56 55 54 54 53 52 51 50 50 50 50 49 50 50 50 49 48 47 46 47 40 33 41 40 49 54 56 58 58 58 59 59 58
48 50 50 50 49 49 50 50 50 51 51 51 51 50 51 51 50 50 50 49 48 47 45 44 43 42 39 34 33 33 31 31 37 32 45 53 54 54 54 55 57 58 59

GFSGL_sfc_dewp_057.txt.gz
Dewpoint
72 73 73 73 73 73 74 75 75 75 75 75 74 73 73 73 74 77 77 74 74 75 75 73 75 77 69 65 64 63 62 62 60 60 59 66 74 74 71 72 69 71 67
71 73 73 73 72 71 73 74 76 76 75 76 75 75 73 72 75 76 73 72 73 73 74 75 72 70 77 77 70 76 69 71 64 71 68 66 72 73 74 75 69 67 68
70 70 71 72 72 72 74 74 75 76 77 73 75 76 75 73 75 75 76 75 73 73 73 74 74 75 77 72 74 69 66 69 70 68 68 67 68 67 70 74 74 73 69
65 67 70 72 72 72 74 75 75 76 77 76 76 76 75 74 73 73 74 75 75 73 74 74 74 75 76 77 75 77 75 73 70 68 67 67 67 71 68 66 67 67 68
67 67 69 72 73 74 74 75 75 76 76 77 77 76 76 73 69 73 74 74 75 74 74 75 74 74 71 73 72 76 77 73 69 68 67 65 64 64 68 67 68 69 72
69 68 70 73 74 74 74 75 76 76 77 77 76 76 76 70 65 65 71 72 74 75 75 75 76 72 72 68 67 68 72 76 77 71 68 67 73 72 70 69 70 70 70
71 71 72 74 74 75 75 76 76 77 77 77 77 76 76 76 64 63 65 70 73 74 75 75 73 67 72 75 70 67 68 66 68 75 74 74 74 76 77 77 74 74 74
72 73 73 74 75 75 76 76 77 77 77 77 77 77 77 76 64 61 64 72 72 73 75 75 76 75 75 74 75 74 75 75 76 73 74 75 77 77 78 76 76 76 76
72 73 74 74 75 76 76 76 77 77 77 76 77 78 78 77 63 61 64 71 71 74 74 74 75 76 71 65 74 75 75 75 67 62 65 66 65 64 67 71 71 73 72
72 73 75 75 76 76 77 77 77 77 76 74 75 77 74 78 65 61 64 70 71 69 75 76 66 71 65 62 75 75 75 75 75 73 73 71 67 70 63 71 74 73 73
72 73 76 76 77 77 78 78 78 77 75 77 76 77 78 76 77 60 59 73 68 68 67 66 68 62 61 59 61 75 74 74 72 73 71 73 75 76 77 77 78 78 75
73 74 76 77 74 74 78 78 78 78 77 78 77 76 73 78 68 61 58 61 68 70 68 62 66 57 57 58 61 62 59 63 70 71 72 72 73 74 74 76 78 78 79
75 75 76 77 76 76 77 78 75 77 73 73 72 71 70 70 73 61 58 58 61 70 70 64 61 57 55 58 57 59 59 70 71 71 72 72 73 75 75 75 78 79 79
76 76 76 76 75 76 74 74 72 71 71 70 70 69 68 67 66 69 70 65 61 65 67 70 67 65 62 67 70 66 71 73 73 73 74 75 75 73 73 73 71 65 63
75 74 74 73 73 75 73 72 71 73 67 70 68 66 65 66 66 64 66 72 71 69 70 72 70 70 71 72 73 75 76 76 75 74 74 73 73 73 73 69 65 64 63
73 72 70 70 72 71 71 70 51 55 53 54 53 63 72 59 58 53 55 58 60 57 69 70 71 71 71 71 72 74 75 74 76 74 73 73 72 70 67 65 64 63 63
74 73 70 68 70 71 71 70 70 64 50 50 50 53 54 54 55 55 52 50 51 58 72 71 71 72 72 73 75 75 74 74 75 74 72 71 68 67 64 64 64 63 63
73 62 73 71 70 71 72 71 70 69 67 70 53 56 46 49 50 51 50 56 71 69 72 71 74 74 75 76 75 74 73 73 72 70 69 67 66 64 63 64 63 63 63
69 69 71 73 72 68 72 70 65 65 67 68 67 58 52 45 45 46 49 72 72 72 73 74 74 75 74 71 71 70 71 69 69 71 66 65 64 63 64 64 63 59 59
68 63 66 69 67 68 65 66 63 65 65 64 63 66 63 62 69 71 71 73 75 75 72 73 72 71 71 70 70 71 68 67 67 65 64 64 64 64 64 63 63 63 63
62 67 63 69 71 67 68 68 69 69 69 69 68 63 58 68 70 70 66 66 65 70 72 71 70 69 68 68 70 70 67 68 66 65 64 65 64 63 64 64 63 62 61
53 55 60 65 64 67 69 69 71 71 68 67 64 62 54 66 66 63 62 62 63 65 65 66 64 63 62 62 63 64 63 64 64 63 63 62 62 62 62 62 62 61 61
50 51 53 60 65 62 63 65 68 67 66 66 64 63 63 62 63 62 60 61 62 61 60 60 59 57 58 58 58 58 57 57 56 56 57 57 58 59 62 62 61 59 57
54 56 58 61 62 62 62 63 64 57 59 62 62 62 62 61 59 59 57 57 57 57 57 57 57 56 56 55 54 52 48 47 48 51 54 55 56 56 57 58 59 59 59
53 57 56 55 56 59 59 57 57 56 57 55 55 56 56 55 55 55 55 56 55 55 55 54 53 51 48 44 43 43 34 32 42 38 50 54 56 58 57 56 57 58 60
44 45 45 45 45 45 46 47 46 46 48 48 50 52 53 51 51 51 52 52 51 49 48 47 45 42 37 31 32 32 30 30 34 30 39 52 54 54 54 54 53 53 55

GFSGL_sfc_dewp_060.txt.gz
Dewpoint
73 73 73 72 71 71 72 70 74 73 78 76 77 76 75 75 77 77 76 76 75 76 76 76 75 76 75 74 74 71 70 71 68 68 71 71 73 73 72 73 73 72 71
73 73 73 73 71 71 69 73 74 75 75 77 76 77 75 75 76 76 75 72 75 75 76 75 75 74 77 76 75 75 75 75 72 70 71 70 70 72 74 75 73 69 69
72 72 72 72 72 71 71 70 73 74 76 74 76 75 76 75 75 75 76 75 75 75 75 75 75 76 76 76 76 74 72 73 73 71 70 73 73 73 71 74 75 74 72
69 71 71 72 72 71 73 71 73 74 74 75 75 76 75 75 74 74 75 75 75 74 75 75 75 76 76 77 75 76 75 75 74 73 71 70 71 72 74 72 71 72 70
68 69 71 73 72 73 72 73 71 73 74 75 75 75 76 75 72 73 74 75 75 75 75 75 75 75 72 73 75 76 76 75 73 73 71 72 71 71 71 71 72 72 72
68 69 71 73 73 73 73 73 74 73 74 75 75 75 75 73 68 66 71 73 75 75 74 75 76 72 71 68 67 68 72 75 74 74 73 72 72 72 73 71 71 71 70
69 70 71 73 73 73 74 73 74 74 75 75 75 75 75 75 65 64 67 72 73 74 75 75 74 71 71 74 69 66 67 66 68 73 72 72 72 73 73 74 74 73 73
70 71 71 72 72 73 73 74 74 74 74 75 75 75 75 75 66 62 65 71 72 73 74 74 75 74 74 75 74 74 74 74 73 71 72 73 74 75 75 75 75 75 73
71 71 72 71 72 73 73 73 74 74 74 74 75 75 75 75 65 63 64 70 70 72 72 74 75 75 70 66 72 73 74 75 69 67 68 67 67 66 69 73 71 69 70
69 72 72 73 72 73 74 74 74 74 74 74 74 75 73 76 66 62 63 70 70 70 73 74 66 69 65 62 72 74 73 73 73 74 74 71 64 68 62 67 70 72 74
71 71 74 75 73 75 75 75 75 75 75 75 75 75 76 75 75 60 59 72 70 70 70 70 72 63 60 59 61 73 72 73 72 75 74 72 72 75 76 78 78 77 75
74 73 74 75 73 73 76 76 76 75 75 75 75 75 75 77 68 62 58 60 68 71 71 70 70 61 59 59 60 62 60 62 72 71 71 71 73 73 77 78 78 77 77
76 74 75 75 75 75 76 76 75 76 75 75 74 74 74 74 76 63 58 57 60 71 72 67 60 57 54 56 57 59 59 68 70 70 71 73 74 77 78 76 75 76 77
72 75 75 75 75 75 75 75 75 75 75 74 73 73 73 73 73 75 69 64 60 64 67 70 67 67 63 67 68 62 69 72 73 73 73 74 77 76 75 74 74 75 69
75 75 75 74 74 75 74 75 75 75 73 74 73 72 72 72 71 66 69 71 71 68 70 72 72 72 71 72 74 75 73 74 74 74 74 76 75 74 73 75 75 70 68
75 74 73 73 74 74 73 71 53 58 55 57 58 68 70 58 53 51 52 57 59 57 69 72 72 72 72 71 71 73 75 74 76 76 77 75 74 73 73 73 70 68 68
71 76 73 70 72 73 73 72 70 62 49 48 50 55 60 57 54 51 50 51 52 59 73 72 72 73 73 73 73 75 76 77 76 75 74 73 73 73 68 68 68 68 67
68 65 75 73 71 72 73 73 71 71 70 68 52 55 49 49 50 49 52 60 69 67 72 73 73 74 76 76 76 76 76 76 75 74 74 73 72 71 69 68 68 67 66
62 65 68 71 71 69 74 73 72 72 71 71 69 59 54 49 48 48 49 74 73 73 73 73 75 78 77 77 76 76 75 73 73 73 72 71 69 67 68 67 66 59 61
61 60 63 69 71 68 71 69 70 72 73 71 70 69 66 62 68 69 71 73 73 75 77 76 76 75 75 74 74 73 72 68 68 68 67 67 66 67 66 66 66 65 65
59 61 62 67 69 69 69 70 69 68 68 68 68 65 58 68 71 72 70 67 69 74 73 71 70 69 69 70 71 70 69 69 69 66 66 65 67 65 66 66 65 65 65
57 60 64 69 69 70 70 71 72 70 68 67 66 64 52 69 65 64 63 64 65 66 68 69 67 66 66 66 66 65 64 65 66 65 65 65 65 65 64 64 63 63 62
55 56 64 62 66 64 66 64 62 62 63 64 65 67 68 66 64 62 62 62 62 62 61 61 62 60 61 62 60 53 52 50 52 56 58 61 62 62 63 63 62 61 61
54 57 57 57 57 60 62 63 59 55 57 57 58 60 60 59 58 59 59 58 59 58 58 58 53 46 46 45 47 47 38 38 46 52 52 55 56 57 59 61 61 60 60
45 46 47 48 47 50 50 51 57 58 57 57 57 57 57 54 56 57 59 58 56 55 53 48 41 38 36 34 34 34 32 31 37 34 46 53 56 58 58 57 58 56 59
41 41 41 41 41 42 42 42 42 43 43 43 48 52 54 55 54 54 54 52 50 44 40 38 36 32 30 31 32 32 30 30 32 31 33 46 54 55 52 53 54 54 55

GFSGL_sfc_dewp_063.txt.gz
Dewpoint
68 70 68 66 70 70 69 67 71 69 72 73 74 74 74 73 74 74 71 73 72 71 71 72 71 71 69 71 73 71 66 66 63 63 67 67 67 67 68 69 69 69 68
69 69 70 68 66 69 69 70 67 70 71 73 73 73 73 73 74 73 72 71 72 72 72 72 72 72 71 71 72 71 71 71 68 64 67 66 66 67 68 68 69 71 70
70 69 70 70 67 66 66 69 68 72 69 73 73 73 73 73 73 73 73 73 72 72 72 73 71 72 72 73 72 71 70 70 71 69 68 70 71 71 69 69 70 72 72
70 70 70 70 70 67 66 65 70 69 74 71 74 73 74 72 72 73 73 73 73 72 74 73 73 73 72 72 73 72 72 72 71 71 70 70 69 70 71 70 69 69 70
70 70 70 70 70 70 68 68 65 71 69 73 72 74 73 73 72 72 73 73 73 73 72 73 73 73 72 72 74 74 73 73 72 71 71 71 70 69 69 71 70 69 69
67 69 70 70 70 70 70 70 68 66 71 69 71 72 74 73 69 68 70 73 73 73 73 73 73 72 71 68 68 69 73 73 72 72 71 70 70 70 71 70 69 69 69
65 68 69 70 70 70 71 70 71 67 69 72 71 71 72 73 67 66 68 70 71 73 73 72 72 72 71 73 68 66 66 66 67 70 70 69 70 70 71 70 71 71 71
66 66 69 70 70 71 70 70 70 70 68 68 71 72 73 73 66 64 66 69 70 70 73 73 72 72 71 71 71 72 71 69 69 68 69 70 71 72 72 72 72 72 73
67 67 68 69 70 71 70 70 70 71 71 70 71 72 73 73 65 64 63 67 69 70 71 71 73 73 69 66 70 72 73 74 70 65 66 65 65 65 67 71 71 71 70
67 68 69 69 70 70 71 70 71 70 70 72 71 72 71 73 65 63 63 69 67 68 69 71 66 71 66 64 69 70 69 69 70 71 71 68 65 67 64 68 71 69 69
70 70 69 70 69 70 70 71 70 71 71 71 72 72 73 72 72 61 60 71 69 68 68 68 69 63 59 58 60 70 71 71 71 72 73 73 72 71 71 73 69 71 72
69 71 71 71 69 71 71 71 71 71 71 71 71 72 72 73 66 63 59 60 68 70 68 68 68 62 59 58 59 61 60 61 70 71 70 70 70 70 71 74 75 75 75
70 72 71 72 71 70 72 71 71 71 71 71 71 71 72 72 73 63 59 58 60 69 70 67 64 60 58 58 58 59 59 64 67 68 68 69 71 72 74 74 74 74 75
68 71 72 71 71 70 73 72 72 71 72 71 71 71 72 72 73 74 68 64 60 63 66 67 64 65 64 66 66 59 62 66 67 67 68 70 73 74 73 73 72 74 69
65 71 72 71 71 72 71 73 73 73 71 72 72 72 71 72 72 69 70 71 70 67 68 70 69 69 70 70 71 70 65 69 69 71 72 73 73 73 72 72 73 72 65
62 69 72 71 72 72 72 69 52 56 58 59 61 69 71 61 63 59 57 58 59 57 68 70 70 71 71 71 69 71 72 70 71 72 73 73 72 72 72 71 71 64 64
60 63 66 71 72 72 72 71 70 62 49 47 49 58 57 60 51 53 50 54 51 57 70 71 71 71 71 71 70 69 69 74 74 74 74 74 73 73 72 69 65 65 63
58 57 62 68 73 73 73 73 72 69 69 66 53 53 49 48 48 48 48 53 60 63 70 71 71 71 71 71 71 73 74 74 73 73 72 72 71 71 69 67 66 64 63
58 59 60 64 70 69 73 73 72 70 70 68 61 57 49 48 49 49 48 71 68 69 71 72 72 72 72 74 73 74 74 73 73 73 72 71 71 69 65 65 64 59 60
56 57 58 62 68 68 70 70 71 71 71 68 67 65 63 60 65 66 67 69 70 71 71 71 71 73 73 73 72 71 69 69 69 68 66 66 65 65 64 64 64 63 62
55 57 58 66 66 68 67 67 68 68 69 67 67 65 58 65 67 68 66 66 66 69 69 69 69 68 69 68 68 68 69 67 67 66 65 64 64 64 64 64 63 62 62
55 58 61 64 68 67 66 68 67 68 67 66 65 62 55 65 63 63 63 62 62 63 67 67 65 66 65 62 62 61 58 57 59 62 64 64 64 64 64 63 62 61 61
53 55 56 58 63 60 60 61 62 62 62 64 66 66 64 63 62 61 60 59 59 57 53 53 51 49 52 50 44 45 47 46 48 52 55 57 59 61 64 62 62 61 61
45 47 48 48 52 53 59 58 57 55 58 59 60 60 59 59 59 59 59 59 57 52 49 43 39 39 38 39 39 35 31 33 42 41 46 52 54 54 57 58 61 62 61
41 42 42 43 42 43 46 45 47 48 48 51 54 55 56 58 58 57 55 53 46 44 39 39 37 34 34 35 34 33 32 33 33 33 39 44 50 53 54 53 53 54 54
40 40 39 39 39 40 39 39 39 39 41 42 42 43 44 46 49 52 48 43 41 41 41 39 36 36 34 32 32 34 30 31 34 33 33 40 46 38 38 41 44 47 52

GFSGL_sfc_dewp_066.txt.gz
Dewpoint
68 67 65 65 67 71 68 67 69 69 70 70 72 72 72 72 71 72 70 70 71 70 69 69 70 70 69 69 71 71 69 65 62 62 65 67 67 66 66 66 69 68 68
68 68 67 65 66 68 70 67 67 69 70 72 72 72 72 72 72 72 71 71 71 71 70 70 71 72 71 70 70 70 69 69 66 65 65 66 66 68 69 69 70 71 71
67 67 68 66 65 65 68 69 67 67 69 73 72 72 72 72 72 73 72 71 71 71 71 71 71 71 71 71 71 71 70 70 69 68 69 69 70 70 69 69 69 70 71
67 67 68 69 66 64 65 67 69 67 67 71 72 72 72 72 72 72 72 72 71 71 72 72 72 71 71 71 71 71 71 71 70 69 69 69 69 70 70 70 69 69 70
67 68 67 69 69 67 64 65 66 69 68 68 71 72 72 71 71 71 72 72 72 72 72 72 73 72 71 70 71 71 71 71 71 70 69 69 70 70 69 70 69 69 69
68 68 69 68 69 70 69 65 66 65 67 69 71 71 71 72 67 67 70 72 72 71 71 72 72 71 71 68 68 69 71 72 71 71 71 71 70 69 69 69 68 67 67
68 69 69 70 70 70 70 69 67 66 64 67 68 71 72 72 65 65 68 71 72 72 71 71 72 72 71 72 68 66 66 67 69 72 71 70 69 69 69 69 69 68 69
68 69 70 71 71 70 70 70 69 68 66 64 68 68 70 72 66 64 66 70 70 71 72 72 72 72 71 71 71 71 71 70 68 67 68 69 69 70 71 70 70 70 72
65 67 68 70 70 70 70 70 70 70 69 66 67 71 69 69 63 63 65 70 70 70 70 71 72 72 68 64 71 71 71 71 69 64 64 64 63 63 65 69 70 69 69
67 68 68 68 69 70 70 70 70 70 70 70 67 67 69 71 64 62 64 71 70 70 69 70 65 70 64 62 70 71 70 70 70 69 70 66 64 67 64 68 71 70 69
68 69 70 69 68 69 70 70 70 70 69 70 69 69 69 69 70 61 60 71 71 69 69 68 70 62 60 59 61 70 69 69 68 69 70 71 72 72 72 70 69 70 68
64 66 68 71 69 69 69 70 70 70 70 69 70 71 70 71 65 62 59 61 68 71 70 69 68 60 58 58 59 62 60 62 69 70 70 71 71 70 70 71 72 71 72
62 64 66 70 72 71 69 69 70 69 69 70 69 69 70 71 72 62 59 59 61 70 71 68 62 58 57 58 58 59 58 63 65 67 68 68 69 70 70 72 74 74 74
60 62 64 67 71 71 70 69 69 70 69 69 70 70 70 71 72 72 69 65 61 64 67 69 66 63 62 63 63 62 63 65 66 67 67 68 69 70 71 72 72 72 72
58 60 62 68 72 71 70 70 69 70 69 69 69 70 70 70 71 67 69 72 71 68 68 70 67 66 67 67 67 68 63 63 65 66 67 68 69 71 72 72 72 72 70
57 59 61 63 66 72 71 69 53 55 57 57 58 66 70 64 60 58 56 56 57 57 64 71 70 70 69 69 69 69 69 66 67 67 69 70 71 72 72 72 72 69 64
56 57 59 59 64 71 71 71 70 61 49 51 52 56 57 64 53 53 54 52 52 55 71 70 71 71 70 71 71 70 70 71 70 70 71 71 72 72 70 71 68 65 63
55 53 57 59 60 66 73 72 71 71 70 69 51 56 52 50 53 52 48 53 60 58 70 72 71 71 71 71 71 71 71 70 72 72 72 73 73 72 69 69 67 64 62
52 53 56 57 58 61 67 71 72 71 71 72 62 55 50 45 45 45 46 68 67 66 68 71 71 69 69 69 70 71 71 71 72 73 73 72 72 70 69 67 65 59 60
52 53 54 56 58 61 65 69 71 71 69 68 67 69 61 60 65 65 66 68 67 67 67 68 69 70 65 66 67 66 66 68 70 71 70 69 68 67 65 64 63 62 62
52 53 55 59 61 64 66 68 71 71 71 69 67 64 56 69 68 67 65 64 65 67 68 68 67 65 64 66 66 65 64 65 65 67 67 65 65 64 64 64 63 63 63
50 50 52 52 58 61 61 66 68 70 68 66 64 62 53 65 65 63 62 61 59 59 62 61 58 56 53 55 62 65 64 63 61 63 65 65 64 63 64 63 62 62 61
46 47 48 47 49 53 59 59 59 66 65 65 64 64 63 63 61 60 58 54 51 47 47 49 49 46 47 45 45 50 53 53 53 57 60 60 61 62 63 62 62 61 60
43 44 45 45 44 46 47 47 51 53 60 61 61 61 60 60 59 57 53 50 45 43 42 41 41 40 41 41 42 41 44 44 47 50 55 54 55 55 57 58 58 60 60
43 41 41 42 42 42 43 42 43 46 47 48 49 52 58 56 52 49 47 46 44 42 41 39 39 40 40 40 40 39 35 36 37 42 52 52 51 51 51 49 50 51 53
40 40 40 40 40 40 40 40 40 40 41 42 44 44 45 46 44 44 43 41 40 39 39 39 37 36 37 37 35 35 32 33 34 34 38 37 36 36 37 38 43 47 49

GFSGL_sfc_dewp_069.txt.gz
Dewpoint
65 65 65 66 68 69 68 68 69 70 70 70 72 72 71 71 72 71 70 70 70 70 69 69 69 69 69 68 69 69 67 64 62 64 63 67 66 66 68 69 70 69 69
66 65 65 65 66 69 69 68 67 68 69 70 70 72 71 71 71 71 71 70 70 70 70 69 69 70 70 69 69 68 68 68 66 65 65 67 67 69 70 70 70 70 70
66 66 65 64 64 65 68 69 67 67 68 70 71 71 71 71 71 71 71 71 70 70 71 70 69 70 70 70 69 69 70 70 68 67 68 68 69 69 70 70 70 70 70
66 66 66 65 64 64 65 67 69 67 67 68 72 72 72 71 71 71 72 71 71 70 70 71 71 70 70 70 70 70 70 70 69 68 68 68 68 70 70 69 70 69 69
66 66 66 67 66 64 64 64 67 69 67 67 69 72 72 72 72 71 71 71 71 71 71 71 71 71 70 69 70 70 70 69 69 69 68 68 68 69 69 69 68 69 69
66 66 67 67 68 66 65 64 64 66 67 67 67 68 71 71 67 67 70 71 71 71 71 71 71 71 70 68 67 67 70 70 69 69 69 69 69 69 68 68 67 66 67
66 67 67 68 68 69 68 65 64 64 64 64 67 68 68 70 66 65 67 70 70 70 70 70 70 71 70 71 68 66 66 66 68 71 70 70 70 70 68 67 67 67 67
68 67 67 68 68 69 69 68 66 64 64 64 63 64 68 68 64 64 66 70 70 70 70 70 70 70 71 71 71 71 71 70 69 68 70 71 71 71 69 69 69 69 70
65 67 68 69 70 69 69 69 69 68 66 66 64 64 65 66 63 63 64 69 70 70 70 71 71 71 68 64 71 70 70 71 68 64 64 64 63 62 64 69 68 68 68
66 68 69 68 71 70 70 70 70 70 69 68 67 66 64 66 61 62 64 70 70 70 70 70 65 68 64 62 69 70 70 70 70 70 69 66 64 66 62 67 69 69 68
64 64 66 68 69 70 70 70 70 70 70 69 69 68 67 67 68 59 60 70 69 69 69 69 70 62 60 59 60 70 69 69 68 69 69 69 70 70 70 69 69 70 68
62 63 64 66 69 70 69 69 70 70 70 69 69 69 69 68 62 61 59 61 66 69 69 69 69 60 57 57 59 61 61 61 69 69 68 70 70 70 71 71 71 70 71
60 61 62 63 65 69 71 69 69 70 69 70 69 69 69 70 69 60 58 58 61 68 70 67 62 58 56 57 57 59 59 65 68 66 68 67 67 69 70 70 70 71 74
57 59 61 61 62 65 71 72 71 71 71 71 70 70 70 70 70 70 67 63 60 63 66 69 66 64 61 63 62 61 63 65 66 66 66 67 68 68 68 69 70 71 73
53 57 59 60 61 62 65 72 71 71 70 70 69 71 70 69 68 67 68 70 70 67 67 70 71 69 70 68 67 67 66 65 65 66 67 67 66 67 68 70 71 72 72
52 54 56 58 59 60 63 66 57 56 55 56 56 64 70 63 58 56 54 54 55 54 66 70 70 70 70 70 70 69 68 65 65 65 66 66 66 67 68 70 71 72 71
51 53 54 54 57 60 61 62 68 64 52 51 49 53 54 61 53 52 52 52 50 54 71 70 70 70 70 70 70 70 69 69 69 68 68 68 69 69 69 70 71 69 67
52 50 52 54 55 56 58 60 64 69 70 70 56 53 52 52 49 50 49 52 59 57 71 71 71 71 71 71 71 71 71 71 70 70 70 70 70 70 70 71 70 67 64
49 49 52 53 55 55 57 58 59 65 71 71 68 56 50 46 46 46 46 70 70 67 67 71 71 72 72 71 70 71 71 71 70 71 71 71 70 69 70 70 69 60 61
48 51 52 53 55 57 58 59 61 64 69 71 71 70 61 57 64 65 61 65 69 70 68 68 70 71 71 71 70 69 68 67 64 62 62 63 63 63 62 64 67 65 63
48 50 52 52 53 53 55 61 63 64 67 71 71 68 56 67 69 70 67 68 68 68 67 68 69 68 66 66 66 64 64 63 64 64 64 64 64 63 63 63 62 64 64
46 48 49 50 50 50 50 56 61 64 66 68 66 59 50 66 65 63 61 59 57 57 58 60 55 52 52 54 56 62 64 64 64 64 63 64 64 64 65 65 65 64 63
45 46 46 47 47 47 47 49 50 52 64 68 66 64 64 62 59 56 54 52 51 50 50 50 48 45 44 45 45 49 56 54 54 58 63 64 65 64 64 64 64 62 61
43 43 43 43 43 44 44 44 45 46 49 54 61 61 59 54 50 49 48 47 47 45 45 45 44 44 43 43 42 42 44 44 47 53 57 59 60 59 62 61 62 62 61
41 41 41 41 41 41 42 42 42 44 44 46 50 50 50 49 47 45 44 44 43 42 41 42 41 41 39 38 38 38 35 34 45 48 55 55 56 55 56 53 52 53 53
40 40 39 40 40 40 40 39 40 40 41 42 43 44 43 41 41 41 41 40 40 40 39 39 39 38 38 37 36 34 33 34 38 34 41 43 44 45 43 46 48 49 50

GFSGL_sfc_dewp_072.txt.gz
Dewpoint
66 67 67 68 68 68 68 69 70 71 71 72 73 73 72 72 73 72 72 72 72 72 72 72 71 71 70 70 70 71 69 66 66 68 66 70 71 72 73 73 73 74 73
66 67 67 67 69 69 68 69 70 70 71 71 72 73 73 73 72 73 72 72 71 71 71 72 71 70 71 72 71 71 71 70 69 69 70 70 71 73 73 74 73 72 73
67 66 66 66 67 68 69 69 69 69 70 71 71 72 73 73 73 73 72 72 72 71 71 71 71 71 71 72 72 71 71 71 71 70 70 72 71 72 73 74 74 75 71
66 66 66 66 66 66 68 69 69 69 69 69 70 71 72 73 73 73 72 72 72 72 72 72 72 72 72 72 71 72 72 72 72 71 71 71 71 73 72 71 72 73 71
66 66 66 67 67 67 67 68 69 69 69 69 69 71 72 73 72 73 73 72 72 72 72 72 72 72 70 71 72 73 73 72 71 71 71 71 72 72 72 73 71 71 72
66 66 68 68 68 67 67 67 68 69 69 69 69 70 71 71 68 67 71 72 73 72 72 72 73 71 70 67 67 67 71 73 73 72 72 71 72 72 73 72 71 71 69
67 67 68 68 68 68 68 67 67 67 68 68 68 69 69 71 65 66 68 72 72 72 73 73 72 71 71 73 68 66 66 66 68 73 72 73 73 74 73 73 72 70 70
67 68 68 68 68 69 69 68 67 66 66 67 68 68 68 68 64 64 66 71 72 72 72 72 72 72 72 72 72 72 72 73 71 69 71 73 74 74 74 73 73 72 72
66 67 69 69 68 69 69 70 69 68 67 66 67 67 68 68 61 62 64 70 70 71 72 72 72 72 68 64 72 72 72 73 68 64 65 65 64 63 66 71 70 70 70
63 64 65 67 70 70 70 70 71 71 69 68 67 68 65 67 61 60 63 69 68 68 71 72 65 70 64 61 71 72 71 72 72 73 72 68 65 68 62 69 71 70 71
62 64 64 66 67 70 71 71 71 71 71 71 69 69 69 67 67 58 59 69 68 68 68 68 71 62 60 58 61 72 71 71 70 71 72 72 72 71 71 70 71 71 72
60 61 64 65 65 67 68 70 71 72 71 71 71 70 70 70 62 59 57 60 66 69 68 69 69 59 58 57 59 61 60 61 70 72 72 70 71 71 72 73 74 73 73
57 59 60 63 64 65 66 67 70 71 71 71 70 70 70 71 70 59 57 57 60 68 69 67 62 57 56 58 57 59 58 65 68 69 69 70 70 71 73 73 73 74 74
55 56 59 60 62 63 64 66 67 71 71 71 71 70 70 71 71 71 65 62 59 62 65 68 66 64 62 65 65 62 64 67 68 68 69 70 71 71 70 71 71 73 71
52 54 57 59 59 59 61 62 64 67 69 71 71 71 71 70 70 67 67 70 68 65 67 70 70 70 70 70 69 69 68 67 67 68 68 69 69 70 70 71 71 72 71
49 51 54 56 56 57 59 60 56 55 53 52 54 65 71 63 58 54 53 52 53 54 66 69 69 70 70 70 69 70 70 68 69 69 69 69 69 69 69 71 71 72 72
48 50 52 52 53 56 58 58 59 59 54 51 49 51 51 59 53 50 50 52 51 54 71 70 70 70 70 70 70 70 71 71 71 69 69 69 69 69 68 70 71 71 72
48 48 50 51 53 54 55 56 57 58 60 62 58 53 50 50 50 49 49 51 61 56 71 71 71 71 71 71 71 71 71 72 71 70 69 69 69 69 70 70 71 71 71
44 46 48 50 52 53 55 55 57 59 59 62 66 60 54 46 45 46 47 69 70 69 68 71 73 73 73 72 72 73 73 73 73 72 72 72 72 71 70 71 71 64 65
44 46 47 48 51 52 54 55 57 60 61 62 65 68 65 57 62 60 59 65 71 72 71 70 71 72 72 72 72 72 73 72 72 72 73 72 71 70 70 70 69 68 66
45 45 47 47 49 51 51 53 56 59 62 63 65 67 57 67 69 70 68 66 68 70 72 72 71 71 72 72 72 72 72 72 72 71 68 67 67 65 65 65 64 63 64
46 46 46 47 49 49 50 51 52 54 56 59 63 65 50 65 70 70 71 66 62 60 58 66 64 61 60 63 66 69 68 67 66 66 66 66 66 66 66 66 66 65 64
44 44 45 46 47 47 47 48 48 49 49 51 57 63 62 65 63 57 53 51 50 49 48 49 49 47 48 48 51 50 57 60 61 63 66 66 66 66 67 67 66 66 65
42 43 43 43 44 44 44 44 44 44 45 47 54 55 53 51 49 47 46 45 45 45 45 44 44 44 45 46 48 45 44 47 52 56 61 65 64 62 67 66 65 63 63
41 41 41 41 41 41 42 42 42 41 41 44 45 45 45 44 43 43 43 43 42 41 41 42 42 41 42 41 41 42 38 38 41 41 55 59 61 62 62 62 60 59 57
40 40 40 40 40 40 40 39 39 41 40 41 41 41 41 40 40 40 40 40 40 40 41 41 41 41 41 39 38 36 35 37 40 38 46 46 48 50 53 53 54 55 55

GFSGL_sfc_dewp_075.txt.gz
Dewpoint
68 70 70 69 69 71 71 72 73 73 74 74 74 74 74 74 75 75 75 74 74 74 74 74 74 75 70 69 69 69 69 69 65 64 69 71 74 75 74 75 72 72 70
68 69 69 70 70 69 70 70 72 73 74 74 74 75 74 74 75 75 74 72 73 72 73 74 73 71 74 74 71 73 71 72 69 70 71 70 73 75 75 76 72 69 73
68 67 67 68 69 69 70 70 71 72 73 72 73 74 74 74 74 75 75 74 74 73 72 73 73 73 74 71 73 72 71 72 72 71 70 70 71 72 73 73 74 75 70
65 66 68 67 68 69 71 71 71 72 72 72 73 73 73 74 74 74 74 74 74 73 74 73 73 73 74 74 73 74 73 73 72 71 69 69 70 72 72 69 68 69 71
66 66 67 69 69 68 70 72 71 71 71 72 72 72 73 71 70 73 74 74 74 74 74 74 73 72 70 71 71 73 74 72 70 69 69 68 68 67 69 69 68 69 71
68 67 69 70 71 71 72 72 72 71 71 71 71 71 71 68 65 66 71 73 74 74 73 74 74 71 71 68 67 68 71 74 73 69 67 67 72 71 69 69 69 69 67
69 68 69 70 70 71 71 71 71 72 71 72 71 71 72 72 64 64 68 70 72 73 74 74 72 70 72 73 68 66 66 66 68 74 73 72 73 73 74 74 73 71 70
69 69 69 70 69 71 71 71 72 70 71 71 71 72 72 71 64 63 66 72 73 73 73 74 74 74 73 73 73 73 73 73 73 71 72 73 74 75 75 75 75 75 73
64 66 68 70 70 70 70 71 71 71 70 70 70 71 72 72 62 62 65 70 69 73 74 74 74 74 69 65 73 72 73 73 67 65 66 65 65 64 68 72 70 69 66
60 62 65 67 69 71 71 72 72 72 71 69 69 70 67 71 64 59 63 67 69 68 72 74 66 71 65 62 72 72 72 72 71 70 71 70 66 70 62 72 71 69 67
59 59 61 65 66 67 72 74 72 73 73 72 71 72 72 70 70 59 58 69 67 68 68 67 68 62 61 58 62 73 72 71 69 71 70 68 70 72 72 72 73 71 68
57 57 59 62 64 66 67 68 70 72 72 72 72 72 71 73 65 61 57 58 65 69 69 68 69 59 58 57 59 63 61 63 70 68 67 67 67 68 69 71 75 75 73
56 56 56 58 61 65 65 68 68 69 69 71 70 71 70 71 72 60 57 56 58 67 69 67 62 56 56 59 58 59 59 69 69 68 68 68 68 68 73 73 75 76 76
55 54 55 55 57 60 61 63 67 67 66 67 70 70 70 70 71 72 69 66 59 61 64 68 66 64 63 65 66 63 68 69 69 69 69 69 69 69 70 71 70 70 70
53 52 52 53 55 56 58 57 60 64 65 68 71 71 71 71 71 67 67 72 74 67 67 69 69 69 70 70 70 70 71 70 69 70 70 70 69 69 70 71 71 70 70
51 50 49 49 51 53 52 54 54 53 52 51 49 54 66 63 57 54 53 52 53 55 66 69 69 70 70 70 70 70 71 69 71 70 70 70 69 69 69 70 71 71 70
50 50 49 48 49 50 51 53 55 55 51 50 48 49 47 53 53 49 51 50 50 55 69 70 70 69 70 70 71 71 70 71 73 71 70 70 70 69 69 70 70 71 70
49 47 47 47 48 49 50 51 53 54 56 58 55 55 53 47 46 47 50 50 61 56 70 70 71 71 71 71 71 71 71 71 71 71 71 70 70 70 70 70 70 71 70
46 45 46 47 47 48 50 52 53 54 56 58 59 58 59 47 44 44 48 65 69 71 68 70 71 71 72 72 73 73 73 72 71 72 72 71 71 71 71 71 72 64 67
45 46 46 46 46 46 49 50 53 55 57 58 59 60 65 61 66 64 57 62 70 71 71 71 73 73 74 74 74 74 74 74 73 72 72 72 72 72 73 73 73 72 71
43 44 45 47 45 46 49 50 51 53 54 56 59 60 54 65 67 69 70 66 67 73 73 73 73 73 74 74 75 74 73 73 73 73 73 73 73 73 73 73 71 70 70
43 45 46 46 45 47 48 49 50 50 51 53 54 56 51 61 65 66 70 71 70 71 71 72 73 70 69 70 71 73 73 73 73 73 73 72 71 70 68 67 66 66 66
45 45 44 45 46 47 48 48 48 49 49 50 51 52 55 60 64 65 62 55 53 51 51 53 54 52 51 52 52 54 58 59 59 62 68 68 67 67 66 65 65 65 65
41 42 43 44 44 45 44 45 45 44 45 46 48 51 50 50 50 48 47 47 47 46 46 45 46 46 47 47 47 45 46 50 56 59 59 62 65 64 66 67 67 66 65
41 41 41 42 41 42 42 42 42 43 43 43 44 44 44 44 43 43 43 43 43 43 43 43 43 43 43 43 43 43 38 40 49 49 56 56 55 57 63 66 66 66 66
39 40 40 40 40 40 40 40 40 41 41 41 41 41 41 41 41 41 41 40 40 40 40 41 41 41 40 40 39 37 35 38 44 42 52 51 49 49 51 51 53 56 57

GFSGL_sfc_dewp_078.txt.gz
Dewpoint
70 70 70 70 71 72 71 71 72 71 72 73 74 74 74 73 73 75 74 72 73 72 72 72 73 73 68 65 66 65 65 65 63 61 63 66 73 73 73 74 71 70 64
69 71 70 72 71 69 71 71 72 72 72 73 74 75 72 72 73 75 73 70 72 71 72 73 72 69 73 73 68 72 70 70 66 70 70 66 71 73 73 75 69 66 69
68 67 69 69 69 70 70 71 72 72 72 71 73 75 74 72 73 74 74 73 72 72 71 72 72 72 73 69 71 68 67 68 68 66 66 65 67 69 71 73 72 72 64
64 66 68 69 69 70 70 71 71 72 72 71 72 73 73 73 73 74 74 74 73 72 73 73 73 71 72 73 72 73 72 71 70 67 66 65 65 70 69 65 63 63 64
67 66 67 69 70 70 70 71 71 72 72 72 71 71 72 71 69 74 74 73 74 74 73 74 73 72 69 70 69 74 75 71 67 65 64 64 64 64 68 64 63 63 67
70 69 69 70 70 71 71 70 72 72 73 73 72 71 70 66 64 65 70 72 73 74 73 73 74 72 71 68 68 68 70 73 73 66 62 63 72 70 65 64 64 63 63
69 70 70 71 71 71 72 72 72 72 72 73 72 72 72 72 63 63 66 69 70 72 73 73 70 67 72 73 69 67 67 66 67 74 73 72 73 72 74 73 74 70 68
62 63 65 70 70 72 73 73 73 72 72 72 72 73 73 72 63 62 64 70 71 72 73 73 74 74 71 71 72 72 73 73 73 71 72 73 74 74 75 74 75 75 72
60 61 62 64 67 70 71 72 73 73 72 72 72 73 73 74 62 62 65 69 68 72 72 74 74 75 69 64 72 73 73 72 65 65 66 65 64 63 67 70 67 65 62
59 61 62 63 64 65 70 72 74 73 72 71 71 72 69 73 65 60 64 68 68 67 72 74 66 71 64 62 74 74 73 72 68 68 71 70 67 71 64 73 70 67 63
58 59 59 61 64 65 66 69 73 75 76 74 72 73 74 71 72 59 58 70 67 66 66 66 67 61 61 59 61 75 72 71 68 68 66 65 66 66 69 73 74 70 65
57 58 59 59 57 62 66 67 67 70 71 74 75 76 72 75 66 62 57 59 66 69 68 66 68 59 57 58 60 63 60 62 66 60 59 59 60 60 60 65 76 76 73
57 57 57 58 58 59 61 64 67 68 68 70 73 73 75 72 72 61 58 57 58 66 69 66 60 56 54 57 57 59 59 68 67 65 62 62 61 61 69 71 76 79 78
55 56 55 55 55 57 55 56 58 61 63 64 64 72 73 75 75 70 72 68 59 62 64 66 66 64 62 65 66 64 67 69 67 66 65 63 64 63 63 65 65 66 67
53 53 53 50 52 53 54 54 54 55 56 60 63 66 67 71 74 61 62 75 75 69 68 69 69 69 69 70 70 70 70 69 69 68 67 66 66 66 66 66 65 65 65
53 49 48 48 48 49 50 51 49 48 48 48 48 53 61 56 55 54 51 53 54 56 70 69 69 69 69 69 70 70 70 68 69 69 68 67 66 66 66 66 66 65 66
49 51 48 48 48 48 49 49 49 49 48 47 46 46 46 50 48 50 47 48 52 54 70 71 70 69 70 71 71 71 70 70 75 71 70 69 68 67 66 66 65 66 67
47 47 48 48 47 47 48 48 49 49 49 50 50 50 50 46 46 46 46 51 61 57 70 70 70 70 71 71 71 70 71 71 72 73 72 71 70 68 66 66 66 68 67
45 45 46 46 47 47 48 48 48 48 50 50 52 51 53 50 46 46 43 62 67 69 69 70 70 70 72 73 73 72 73 73 73 73 71 72 72 69 68 68 67 62 64
45 46 47 46 46 46 46 47 48 49 50 51 51 52 53 56 61 63 62 63 64 69 70 70 70 71 72 74 74 74 76 74 73 73 73 73 73 73 72 70 70 69 73
42 43 44 45 44 45 46 46 47 48 49 50 51 52 47 54 56 60 61 66 67 69 70 71 73 73 73 74 77 77 75 75 74 74 74 74 74 73 73 72 73 73 73
43 42 42 43 44 45 45 46 46 48 48 49 50 51 46 53 54 57 59 62 65 69 71 72 72 71 70 72 75 76 74 74 74 74 73 74 74 73 73 73 73 72 72
42 41 42 43 44 45 46 45 45 46 48 48 49 50 51 52 53 56 59 63 62 55 53 54 57 58 55 55 55 56 61 67 67 67 72 73 73 73 72 70 70 69 68
39 40 41 41 42 43 43 45 45 46 47 48 48 49 50 52 51 50 49 49 49 48 48 48 47 48 48 49 49 51 52 51 56 59 61 64 66 65 68 67 67 66 66
39 39 39 40 41 41 42 43 43 44 45 46 46 46 47 46 46 45 45 45 44 44 44 44 44 44 44 44 43 44 41 41 51 50 59 59 59 59 59 60 60 65 67
39 38 37 38 39 40 40 40 41 42 42 43 43 43 43 43 42 42 42 42 42 41 41 42 43 42 41 40 39 36 33 36 46 43 55 55 54 54 54 54 53 53 54

GFSGL_sfc_dewp_081.txt.gz
Dewpoint
70 72 72 72 72 73 72 72 72 72 72 72 73 74 73 73 73 76 75 74 73 72 73 72 73 76 68 63 62 62 62 63 62 62 64 68 75 75 74 75 72 73 67
69 72 71 73 73 70 72 72 73 74 72 73 74 73 73 72 74 74 72 70 71 72 71 73 71 68 76 75 68 75 70 73 66 73 70 66 73 76 77 78 71 67 68
68 68 70 70 71 71 72 72 74 73 74 70 73 75 73 72 74 74 74 73 72 72 72 72 71 72 75 70 73 68 66 68 70 68 67 65 66 66 70 75 76 74 66
68 66 69 70 70 70 72 74 72 75 74 73 73 74 74 72 71 72 73 75 74 72 72 73 72 72 74 75 73 76 73 71 69 65 64 65 65 71 68 67 65 63 63
70 69 70 70 71 71 72 73 73 74 74 74 75 74 74 71 68 73 73 73 75 74 73 73 74 72 70 72 69 74 76 72 66 64 63 63 63 64 69 66 65 64 68
68 69 69 73 73 72 72 72 73 73 75 76 75 74 73 67 63 65 71 73 74 76 74 74 75 72 71 68 67 67 71 75 76 68 64 64 74 69 64 63 65 64 64
63 63 65 68 71 73 74 74 73 73 74 76 75 75 75 75 64 63 66 69 72 74 76 76 72 66 72 74 69 67 67 66 67 74 75 74 74 75 76 77 74 72 69
61 61 62 65 67 70 72 73 74 74 75 74 75 76 76 74 65 62 64 72 72 73 74 75 76 75 74 74 74 74 74 75 74 71 73 74 75 77 77 75 77 77 74
60 61 61 61 64 66 68 69 73 75 74 74 73 75 75 76 64 62 64 70 69 72 73 73 74 75 70 65 74 74 75 74 66 66 67 67 66 65 67 70 67 65 63
56 59 61 63 62 63 64 67 70 74 74 76 73 75 71 75 67 61 63 70 70 68 73 74 66 70 65 63 74 74 74 74 74 71 72 70 68 71 64 72 70 66 64
55 57 58 60 61 62 64 67 67 67 70 73 74 76 76 74 75 61 59 72 70 68 68 67 69 62 60 59 60 75 73 73 72 72 70 69 68 69 71 73 74 71 67
54 56 58 59 57 57 63 63 65 67 67 70 73 74 76 77 68 64 58 60 68 71 70 67 68 59 56 57 60 62 61 64 70 69 66 63 61 61 62 64 75 76 73
54 55 56 58 57 58 59 61 58 65 69 69 66 71 72 74 77 63 60 58 60 69 71 68 59 57 54 56 57 57 59 68 68 68 68 68 66 62 66 70 72 80 79
55 54 54 55 55 55 52 52 52 54 56 57 63 66 66 68 75 76 70 67 64 67 67 69 67 64 59 63 66 63 66 69 69 69 69 69 67 65 64 64 64 63 64
51 52 53 51 52 52 54 50 50 56 52 52 53 54 55 58 67 57 58 65 63 61 59 69 71 70 70 70 70 71 72 71 70 70 69 68 67 67 66 66 66 66 65
48 47 47 48 48 47 48 48 47 48 47 46 46 49 52 50 50 49 48 50 52 53 61 70 74 73 70 70 70 71 72 70 72 72 70 69 68 68 67 68 67 67 67
47 48 46 46 46 47 47 47 46 46 46 45 44 45 45 46 45 44 44 44 46 53 64 67 72 73 72 74 70 70 70 71 74 71 71 71 70 69 67 67 67 68 68
45 45 45 45 45 45 46 46 45 46 46 46 45 47 45 44 44 44 45 47 62 59 65 67 72 72 73 73 70 70 72 72 72 72 72 71 71 72 72 70 68 68 67
41 40 41 43 45 46 47 47 46 45 46 46 46 45 46 44 44 45 44 59 63 64 64 67 69 70 72 75 75 75 72 71 71 74 72 72 74 72 72 73 71 62 64
40 43 42 41 43 45 45 46 45 46 46 46 46 46 47 48 50 52 57 62 63 65 65 67 71 70 71 75 75 75 76 75 75 76 75 77 77 76 74 74 74 73 71
38 39 42 41 41 42 43 45 46 47 46 46 45 47 45 50 50 50 50 52 56 63 65 66 69 70 73 75 75 74 74 75 74 74 75 76 76 75 75 74 74 75 74
37 37 38 39 40 43 43 43 43 44 45 46 46 47 44 49 50 50 51 53 55 58 64 64 64 67 71 70 68 69 73 74 75 75 74 75 75 75 75 74 75 73 73
35 36 37 38 40 41 41 41 41 43 44 45 46 47 47 48 49 50 51 53 56 58 58 58 58 57 59 59 60 57 57 62 62 63 67 72 74 73 73 73 73 73 72
36 37 38 39 39 40 39 40 40 41 43 45 45 46 47 48 48 51 53 53 53 52 51 50 51 51 51 52 53 54 54 54 55 57 60 62 64 65 68 70 70 69 69
38 38 39 38 38 38 39 39 39 40 41 42 43 45 46 48 49 49 49 49 48 47 47 46 46 46 45 45 45 46 45 36 44 49 59 61 62 63 63 64 64 64 65
38 39 39 39 37 37 37 38 38 39 40 41 42 43 44 45 45 45 45 45 44 44 43 43 43 42 42 41 41 37 32 33 45 39 57 60 60 58 57 57 56 55 55

GFSGL_sfc_dewp_084.txt.gz
Dewpoint
73 73 73 74 75 76 75 76 76 77 74 72 66 70 75 76 76 76 75 74 74 75 75 75 74 76 74 73 72 72 70 71 69 70 72 73 73 75 74 76 76 76 73
72 74 74 75 74 74 75 75 77 76 77 77 75 75 76 75 75 75 75 73 74 74 74 73 73 71 76 76 74 73 73 74 72 71 72 71 71 72 77 76 76 71 72
71 72 72 73 73 74 75 75 76 76 76 74 75 76 76 76 76 76 75 75 74 73 74 74 74 75 75 73 76 74 72 72 73 72 70 73 72 71 72 74 76 76 74
72 70 72 73 73 73 76 76 75 76 76 75 76 76 75 75 75 75 76 76 76 74 75 75 75 75 75 75 74 75 74 74 73 72 70 70 70 70 73 73 72 71 70
70 70 71 72 74 75 76 75 76 76 75 76 76 75 76 74 71 74 75 75 74 74 75 75 75 75 72 73 73 74 74 73 72 71 70 70 70 72 71 71 70 72 71
66 66 69 72 72 74 75 75 76 76 76 76 75 75 75 70 66 66 71 72 75 75 74 75 76 73 72 67 67 67 70 75 74 74 72 70 71 72 73 73 72 70 68
63 64 65 67 69 70 71 74 75 75 75 75 75 76 75 75 67 64 65 72 74 75 75 75 74 69 70 74 68 66 66 65 67 71 71 72 73 73 75 75 74 73 72
64 63 64 64 66 68 70 69 70 73 75 75 74 75 75 75 66 64 65 70 72 73 73 75 75 73 73 75 75 75 73 73 72 69 70 70 71 72 74 73 73 73 74
60 63 63 63 64 64 66 67 68 69 70 73 74 75 75 75 66 62 65 72 71 72 72 73 73 73 70 65 72 73 74 75 69 67 68 66 66 65 67 72 71 69 67
57 60 62 63 64 64 65 66 69 69 69 71 72 75 71 74 67 63 64 72 72 71 72 73 66 69 64 62 71 73 72 71 72 72 72 68 66 68 64 70 71 70 68
55 57 60 62 63 64 65 67 67 68 70 69 71 73 74 73 74 62 60 73 73 72 71 71 71 62 60 59 60 70 70 71 71 72 72 71 71 72 73 72 72 71 69
57 57 59 60 59 58 63 64 64 65 67 68 69 70 74 75 67 65 59 58 63 70 73 73 72 59 55 55 59 61 60 63 70 70 71 70 69 68 68 68 73 73 72
55 57 59 59 59 61 62 61 60 63 63 66 65 66 66 66 70 59 59 59 60 64 68 66 60 59 57 60 56 57 57 65 67 68 68 68 69 70 70 70 68 75 75
54 55 54 54 57 58 56 55 56 54 56 58 58 57 57 60 69 67 63 62 61 63 63 64 63 60 61 64 65 68 64 67 68 68 68 69 70 70 70 69 67 64 65
49 50 51 50 52 53 55 55 55 58 52 53 54 54 53 53 58 52 53 59 62 61 58 63 66 69 72 72 72 71 72 70 69 70 70 70 70 70 69 69 67 67 67
45 45 45 46 47 48 49 50 49 47 45 44 44 48 53 50 47 46 45 45 45 48 59 62 64 66 69 69 72 72 73 71 71 71 71 71 71 70 69 70 71 68 67
43 45 43 43 44 46 48 48 48 49 46 44 42 43 44 46 45 44 43 43 43 47 57 62 64 65 67 69 70 69 69 72 73 73 73 73 70 70 68 68 68 68 69
45 44 41 41 42 43 45 46 47 48 48 50 47 45 45 43 43 43 42 44 55 53 60 63 65 66 66 69 72 71 71 71 72 73 73 72 73 73 72 72 72 69 69
40 39 40 40 41 42 42 44 44 45 46 48 49 47 47 43 41 41 42 52 55 58 61 64 64 66 68 71 72 72 73 72 68 70 73 74 74 73 73 73 72 64 65
40 43 42 39 40 40 41 42 42 43 44 46 47 48 50 49 50 51 54 57 60 59 59 62 64 66 69 71 70 69 69 71 72 72 72 72 73 73 73 73 73 72 72
36 36 41 37 37 38 39 40 41 42 43 43 43 46 43 46 48 49 50 51 52 52 54 56 61 64 68 69 70 70 70 71 72 72 72 72 73 72 73 73 73 73 73
34 35 36 36 36 37 37 38 38 40 41 41 41 44 42 45 46 48 50 50 51 53 53 60 61 61 61 61 61 62 62 63 66 68 69 72 72 73 72 71 72 73 73
34 35 36 36 36 38 37 36 37 38 39 39 41 42 43 44 45 46 47 49 51 53 54 54 54 53 54 56 58 58 57 57 58 58 60 63 66 70 72 72 71 72 72
35 36 37 37 36 37 36 36 36 38 38 38 39 40 41 43 45 46 47 48 49 50 51 50 50 49 49 49 50 52 54 55 54 53 56 58 61 62 66 69 70 71 71
35 36 37 38 39 38 37 35 35 37 37 37 38 38 40 41 42 44 45 46 47 48 48 48 48 47 46 46 45 45 44 39 41 42 48 55 58 60 63 65 66 68 67
37 38 38 39 39 39 37 36 36 35 36 37 37 38 39 40 41 42 44 45 45 46 46 45 45 44 43 43 41 38 34 33 37 36 46 53 57 60 61 61 60 59 59

GFSGL_sfc_dewp_087.txt.gz
Dewpoint
71 72 72 73 73 73 73 73 72 71 71 71 70 67 70 72 72 72 72 71 72 71 70 71 69 71 69 70 71 70 69 68 66 67 70 70 67 67 68 70 73 73 72
71 72 72 73 73 73 73 73 73 70 71 69 65 65 68 71 73 72 71 71 71 70 70 71 70 70 70 72 71 69 69 68 67 64 67 67 67 69 70 71 73 72 72
69 71 71 73 72 72 73 73 73 73 72 72 71 71 72 72 72 73 72 71 72 71 71 71 71 70 71 70 69 71 70 70 71 70 69 70 70 67 67 67 70 73 71
69 68 69 70 71 72 74 73 74 74 73 72 73 72 73 73 73 73 73 72 72 73 72 73 71 69 70 71 70 70 71 70 70 69 68 67 67 67 69 70 65 67 68
67 68 67 70 71 72 72 73 73 73 73 73 73 73 74 73 72 73 73 73 72 72 72 73 73 73 72 71 71 70 70 70 70 70 69 69 68 68 67 69 69 70 68
65 66 67 69 70 69 71 72 72 71 72 73 73 73 73 72 69 68 70 71 73 71 71 72 73 73 71 68 68 69 71 71 70 70 70 70 69 68 71 71 70 69 68
64 64 65 67 68 68 69 68 68 69 73 72 72 72 73 73 66 65 65 68 71 73 73 72 71 70 70 71 69 66 66 65 66 67 67 67 68 69 70 70 69 70 69
63 63 63 64 65 66 67 67 68 68 69 71 72 73 73 73 66 64 66 67 68 69 71 73 73 71 71 71 72 72 71 69 69 67 68 68 68 67 68 68 69 70 71
55 59 62 63 63 63 64 66 67 67 68 68 69 71 71 72 67 63 64 69 70 70 70 70 71 72 69 66 70 70 70 73 70 65 66 65 64 64 65 70 70 68 68
53 54 57 61 60 60 62 63 65 66 68 70 70 70 69 72 67 62 63 70 71 71 71 70 65 66 63 62 68 68 68 68 70 70 69 67 65 68 64 67 68 67 67
54 55 56 56 57 58 59 61 62 62 64 66 68 69 70 70 67 60 59 66 71 71 72 72 71 60 57 56 56 65 66 66 66 68 70 70 70 70 70 70 69 69 68
53 53 54 55 56 55 58 60 58 58 60 63 66 66 69 66 59 57 57 57 61 65 67 69 68 58 57 55 59 59 57 60 65 66 67 68 69 69 69 69 71 71 70
50 50 52 52 51 52 57 57 55 57 55 57 59 57 60 62 66 57 57 59 60 63 65 63 59 56 55 60 58 58 57 61 63 64 65 66 67 68 69 69 69 68 71
47 47 48 48 47 48 50 51 51 52 53 51 52 52 52 52 58 64 59 59 59 62 63 64 61 58 58 61 62 65 67 68 67 66 66 66 67 68 68 69 68 68 68
45 45 44 44 44 44 46 48 48 48 48 46 47 51 50 50 52 55 50 51 57 57 54 59 61 61 61 63 68 71 71 70 67 67 67 67 67 67 68 68 69 68 67
43 43 43 42 43 44 45 45 46 46 45 44 43 43 45 47 46 45 44 44 44 45 55 57 59 60 61 62 64 67 69 70 71 70 70 70 70 70 70 70 70 68 67
44 43 42 43 41 41 42 42 41 43 44 44 43 43 43 43 42 42 42 43 42 46 52 54 57 59 61 62 63 66 68 69 69 70 70 71 71 71 70 70 70 69 68
42 44 40 39 40 41 41 41 41 41 41 42 44 44 44 43 42 41 41 43 46 47 52 55 58 60 62 63 64 66 69 70 68 67 69 68 68 68 67 67 70 69 68
40 40 40 40 40 41 41 41 41 41 41 41 42 42 43 43 43 42 43 45 48 50 52 54 57 61 64 65 66 68 69 70 69 69 68 67 67 65 65 64 67 65 65
38 44 41 38 39 38 39 39 39 39 39 39 39 39 41 42 43 43 44 47 49 49 50 51 51 52 54 58 64 66 67 67 68 68 69 69 65 64 65 65 70 69 69
37 37 39 37 37 37 37 37 37 37 37 38 38 39 41 40 41 41 43 44 46 49 50 50 53 55 60 61 61 60 60 60 61 63 65 66 69 70 70 70 69 69 69
36 37 37 37 37 36 36 37 36 36 36 36 36 37 38 38 38 40 42 43 44 45 46 50 52 53 52 52 53 53 53 53 54 56 58 59 62 65 68 70 69 69 69
36 36 36 36 37 37 35 35 35 34 34 34 35 35 36 37 38 38 40 42 44 45 46 48 49 49 50 49 49 49 49 50 52 53 52 53 56 60 64 66 68 68 67
36 37 37 37 37 37 36 35 35 34 33 34 35 34 34 36 37 38 39 40 41 42 43 46 47 46 47 47 46 47 48 49 50 50 50 50 51 53 57 61 65 66 69
35 37 37 37 39 37 37 36 35 34 34 34 33 35 35 35 36 38 39 39 40 41 42 44 46 46 46 45 45 45 43 39 41 41 43 45 47 50 54 59 61 64 66
35 38 38 38 38 37 37 35 36 36 35 35 35 35 35 35 36 37 39 39 40 41 42 43 44 45 45 44 43 40 36 34 36 35 38 42 45 48 53 57 59 61 62

GFSGL_sfc_dewp_090.txt.gz
Dewpoint
71 71 71 72 72 72 72 72 71 70 70 70 70 71 70 71 72 71 70 70 70 70 70 70 69 69 69 69 70 69 68 68 64 65 70 69 67 67 68 68 69 70 73
70 70 70 72 72 72 72 72 72 70 70 69 69 68 68 70 71 71 70 71 70 70 70 69 70 70 68 70 71 68 69 68 68 66 67 67 68 68 67 66 68 70 72
69 69 70 70 71 72 72 73 72 70 69 70 67 65 64 68 70 72 71 70 71 71 70 69 70 69 69 69 69 68 69 69 70 69 68 69 68 66 67 68 69 68 68
68 67 66 69 69 70 72 72 71 72 70 70 70 70 70 71 71 71 72 70 70 71 72 71 71 70 69 68 69 69 68 68 68 68 67 68 68 68 68 68 68 68 69
67 67 68 69 69 70 71 71 73 72 73 72 72 72 72 72 71 71 72 72 71 71 72 72 72 72 70 69 70 70 69 68 68 68 68 68 68 68 68 69 69 69 69
66 66 67 68 68 69 69 68 70 71 71 72 72 72 71 72 68 66 70 72 72 72 71 70 71 71 70 68 68 68 69 69 68 69 68 68 67 68 68 69 68 67 65
64 64 66 67 67 67 67 68 67 68 69 70 70 71 72 72 68 65 66 68 70 70 72 71 71 71 70 72 69 66 66 66 67 68 67 67 66 67 68 66 66 67 66
63 63 64 64 64 65 65 65 67 67 67 68 69 70 70 72 67 64 65 68 68 68 70 72 72 72 71 70 71 70 70 70 67 67 67 67 67 68 66 66 66 67 69
54 56 59 61 62 63 64 65 65 67 66 67 69 68 69 70 64 62 64 69 69 70 70 70 70 71 68 64 69 70 70 70 69 64 64 64 63 62 65 68 68 67 67
53 55 56 57 58 61 60 61 64 63 65 66 67 68 66 71 58 58 62 68 69 70 71 71 65 66 61 58 67 69 69 68 68 69 70 66 64 66 63 66 69 68 68
52 52 53 52 53 55 56 57 59 57 58 61 64 66 67 64 61 57 58 64 64 66 67 70 70 59 55 55 55 63 65 65 65 66 67 69 70 70 70 68 69 69 68
49 48 49 50 50 50 51 54 55 54 56 56 57 65 67 65 59 57 56 57 60 61 62 65 66 58 53 53 57 60 58 59 63 65 65 66 67 68 69 70 70 69 70
46 46 46 46 46 46 48 48 48 49 48 47 48 50 51 53 61 55 55 55 56 60 63 60 56 54 53 56 58 58 58 62 64 64 64 65 66 67 67 69 70 71 71
45 44 44 44 44 44 45 47 46 46 45 45 46 46 46 47 52 54 58 55 55 57 59 59 57 56 56 57 59 63 66 66 66 67 68 68 68 67 66 67 67 67 68
43 43 42 42 42 43 44 45 44 44 44 44 44 45 45 46 46 45 45 46 52 51 48 53 55 54 55 57 59 60 61 68 69 69 69 69 68 68 67 68 68 68 67
42 42 42 41 41 41 41 41 43 43 43 42 41 43 43 44 43 42 41 42 42 43 49 51 51 53 55 56 58 60 62 64 66 67 69 69 68 69 69 70 69 70 69
40 40 39 39 39 40 41 41 40 41 42 41 41 41 41 41 41 40 40 42 43 44 47 49 50 52 54 57 59 61 62 64 66 68 68 68 68 69 69 70 70 70 70
40 43 38 39 39 40 40 40 40 39 39 39 40 41 40 39 39 39 40 43 45 47 47 49 51 53 55 57 60 63 64 65 67 68 68 68 68 68 67 66 66 66 65
38 38 37 38 38 38 38 38 38 37 37 37 37 38 39 39 39 39 40 42 43 44 46 48 49 49 49 52 54 59 63 64 64 65 66 66 68 68 66 65 65 59 60
39 41 39 37 37 37 37 36 36 36 36 36 37 37 37 37 36 37 38 39 41 42 43 45 48 52 54 55 58 59 59 57 57 58 58 59 62 63 64 65 64 64 65
37 37 39 36 36 36 36 36 36 36 35 35 35 36 38 36 36 36 37 37 38 39 41 43 45 46 47 52 54 54 53 53 53 52 53 53 54 55 57 59 63 65 68
36 37 37 36 36 36 36 35 35 35 34 33 33 33 36 34 35 35 36 37 37 38 39 41 43 45 48 49 51 50 50 50 50 50 50 51 50 51 53 55 57 62 64
36 36 36 36 36 37 36 35 35 34 34 33 33 32 33 33 33 33 34 35 36 37 39 39 40 41 43 46 49 49 48 47 48 48 48 49 50 49 50 51 51 55 59
36 37 37 37 37 36 36 35 35 35 34 34 32 32 32 33 33 33 34 33 35 37 38 38 38 39 40 41 43 44 46 47 47 47 47 46 46 45 48 50 52 54 56
35 36 37 37 37 37 36 35 34 34 34 34 33 33 34 34 35 35 35 35 35 35 37 38 40 40 40 41 41 42 42 39 41 41 43 43 42 43 44 47 48 51 54
34 36 37 37 37 37 36 35 34 33 34 34 34 35 34 34 34 35 35 35 35 35 36 37 38 39 40 42 42 40 36 34 37 35 38 39 39 40 43 45 47 49 52

GFSGL_sfc_dewp_093.txt.gz
Dewpoint
70 69 69 70 70 71 70 70 70 69 69 70 70 70 70 71 71 70 70 70 69 69 69 69 68 68 68 68 70 68 68 66 64 66 68 68 67 67 68 67 69 70 71
68 69 70 70 71 71 70 71 71 71 69 70 70 70 70 70 71 71 71 70 70 69 68 69 68 70 68 68 70 67 68 68 67 65 67 67 67 68 67 67 68 69 68
68 68 69 69 70 71 71 71 72 72 70 69 69 68 67 66 68 71 71 70 70 70 70 69 68 69 68 68 68 68 68 69 68 68 67 68 68 67 68 68 68 68 69
68 68 69 68 68 69 70 70 71 72 71 69 69 67 66 65 66 69 71 71 70 70 71 71 70 70 69 68 68 68 68 68 67 67 66 67 67 68 68 67 68 69 69
67 67 67 69 69 69 68 68 70 71 72 71 70 70 70 70 70 71 71 71 71 70 70 71 71 71 70 69 71 70 69 68 68 67 66 66 67 67 66 67 68 68 67
67 66 67 67 67 67 67 68 68 68 69 70 70 70 70 72 69 67 70 71 71 71 71 71 71 70 70 67 67 67 70 70 68 67 67 67 67 67 67 67 67 65 64
64 65 66 66 65 65 66 66 66 67 67 68 69 70 71 70 66 64 66 70 70 70 70 71 71 71 70 71 69 66 66 65 67 69 68 68 67 67 67 66 65 65 65
61 63 64 64 64 64 64 64 65 65 66 66 68 68 68 69 63 62 65 67 69 68 68 70 70 71 71 71 71 70 70 70 69 67 68 69 68 68 67 67 67 66 66
54 56 57 59 62 63 63 64 64 63 63 64 66 67 67 68 59 59 65 68 68 69 69 70 70 70 65 61 68 69 69 70 68 64 64 63 63 62 64 68 67 66 68
51 52 52 52 55 57 58 60 63 61 61 62 64 67 64 65 58 60 63 66 64 65 67 68 61 62 58 56 64 64 65 67 68 67 67 67 64 66 63 66 69 68 68
48 48 49 49 50 50 53 56 55 55 56 62 65 66 65 63 62 55 56 61 60 60 62 64 65 60 59 57 55 60 64 65 65 67 68 67 68 69 69 67 68 69 68
46 46 46 45 46 47 48 48 48 48 47 48 48 49 56 56 55 54 54 55 57 58 59 61 61 54 53 53 54 57 55 57 63 65 66 67 67 67 68 69 70 69 69
44 44 43 44 44 45 46 46 45 44 44 45 45 45 46 48 48 49 49 50 53 56 59 58 55 53 52 55 56 56 56 61 62 64 64 66 67 68 68 68 68 70 70
42 42 42 42 42 43 44 44 43 42 43 44 43 45 45 45 44 43 43 45 49 50 52 51 52 54 54 55 57 58 61 63 64 65 66 68 69 69 68 68 67 68 67
41 41 40 40 41 41 41 42 41 42 43 42 42 43 42 42 41 43 42 42 45 46 45 50 51 50 49 50 53 56 59 60 61 64 66 67 68 68 68 69 68 67 67
40 39 39 39 39 40 40 40 43 43 42 41 41 41 41 42 41 40 39 40 42 44 48 48 49 50 51 52 54 56 59 61 62 64 65 66 67 68 69 69 69 68 68
39 38 38 39 39 39 39 39 38 39 41 40 39 40 40 40 39 38 38 39 42 45 47 48 49 50 52 54 56 57 57 59 63 64 65 66 66 67 66 67 68 69 69
40 41 37 37 37 37 37 37 37 37 36 35 38 39 39 38 38 37 38 39 39 41 43 43 44 45 47 49 50 52 55 59 61 60 61 62 62 62 63 66 67 66 66
36 36 36 36 37 37 36 36 36 36 36 35 36 37 37 37 37 37 38 37 38 39 40 41 43 44 46 50 50 51 52 54 57 56 57 56 56 56 57 58 58 56 59
39 40 37 35 35 35 35 35 35 35 34 34 34 34 35 35 34 35 36 36 37 37 37 38 39 40 41 43 46 48 50 51 52 53 54 53 53 54 53 53 53 53 57
38 38 39 36 35 35 35 35 35 34 34 34 33 34 37 34 34 33 34 34 35 35 35 36 37 38 39 41 43 43 46 48 50 50 50 50 50 50 50 51 52 52 54
36 36 36 36 36 35 36 35 34 34 34 33 33 33 35 33 33 33 33 33 33 34 35 36 37 38 37 37 38 41 44 45 48 48 48 48 46 47 47 48 49 50 50
36 36 36 36 36 37 36 35 34 34 34 34 34 33 33 33 33 33 33 33 34 34 34 34 35 35 36 37 37 37 39 40 42 44 45 45 44 44 44 44 44 45 47
36 36 36 36 36 36 35 35 35 35 34 34 34 33 33 33 33 33 33 33 33 34 34 34 33 34 35 36 37 38 39 40 41 42 43 44 43 42 41 41 42 44 45
35 36 36 36 36 37 36 35 34 34 33 34 33 33 33 34 33 33 32 32 32 34 34 34 34 35 36 36 37 37 37 36 38 38 41 42 42 42 42 41 40 40 42
36 36 36 36 36 36 35 35 35 34 33 33 34 34 35 35 35 34 34 33 33 33 34 35 35 35 36 36 37 37 34 34 35 34 36 37 37 38 39 39 40 39 40

GFSGL_sfc_dewp_096.txt.gz
Dewpoint
68 68 70 70 71 71 70 71 71 71 71 71 71 71 72 72 73 73 72 72 71 71 71 71 71 71 70 70 71 71 69 68 67 69 69 71 72 72 72 72 71 73 71
70 70 69 70 71 71 71 71 72 72 71 70 71 71 72 71 72 72 72 72 71 71 71 71 70 70 71 71 71 71 70 71 69 69 70 70 71 72 72 72 71 70 71
68 69 70 70 71 71 71 72 72 73 72 71 71 70 70 70 71 71 72 72 72 71 71 71 71 71 71 70 71 70 70 70 70 70 69 70 70 70 71 72 72 73 70
68 68 68 69 69 70 70 71 71 72 72 71 71 70 70 70 69 68 71 72 72 72 72 72 72 71 71 72 71 72 70 70 70 70 69 69 69 71 71 69 69 71 70
67 68 68 68 68 69 68 68 69 70 71 72 71 71 70 69 68 70 71 71 72 72 72 72 72 72 70 70 73 73 72 71 70 70 70 69 69 69 69 70 69 70 71
67 67 67 67 67 66 68 68 68 68 68 69 70 71 71 72 66 66 71 72 73 73 73 73 73 71 71 67 66 67 71 73 72 70 71 70 71 70 70 70 70 70 68
65 66 66 65 65 65 66 66 65 66 67 68 68 68 68 70 63 63 66 71 72 72 72 72 71 71 71 72 69 66 66 65 68 73 71 71 71 72 71 71 71 69 69
59 60 63 65 64 64 63 63 63 63 64 65 66 68 69 67 60 61 64 69 71 70 70 71 71 71 68 67 70 71 72 72 72 69 70 72 73 73 72 72 72 71 70
52 54 55 58 60 61 62 63 62 61 61 62 65 68 64 61 57 59 65 69 68 68 69 68 68 66 61 59 67 68 69 70 67 64 63 63 62 62 64 69 69 70 68
50 50 53 53 55 57 59 61 62 61 62 64 65 65 61 61 53 55 59 62 61 63 65 66 62 61 59 59 61 62 63 67 68 67 68 68 67 69 63 68 69 68 68
48 48 49 50 51 52 52 53 53 52 53 60 59 57 55 53 51 50 52 57 59 61 62 62 62 56 55 54 54 61 59 60 61 62 63 65 68 69 70 71 70 69 69
47 47 48 48 48 49 50 47 48 50 50 50 50 50 52 51 48 47 48 50 52 57 58 60 60 52 50 51 56 55 54 56 61 63 62 63 64 66 69 70 73 71 71
45 45 45 46 46 48 46 46 45 46 47 47 46 46 47 45 43 45 45 47 49 53 54 52 51 50 51 53 54 54 56 63 64 62 63 66 68 68 70 71 71 72 73
44 43 43 43 43 44 44 44 44 43 43 42 43 43 44 41 40 40 41 42 45 50 50 52 52 52 52 53 55 57 59 61 61 62 62 65 67 67 67 71 70 71 69
41 41 41 41 41 42 43 43 42 43 42 40 40 41 39 37 37 40 40 39 42 46 47 54 53 50 51 52 53 55 57 59 60 63 62 62 64 64 64 68 69 69 68
39 40 40 40 40 39 39 38 41 42 40 39 40 39 39 39 40 39 38 39 41 44 50 50 48 50 48 49 50 52 54 55 57 60 60 62 63 63 62 64 67 68 67
39 39 39 38 37 37 37 36 34 36 40 39 39 39 38 38 38 37 37 38 40 42 44 42 44 44 44 47 51 52 52 52 55 54 60 59 59 58 58 59 60 60 60
40 39 37 36 35 36 35 35 35 34 33 34 37 37 37 37 37 37 37 38 36 38 37 37 38 39 40 42 42 43 45 47 50 53 55 55 57 55 55 55 55 56 56
37 36 36 36 36 35 35 35 34 33 33 33 34 35 36 36 36 36 37 35 35 35 35 36 36 37 37 38 39 43 45 46 48 51 53 51 51 52 51 51 51 50 50
37 39 37 36 35 35 35 34 33 33 33 33 33 33 34 34 33 33 34 34 34 34 35 35 36 37 37 38 40 39 41 40 42 44 46 47 48 49 48 48 48 49 49
39 39 38 36 36 36 35 35 34 33 33 33 33 34 36 34 33 33 33 33 33 33 33 33 33 34 35 36 37 38 36 37 38 40 41 43 48 47 48 47 47 46 47
38 39 37 37 36 37 36 36 35 34 34 33 33 34 35 33 33 33 33 33 34 34 33 34 33 33 33 34 35 35 37 38 38 38 40 43 44 44 43 43 43 43 44
37 37 36 37 37 38 38 37 36 35 35 34 34 33 33 33 33 33 33 33 33 33 33 33 33 32 33 33 34 35 34 35 37 39 39 38 38 39 40 42 42 42 40
36 37 37 37 37 37 37 37 38 37 36 35 34 34 33 34 34 34 34 34 33 33 33 33 32 32 33 33 34 35 35 36 37 37 37 37 37 37 37 40 42 42 41
36 36 37 37 37 39 38 38 37 37 37 35 35 34 34 34 34 34 34 34 34 34 33 33 33 34 34 34 34 34 34 34 35 35 36 36 36 35 36 36 37 39 39
38 37 37 37 39 39 39 39 39 39 38 37 35 35 35 35 35 36 35 35 35 34 34 33 34 35 33 35 34 34 33 33 34 33 34 34 33 34 35 35 36 37 38

GFSGL_sfc_dewp_099.txt.gz
Dewpoint
69 70 72 71 72 73 73 73 73 74 74 74 74 73 72 73 74 75 75 73 74 74 74 74 73 74 70 69 70 71 70 69 65 64 69 70 73 73 71 73 70 71 68
70 71 70 72 73 73 73 73 73 73 74 74 74 74 74 74 74 74 74 73 73 73 72 73 73 71 74 73 70 73 71 72 69 70 71 70 72 74 74 75 70 68 71
71 71 72 72 72 71 72 73 73 74 75 73 74 74 74 73 72 73 74 73 73 73 73 73 72 73 74 72 73 76 70 70 72 70 69 70 71 71 72 73 73 74 69
70 70 70 72 73 72 73 73 74 74 74 74 74 74 73 73 72 71 71 73 74 72 73 73 73 73 74 74 72 75 72 74 72 70 68 69 70 72 72 70 69 68 68
68 68 68 70 70 71 72 72 72 73 73 74 74 74 73 72 69 71 71 71 71 73 74 73 73 73 70 71 75 77 75 73 74 67 67 68 68 67 69 69 68 68 70
68 68 68 68 69 70 70 70 70 71 71 72 72 72 72 72 62 64 70 73 74 74 74 75 74 72 71 67 66 67 70 75 75 69 67 68 73 72 70 70 69 68 67
68 68 68 67 67 67 68 68 68 69 69 70 70 71 70 66 61 61 66 74 75 75 74 74 73 72 70 72 70 67 67 65 67 74 73 72 73 73 74 73 72 71 70
62 63 66 66 65 65 66 66 66 67 67 68 70 66 63 59 58 59 65 73 73 72 70 70 69 65 62 63 70 72 73 73 74 72 73 73 74 74 75 74 74 73 72
57 57 60 63 63 64 64 64 64 65 66 69 65 64 59 57 54 57 64 65 66 66 65 62 62 61 60 60 62 65 67 70 66 64 63 62 62 61 64 70 70 70 68
54 54 56 58 60 60 62 62 63 65 66 64 59 56 53 53 51 52 59 62 62 64 63 63 57 56 54 55 61 61 60 61 61 61 63 63 65 68 64 71 70 69 69
52 52 54 56 57 57 57 57 59 59 57 56 55 54 50 50 48 48 50 55 57 59 58 56 55 53 51 51 53 59 58 58 61 61 60 60 61 62 63 67 71 71 70
51 52 53 54 51 52 55 55 54 55 55 55 54 50 48 46 46 46 46 48 51 54 53 54 54 50 49 50 53 53 53 57 60 60 60 60 62 63 65 67 70 70 72
50 50 51 51 50 52 52 52 50 52 49 49 48 48 46 43 42 44 44 46 48 50 51 51 51 50 50 52 53 54 55 57 57 58 60 62 63 65 67 68 70 71 72
49 49 48 48 48 48 46 46 46 45 45 46 45 44 41 39 38 39 38 42 46 47 50 51 51 52 52 53 52 53 54 55 55 56 58 61 62 63 64 64 65 66 68
46 45 45 44 46 45 45 44 41 41 42 41 41 39 38 36 36 39 39 41 41 44 48 47 46 45 45 46 48 50 52 53 54 56 56 57 57 59 59 59 61 61 61
43 41 41 40 40 40 40 37 41 41 40 39 38 38 36 38 39 39 38 39 40 43 43 41 41 42 42 44 45 45 47 46 46 47 48 51 53 54 55 55 56 58 59
42 42 38 38 36 37 36 35 34 37 39 39 38 37 37 37 38 37 37 38 39 39 36 37 38 38 38 39 39 39 40 42 46 44 46 47 47 48 49 49 50 52 52
42 41 35 34 34 34 34 34 33 33 32 34 36 36 36 37 37 36 37 37 35 36 35 35 35 36 37 37 38 38 39 39 39 40 42 43 45 46 47 48 48 49 49
38 34 34 34 34 34 34 33 32 32 32 32 33 35 36 36 36 36 36 35 34 33 34 34 35 35 37 37 38 38 39 38 38 38 39 40 41 43 44 45 44 45 46
37 37 36 35 34 34 33 32 32 32 32 32 31 32 33 34 33 34 35 35 34 33 34 34 34 34 35 37 37 36 36 36 37 37 37 37 38 39 40 42 43 43 43
34 37 37 35 34 34 33 32 32 31 31 31 31 33 35 34 33 33 33 34 34 34 34 34 35 35 35 35 35 35 34 34 35 36 36 37 37 37 38 38 39 41 43
35 36 37 36 36 37 35 35 34 33 32 32 31 33 35 34 33 34 34 34 34 35 34 35 34 34 34 34 35 34 34 34 34 35 35 35 36 35 35 35 36 37 39
35 35 36 36 38 39 38 38 37 36 35 34 33 32 32 33 34 34 35 35 35 35 35 34 34 33 33 34 34 34 34 34 35 36 35 35 35 35 35 36 36 36 35
36 37 35 36 37 37 38 39 40 39 39 37 35 34 34 35 35 35 36 36 35 35 35 35 34 34 34 34 34 33 33 34 34 35 35 35 35 35 36 37 36 37 37
37 37 37 37 38 38 38 38 38 39 39 39 38 36 35 35 36 36 36 36 35 35 35 35 35 35 35 35 34 34 34 33 34 34 35 35 35 36 35 35 35 35 36
39 38 37 37 38 38 38 38 39 39 39 39 40 39 37 36 36 37 37 37 37 35 36 35 36 36 37 36 35 34 32 32 34 33 34 34 34 34 35 36 36 35 35

GFSGL_sfc_dewp_105.txt.gz
Dewpoint
68 68 68 67 67 69 68 69 71 71 72 72 73 72 72 72 73 74 75 74 72 72 72 71 71 74 68 66 66 64 61 61 60 62 63 66 75 74 70 72 68 71 65
69 70 69 69 68 66 68 68 71 72 73 72 73 72 71 72 73 73 73 69 70 70 70 71 70 66 72 75 68 76 70 71 64 72 69 66 72 71 71 75 67 63 66
69 69 72 69 68 68 67 68 70 72 72 71 72 72 72 71 71 72 73 71 70 69 69 70 70 70 72 70 72 70 66 69 72 67 65 63 65 67 70 73 74 73 63
71 72 73 71 68 68 73 70 69 72 72 71 72 73 72 71 71 71 71 72 71 70 70 73 72 71 72 72 71 74 72 71 69 68 69 66 66 71 72 64 63 63 63
71 71 71 74 72 72 72 73 70 71 71 71 71 74 71 69 67 71 71 72 72 71 70 70 71 72 71 70 70 74 74 72 67 67 65 63 65 67 67 65 65 65 68
70 70 72 73 72 73 73 72 73 72 72 72 71 72 72 70 62 63 68 72 72 73 72 70 70 72 71 69 68 68 71 74 73 69 68 66 73 70 69 68 70 68 67
69 69 70 70 70 71 72 73 73 73 73 73 72 72 72 70 58 61 66 71 72 73 73 73 72 70 71 71 69 68 68 67 68 74 73 74 74 76 75 75 75 74 70
70 69 69 69 69 70 70 69 70 71 72 73 72 70 67 61 55 56 62 73 74 74 73 72 72 70 59 59 66 69 70 72 75 71 74 71 71 70 70 71 73 74 73
69 69 69 69 68 67 67 67 68 70 71 69 68 66 63 60 51 53 62 72 70 70 67 63 66 61 55 56 65 66 66 66 61 63 64 61 59 59 62 66 65 73 73
65 67 67 68 66 66 66 66 66 67 66 66 61 60 56 57 48 50 56 66 68 64 62 59 55 55 53 54 63 61 60 58 58 62 65 65 63 65 61 68 69 67 67
61 61 62 64 64 66 66 67 65 64 62 61 58 56 54 52 47 47 49 58 58 61 59 57 54 53 51 51 53 59 56 57 59 61 58 59 62 64 65 67 70 65 63
61 62 61 62 59 61 65 63 61 61 60 59 58 55 52 51 47 46 48 49 52 55 54 53 54 50 49 50 53 52 52 54 54 50 50 54 57 56 57 61 70 68 64
59 61 61 59 60 62 62 62 60 60 59 59 56 54 51 49 48 46 45 46 48 52 48 51 51 49 49 52 54 52 53 52 52 55 54 53 50 53 63 61 61 65 65
56 58 57 56 57 59 58 58 58 57 56 56 55 53 50 48 46 43 43 45 47 49 51 53 48 50 51 51 52 52 50 47 47 45 45 46 46 46 47 51 49 48 48
57 56 54 51 53 51 45 40 47 41 39 44 51 50 47 47 40 39 39 39 40 42 47 46 47 49 45 44 46 47 45 45 44 43 43 43 43 44 46 47 47 46 46
54 54 52 46 47 45 45 41 39 39 39 39 39 41 37 38 38 39 38 39 40 40 43 41 40 41 41 41 41 41 42 45 43 43 43 43 43 43 42 43 44 44 45
51 51 50 42 42 44 43 41 38 35 39 38 37 38 37 36 38 37 37 38 40 40 39 39 40 40 40 41 40 40 40 41 49 42 43 44 40 40 42 41 41 41 41
50 44 43 39 38 39 40 39 37 36 35 34 36 37 36 37 37 36 36 38 38 37 36 37 37 38 39 39 39 39 39 39 38 40 40 39 39 39 38 39 39 40 39
44 38 37 38 38 37 37 37 34 35 37 36 34 36 36 38 38 39 39 39 36 34 35 35 36 37 38 39 39 40 41 38 38 38 38 38 38 37 38 37 37 39 39
43 41 39 36 36 35 35 34 32 34 34 34 34 34 36 37 38 38 40 40 37 35 36 37 38 39 39 40 40 39 38 37 38 37 37 37 36 36 36 36 35 35 36
39 38 41 34 34 33 34 33 33 32 32 32 32 34 36 38 35 36 35 37 37 36 38 38 39 40 39 39 39 38 36 36 36 36 36 35 36 35 35 35 35 35 34
38 37 35 35 35 36 35 34 33 33 32 36 31 30 37 36 33 35 36 36 36 38 37 40 38 37 36 37 37 36 34 34 35 35 35 34 34 34 34 34 34 34 34
37 34 35 35 36 39 37 35 33 33 32 32 32 31 29 33 32 33 34 35 36 36 37 38 37 34 34 36 36 35 33 34 35 35 34 34 34 34 34 34 34 34 34
39 37 36 35 35 35 35 35 35 36 35 34 34 32 32 33 33 34 35 35 36 36 36 37 37 36 37 37 36 35 35 36 36 34 35 34 34 35 34 34 34 34 35
40 39 37 38 37 36 36 34 34 36 36 36 36 35 34 34 34 35 36 36 36 36 36 38 37 36 36 36 37 37 35 33 35 34 35 35 35 36 35 35 36 36 36
44 41 40 39 38 39 37 36 36 37 37 36 36 37 36 35 35 36 37 37 38 38 38 38 37 37 38 37 37 35 32 32 34 32 35 34 35 37 37 37 37 37 37

GFSGL_sfc_dewp_108.txt.gz
Dewpoint
71 71 72 72 72 73 74 73 69 71 73 69 75 76 76 74 74 76 76 75 74 75 75 74 74 75 74 73 72 71 70 71 69 69 70 70 72 74 73 74 74 72 71
69 72 72 72 71 71 73 72 76 75 77 76 76 76 76 75 76 76 74 74 72 73 74 75 74 70 74 76 74 74 73 74 72 68 73 69 70 72 75 74 73 65 70
71 73 72 72 72 73 71 73 75 76 76 74 76 76 75 75 74 76 76 76 74 72 74 74 74 74 74 74 74 74 72 72 73 72 72 71 71 72 70 70 72 73 70
73 73 71 74 71 72 71 73 74 76 75 75 75 74 75 75 74 74 75 74 74 73 73 73 70 72 74 74 73 74 72 73 72 71 70 70 70 73 72 71 70 72 70
72 72 71 72 73 75 74 75 75 75 74 74 75 75 75 71 65 67 74 74 74 74 75 74 74 73 71 71 73 75 76 74 73 71 70 69 70 71 70 72 71 72 72
70 70 72 72 72 72 72 74 75 75 75 75 74 74 74 66 61 63 67 74 74 74 74 74 73 74 71 69 69 69 71 73 73 72 71 70 72 72 72 72 72 71 70
70 70 71 72 72 71 71 73 72 73 74 74 74 74 69 63 57 58 63 70 73 75 76 76 74 66 63 65 68 68 68 67 68 72 72 72 72 74 72 71 71 71 70
70 70 70 70 70 69 69 71 72 71 70 70 70 69 67 56 53 55 59 69 75 74 72 72 68 63 57 58 65 70 70 72 72 68 71 69 68 69 69 68 70 71 72
70 70 69 69 68 69 68 68 69 69 69 67 66 63 63 55 50 53 60 74 71 66 64 61 63 60 56 56 67 65 67 64 56 60 62 60 59 59 61 65 68 68 67
69 69 70 70 68 67 67 67 68 68 66 64 61 57 57 54 48 50 58 71 69 65 61 58 55 55 54 54 62 62 60 60 58 60 62 65 65 65 61 67 70 66 65
63 65 67 68 68 67 67 69 67 64 62 60 57 55 52 52 48 49 50 59 61 58 61 58 57 53 51 51 53 60 58 56 57 58 59 63 60 60 64 65 70 66 64
62 62 62 63 62 65 64 62 63 62 61 60 58 57 53 52 48 47 48 49 51 58 55 56 56 50 49 49 54 53 52 54 60 57 54 54 54 56 60 64 67 64 62
59 60 61 64 63 64 62 62 60 61 59 59 59 56 55 55 51 46 46 47 50 55 51 50 50 50 50 54 54 54 53 50 52 50 52 53 53 56 59 56 56 59 58
58 59 59 59 56 51 52 57 55 48 56 59 60 57 54 54 51 48 49 53 49 53 53 56 52 51 52 50 50 50 49 49 48 48 49 50 52 50 49 49 51 52 52
57 56 57 55 55 48 40 41 43 39 39 44 44 45 50 51 40 40 39 41 42 44 44 55 53 53 50 49 48 49 48 47 46 47 47 46 46 46 44 47 47 47 46
55 54 55 57 56 52 50 40 39 39 39 38 38 42 36 38 39 39 38 39 40 41 49 54 50 50 49 49 49 50 49 50 50 50 50 49 49 48 46 48 48 46 44
53 51 50 50 54 53 52 47 42 36 39 38 38 38 38 37 37 37 37 38 40 42 47 52 51 50 49 50 48 48 47 48 51 50 48 47 45 44 43 42 42 41 40
49 46 43 50 44 49 51 48 44 42 40 37 37 37 36 37 38 37 37 39 45 43 49 48 47 48 48 47 46 45 46 45 46 47 44 43 42 41 40 40 40 40 39
48 48 46 45 45 43 45 45 43 44 46 39 33 35 36 38 38 38 40 40 44 41 43 44 46 45 46 47 47 48 48 45 46 44 42 41 40 39 39 38 38 39 40
47 45 45 45 44 42 44 41 43 43 44 42 40 40 36 38 40 44 48 48 47 41 44 44 45 46 47 47 47 47 45 44 43 40 40 39 39 38 37 37 37 36 36
46 44 45 41 38 41 40 40 41 40 41 43 39 37 38 41 41 43 41 46 45 43 47 45 47 47 47 46 46 44 41 40 40 39 38 38 38 36 37 37 36 36 36
42 40 39 38 39 42 41 41 40 41 40 39 36 33 36 37 39 43 44 42 43 45 44 48 44 43 42 43 43 39 38 38 38 37 36 36 36 36 36 36 35 35 35
42 39 38 37 39 42 41 42 40 40 38 38 38 33 28 34 39 40 41 41 42 43 43 43 42 39 39 40 40 38 35 36 36 36 35 35 35 35 35 35 35 34 35
43 42 40 39 40 38 37 39 39 38 39 40 41 37 36 36 38 43 42 41 41 43 42 42 41 38 41 41 40 38 38 38 37 35 35 35 35 35 35 36 36 36 36
44 43 44 43 41 40 39 37 37 38 38 39 40 41 40 41 42 43 41 43 43 43 43 43 43 41 41 41 40 38 34 33 35 33 35 36 35 36 35 37 37 38 37
47 46 45 44 44 43 42 40 41 41 39 39 39 41 41 40 40 42 41 42 42 42 43 43 43 42 41 40 40 36 31 32 34 32 34 34 34 35 36 37 37 37 38

GFSGL_sfc_dewp_111.txt.gz
Dewpoint
71 70 71 71 70 70 71 70 69 68 70 70 70 71 71 70 72 71 71 70 71 70 71 70 69 70 70 70 72 71 69 69 65 66 68 68 67 68 70 71 72 70 68
70 70 71 70 70 70 70 69 67 68 71 71 69 72 71 71 72 71 71 72 70 70 70 69 69 70 69 71 70 71 70 70 68 65 67 68 67 69 68 70 70 70 69
69 71 70 69 70 69 69 70 71 70 72 73 72 71 71 72 71 72 72 71 71 71 70 70 69 69 69 68 70 70 69 70 69 69 68 69 69 68 65 67 70 71 70
71 70 70 70 69 69 68 68 71 72 71 71 72 72 71 71 69 71 72 71 71 71 72 71 69 68 70 69 70 70 71 70 70 70 69 68 69 71 70 70 70 71 70
69 70 69 70 71 71 71 69 71 72 72 71 71 71 68 67 64 65 68 71 70 70 71 71 71 72 70 69 69 70 70 70 70 69 69 68 68 69 69 71 70 71 69
69 69 70 70 70 71 71 70 70 70 69 70 70 70 64 61 61 63 65 68 71 70 70 71 68 64 66 67 67 68 68 68 67 69 69 68 68 69 70 68 69 68 67
69 69 69 70 69 70 70 70 71 70 70 69 69 64 58 55 55 57 61 66 70 71 70 70 64 57 58 61 65 67 68 66 67 68 67 68 68 67 65 63 65 66 66
68 69 70 70 69 68 67 68 70 70 70 68 67 65 58 50 53 55 58 66 66 63 65 62 59 56 55 58 64 63 64 57 55 59 63 62 62 61 63 64 64 68 69
68 69 68 68 67 67 67 67 68 68 66 64 64 61 52 46 52 54 62 67 64 59 58 59 55 53 55 58 59 56 53 52 53 57 59 59 60 59 60 62 66 65 63
68 68 68 68 67 66 65 66 67 65 62 61 59 56 53 44 49 52 59 67 61 55 52 51 55 52 53 53 58 50 46 49 52 55 58 57 61 61 62 66 64 62 61
65 68 68 67 67 66 65 65 65 61 58 56 53 49 48 47 44 49 51 55 60 59 56 52 50 52 50 51 53 50 49 51 54 54 51 52 52 52 55 55 60 56 53
62 62 63 64 65 64 63 64 61 60 59 58 56 51 48 43 47 48 49 49 55 54 54 52 49 49 49 50 51 52 51 51 50 49 48 48 48 51 47 49 51 49 55
60 60 62 59 61 62 61 61 60 60 59 58 56 54 53 49 44 49 48 49 51 48 49 48 50 50 49 50 51 51 49 46 45 45 46 47 48 47 44 46 46 47 50
58 59 58 52 48 43 45 45 44 43 48 49 57 54 52 51 45 43 44 47 50 46 49 50 50 50 50 49 47 47 45 45 44 44 44 44 43 40 42 45 44 43 45
56 56 57 54 49 40 39 44 38 36 38 40 44 43 51 43 36 38 38 37 37 40 41 50 46 46 45 44 45 45 44 44 43 43 44 44 44 42 43 44 43 42 41
53 53 54 58 54 46 43 41 40 39 38 38 39 36 34 39 38 38 38 38 39 41 43 48 43 46 43 43 44 45 45 43 45 45 44 43 42 41 41 41 41 39 38
47 46 50 53 53 50 47 44 38 36 39 38 38 38 39 36 36 36 37 38 39 40 40 47 44 44 44 44 44 44 42 43 42 43 42 41 40 39 39 37 38 38 36
48 47 40 45 46 50 49 48 43 40 39 35 37 36 35 36 37 37 37 39 41 39 41 43 42 42 42 42 42 42 40 41 41 41 41 39 38 38 38 37 37 37 36
44 41 41 45 39 41 43 41 42 41 40 35 30 35 35 37 36 37 38 36 39 42 40 41 43 43 43 43 42 43 40 40 41 39 38 37 37 37 36 37 37 38 37
45 45 43 41 39 37 39 39 40 41 39 37 34 34 35 37 37 39 41 44 43 42 42 42 43 43 43 42 41 41 41 40 38 38 37 37 37 36 36 36 36 35 35
46 42 45 39 39 37 38 40 35 36 38 41 38 38 39 39 41 40 42 41 43 42 43 43 43 43 43 41 40 39 39 39 38 37 36 36 36 35 36 35 35 35 35
44 43 41 39 39 40 37 39 39 38 37 39 33 33 38 35 38 40 43 41 41 43 43 43 42 41 41 40 40 37 38 37 37 36 36 36 35 35 35 35 35 35 35
44 42 41 38 39 41 40 38 40 39 37 36 37 30 28 31 37 39 41 42 41 41 40 41 39 39 39 39 38 36 37 36 35 35 35 35 35 35 35 35 35 35 35
45 44 42 40 39 38 38 40 39 39 39 39 41 34 32 31 33 37 40 41 41 42 40 39 39 39 38 38 37 38 38 37 35 36 35 35 35 35 35 35 36 37 37
46 46 45 42 41 40 40 39 40 39 39 39 39 37 37 38 38 41 40 40 40 41 40 40 40 38 38 37 36 34 34 34 34 34 35 35 34 34 35 36 37 37 37
50 47 47 46 44 43 41 40 41 41 39 39 40 41 41 39 39 41 39 40 40 40 40 40 39 40 39 38 38 35 31 32 33 33 35 34 34 34 35 37 37 37 37

GFSGL_sfc_dewp_114.txt.gz
Dewpoint
70 70 69 70 70 69 69 68 67 65 66 67 69 69 70 71 71 71 71 70 70 70 70 69 68 70 70 70 70 70 69 68 64 65 68 68 67 68 67 71 71 70 69
71 70 70 70 70 68 68 69 69 66 68 69 69 69 70 71 71 71 70 72 70 69 68 69 69 70 68 70 70 69 68 69 67 65 67 68 67 68 67 69 70 71 71
70 70 69 70 69 69 68 69 67 68 67 69 69 68 70 71 70 70 70 70 71 71 71 70 69 68 68 68 69 69 68 70 69 68 67 69 69 69 69 70 71 71 71
70 70 70 70 70 69 69 70 68 66 67 70 71 71 70 69 68 69 71 71 70 70 71 70 70 69 69 68 69 69 70 69 69 68 68 68 68 70 70 69 67 69 70
68 69 70 70 70 70 70 70 71 70 71 71 70 68 67 66 66 66 68 69 70 69 70 71 70 69 68 68 69 68 68 68 68 68 67 67 67 68 68 69 67 68 68
68 69 69 70 70 70 71 71 71 70 69 68 69 66 63 60 58 63 64 67 69 69 69 66 64 66 66 65 65 66 68 67 66 67 67 66 67 67 67 64 65 65 65
68 69 69 69 69 69 70 70 70 70 70 68 65 62 60 57 56 57 60 64 68 69 69 66 58 56 59 64 66 63 61 63 65 67 65 64 64 62 62 61 62 64 65
68 68 69 69 68 68 68 69 70 69 70 68 64 62 57 57 55 56 60 65 64 64 62 58 56 57 59 63 61 60 55 51 52 55 58 59 61 61 61 61 63 65 66
68 68 68 68 67 67 67 67 68 67 67 66 64 60 57 51 53 57 64 63 60 58 57 54 52 52 56 57 49 45 45 51 54 58 58 59 59 59 61 61 61 57 58
68 68 68 68 67 66 66 67 66 64 62 60 58 51 49 47 51 54 64 62 58 54 50 50 54 52 52 54 48 46 49 50 53 51 50 51 54 53 55 56 56 52 55
68 68 68 68 67 66 65 65 62 60 57 54 49 48 46 44 45 50 56 61 59 54 49 47 48 51 50 51 51 50 50 52 52 48 48 48 48 46 48 49 50 52 51
64 64 65 66 66 66 64 62 61 59 57 54 50 45 43 43 47 48 51 54 58 56 55 50 48 50 50 50 50 50 50 49 47 46 46 46 45 44 45 46 49 50 47
59 57 56 55 56 58 62 62 60 59 58 56 54 51 48 46 46 49 50 51 52 48 46 49 50 48 48 48 50 49 48 44 44 43 43 42 43 42 43 43 44 46 42
58 55 54 52 50 51 52 51 47 47 52 58 57 53 50 46 42 41 43 43 45 42 48 48 49 49 49 48 45 45 44 43 42 42 42 43 42 42 42 42 40 41 38
57 55 52 50 49 48 45 47 48 42 38 41 45 51 50 43 37 38 38 37 37 39 43 48 46 43 42 43 44 44 44 44 44 43 42 41 41 40 39 39 39 37 37
53 55 54 51 48 43 41 40 40 41 40 39 40 38 36 41 38 38 37 37 39 40 43 44 43 42 42 43 43 42 42 45 44 42 41 39 39 39 38 38 37 37 37
44 46 48 54 51 46 43 36 37 41 41 40 39 39 37 36 37 36 36 37 39 39 42 45 44 43 44 44 42 41 41 41 41 40 39 38 38 38 37 37 36 36 36
44 45 41 46 51 50 48 46 39 34 33 31 36 35 37 37 37 37 37 39 40 41 42 43 42 41 41 41 40 39 40 40 39 38 37 37 37 36 36 36 36 36 35
40 39 40 39 39 42 42 43 44 40 39 34 27 33 35 36 36 36 37 36 36 40 41 41 42 41 41 41 41 40 40 38 37 36 36 36 36 36 36 36 36 37 36
44 45 42 40 38 36 37 37 37 42 39 34 29 28 33 35 35 39 41 43 43 41 42 42 42 42 41 40 40 40 39 37 36 36 36 35 35 36 35 35 35 34 34
45 43 44 37 37 38 37 38 37 36 39 39 36 37 37 32 37 39 40 40 42 42 42 43 42 42 41 40 39 39 38 38 37 36 35 35 35 35 35 35 35 35 35
46 43 40 38 37 37 37 38 37 37 37 38 37 36 39 38 38 37 41 42 43 43 43 43 44 43 41 40 40 39 38 37 37 36 35 35 35 35 35 35 35 35 35
46 43 41 39 38 39 38 37 37 37 37 37 34 32 31 31 34 37 41 41 42 41 41 41 41 39 39 39 38 38 36 36 35 36 35 35 35 34 35 35 35 35 35
47 45 43 41 39 37 36 38 39 38 38 38 38 35 32 31 32 37 41 41 41 40 41 40 40 38 38 37 38 37 37 35 36 36 35 35 35 35 35 35 36 36 36
47 46 45 44 42 40 39 37 38 39 38 38 38 39 37 34 31 35 41 40 41 40 39 39 39 38 37 37 37 36 34 34 35 35 35 35 34 34 34 35 36 37 37
50 48 47 47 46 43 41 40 40 40 39 38 39 39 39 37 37 39 40 39 40 39 39 39 39 38 38 37 37 35 32 32 34 32 35 34 33 33 34 34 35 36 36

GFSGL_sfc_dewp_117.txt.gz
Dewpoint
68 68 68 69 69 69 68 68 68 67 66 66 67 69 68 70 71 70 70 69 68 69 69 68 68 69 69 69 69 69 68 67 63 64 67 68 67 67 68 71 72 71 70
68 68 69 69 69 68 68 68 68 66 65 65 67 69 68 70 69 70 70 70 70 69 68 69 68 69 68 68 69 68 68 68 66 64 66 68 68 69 69 70 70 70 71
69 70 69 69 69 68 68 68 68 68 66 67 69 68 68 69 70 70 70 70 70 70 70 69 69 68 68 68 68 68 68 70 68 67 66 68 68 70 69 70 67 69 70
70 70 69 69 69 69 68 68 68 67 67 66 68 69 69 70 68 69 70 71 71 70 70 70 70 69 68 68 68 68 69 68 68 66 66 67 67 69 69 67 65 67 68
70 70 70 70 70 70 69 69 69 68 67 68 69 69 67 67 67 66 68 69 70 70 70 70 69 69 68 68 69 68 68 67 66 66 66 66 66 66 65 66 65 66 67
69 69 70 69 70 70 70 70 70 70 70 69 69 66 63 61 59 63 64 67 68 69 69 66 66 67 66 65 65 67 68 67 66 67 67 65 64 64 63 62 63 64 63
68 69 69 69 68 69 70 70 70 69 69 68 65 63 61 59 57 57 61 64 67 68 68 65 58 57 62 65 62 59 58 61 65 67 64 63 62 62 61 60 62 63 62
67 68 68 68 68 69 69 69 69 69 69 67 65 62 59 58 55 56 60 63 65 63 64 61 58 60 60 64 59 51 51 51 53 54 57 58 59 60 61 61 63 63 66
67 68 68 68 68 67 67 67 68 68 69 67 64 61 60 58 55 56 63 63 60 59 59 59 60 59 57 58 56 45 52 53 55 57 58 56 55 56 59 59 56 54 56
67 67 68 68 67 67 67 67 66 66 63 62 59 58 56 56 55 56 62 61 58 56 56 56 55 54 55 52 47 50 52 51 50 49 49 48 49 50 54 53 54 52 53
68 68 67 67 67 67 66 66 63 59 56 53 50 47 45 46 49 54 57 58 56 51 49 48 49 52 51 51 51 52 51 51 50 47 46 45 45 47 49 48 45 46 44
63 63 66 66 67 66 64 62 60 57 53 49 45 43 43 44 50 51 54 57 57 54 52 50 50 50 49 49 50 51 52 51 47 45 43 42 42 43 45 45 44 43 43
58 58 56 56 57 60 63 61 60 60 56 51 47 44 44 46 45 50 51 52 52 47 50 52 49 48 48 48 50 49 49 45 42 40 40 41 41 43 42 42 43 40 40
56 56 56 57 55 55 54 54 55 55 58 57 53 50 48 44 42 43 44 43 47 47 51 49 49 49 48 46 45 46 43 42 41 41 41 42 42 40 39 40 38 40 38
54 53 52 52 51 48 47 48 49 45 47 52 52 52 50 45 38 39 40 39 38 40 46 45 43 42 42 42 43 44 44 43 41 41 40 40 39 38 37 38 37 37 37
54 52 51 51 49 47 47 45 41 42 41 40 40 43 40 42 39 38 37 38 38 40 45 44 43 41 42 42 41 43 43 42 41 39 39 38 37 37 36 36 36 36 36
43 42 50 50 47 44 40 38 36 39 39 39 39 39 38 37 38 37 36 38 38 40 44 43 43 42 43 43 41 40 40 40 39 38 38 37 37 37 36 36 35 35 35
41 45 44 49 50 47 43 42 34 31 31 31 35 36 36 36 37 37 37 39 39 39 43 44 43 44 43 41 40 40 39 37 36 36 36 36 36 35 35 35 35 34 34
38 38 40 39 41 44 44 45 42 39 38 34 26 32 34 36 36 36 37 37 38 41 43 42 42 41 41 40 39 40 38 37 36 35 35 35 36 36 35 35 36 36 35
43 44 41 38 37 36 38 36 36 41 39 33 28 27 32 35 34 37 41 42 42 42 42 42 42 41 41 41 41 39 38 37 36 35 35 35 35 35 35 35 35 34 34
45 42 42 36 37 38 37 38 36 36 38 37 35 35 36 31 33 38 39 41 42 43 43 42 42 41 41 41 40 39 38 36 36 35 35 35 35 35 35 35 35 35 36
46 43 41 38 37 36 36 36 36 36 37 38 38 37 38 37 38 38 40 41 42 42 43 43 42 41 41 40 40 38 38 37 37 36 36 36 36 36 36 36 36 36 36
46 45 42 40 39 39 36 37 36 36 36 37 36 36 35 35 36 34 39 41 42 42 43 43 43 40 40 40 40 38 36 36 36 36 36 36 35 36 36 35 36 36 36
47 46 44 41 40 38 36 36 37 38 37 38 37 35 34 33 32 32 39 41 41 41 41 42 40 39 38 38 39 37 37 36 36 36 36 35 35 35 35 35 36 36 36
49 47 46 44 43 41 40 38 37 37 38 38 38 38 39 38 35 33 36 41 40 40 40 40 39 38 37 36 36 36 35 34 35 35 36 35 35 34 34 34 36 36 36
49 49 48 48 46 45 43 42 41 40 39 38 38 38 38 38 36 33 35 40 40 40 39 39 39 38 37 37 37 35 32 32 34 33 35 35 34 33 33 34 34 36 35

GFSGL_sfc_dewp_120.txt.gz
Dewpoint
68 68 69 69 70 70 70 70 69 69 68 68 70 70 71 71 72 73 72 72 71 71 71 71 70 71 70 71 71 71 70 69 67 66 70 71 72 72 72 72 70 72 71
68 68 69 69 70 69 69 69 70 69 68 68 68 69 70 70 72 71 72 72 71 71 71 71 71 69 71 72 70 71 70 71 68 68 70 71 71 72 72 71 70 69 72
68 68 68 69 69 69 69 69 69 69 68 67 68 69 70 70 71 71 71 72 71 72 71 71 71 71 72 70 70 70 70 72 71 70 70 70 72 72 72 70 70 70 67
69 69 69 69 69 69 69 69 69 69 69 68 69 70 70 70 71 71 71 72 72 72 72 72 72 72 71 71 71 72 71 70 70 69 70 70 71 72 71 68 68 69 64
69 69 69 70 71 71 70 70 70 69 69 69 68 70 70 70 68 68 69 70 70 70 71 71 71 71 68 70 72 71 71 70 70 69 69 69 70 68 68 68 68 70 67
69 69 70 70 70 70 70 70 70 70 70 69 70 70 68 65 61 64 66 69 70 70 71 70 69 68 67 66 66 67 70 70 70 70 69 69 67 67 67 65 66 68 63
68 69 69 70 70 70 70 70 70 70 69 70 69 66 64 63 58 60 61 66 68 70 70 68 64 61 64 64 61 59 60 61 66 70 69 68 66 66 65 65 66 66 57
68 68 69 69 69 69 70 69 69 70 68 68 66 65 63 62 57 57 59 63 67 66 68 65 62 63 63 64 59 56 57 59 60 56 63 62 63 63 65 65 66 67 63
67 68 68 69 68 68 68 68 69 69 69 68 66 64 63 61 57 58 63 64 61 61 62 62 63 62 58 60 62 57 58 56 54 55 55 55 55 57 61 63 58 59 59
67 67 68 68 68 68 67 67 67 67 66 65 62 62 60 61 56 57 62 63 60 58 58 57 55 57 54 54 57 57 57 55 54 52 52 53 54 53 53 57 57 56 54
66 68 68 68 68 68 67 66 64 63 61 60 58 57 55 55 57 56 59 62 60 57 55 52 52 52 51 51 52 58 56 54 52 50 49 50 50 48 47 47 49 48 45
62 63 65 66 67 66 64 62 60 60 57 56 56 55 50 51 52 56 57 56 57 54 53 51 52 50 49 50 52 51 51 51 48 47 46 47 45 44 44 44 47 46 44
58 58 57 57 58 61 62 61 59 58 56 54 53 46 46 48 49 51 52 53 53 51 52 52 49 48 48 49 51 51 50 47 44 44 44 44 45 45 46 45 44 46 45
55 55 55 55 55 55 54 55 56 58 59 57 56 54 52 52 48 47 47 50 51 52 52 52 50 48 48 48 48 48 46 45 46 44 44 43 43 41 41 43 41 40 38
55 54 53 54 52 50 48 49 50 46 49 54 55 55 51 46 39 40 41 42 43 45 48 47 46 45 44 45 46 46 46 45 44 43 42 41 39 39 39 39 39 38 37
50 49 51 51 49 50 50 48 46 46 46 44 44 47 45 42 39 38 37 37 38 41 49 47 45 44 44 44 45 45 44 43 42 41 41 39 38 38 38 38 38 36 35
44 51 49 48 44 42 41 41 41 38 40 39 39 40 42 42 39 37 36 38 38 41 46 47 46 44 44 44 44 43 41 41 43 40 40 39 38 38 37 36 36 35 35
44 45 49 51 48 45 43 39 37 38 34 34 36 35 37 37 37 36 37 39 39 39 42 46 44 44 44 43 42 41 40 39 39 39 38 38 37 36 35 35 35 35 35
41 42 42 43 43 46 45 47 43 42 41 37 35 35 36 36 36 36 37 41 41 41 43 45 45 45 43 43 42 41 40 38 38 37 37 37 37 36 36 36 36 36 36
45 45 42 40 39 40 40 39 41 43 42 38 35 32 35 37 37 42 44 44 44 43 44 44 45 44 44 43 43 41 40 38 37 37 37 37 37 36 35 36 36 36 36
45 43 41 39 40 39 39 40 39 39 40 40 38 38 36 35 36 41 40 43 44 44 45 44 44 44 44 44 43 41 39 38 37 37 37 36 36 35 36 36 36 37 37
46 45 42 41 39 40 39 39 39 39 39 40 39 40 39 37 40 41 40 42 43 45 45 46 44 43 43 43 43 40 38 37 37 37 37 37 36 36 36 36 37 37 37
47 46 44 42 42 41 39 39 38 38 38 38 39 38 38 38 37 39 38 39 44 44 45 44 44 42 42 43 41 40 37 37 37 37 37 36 36 36 36 36 37 37 37
49 47 46 44 43 41 39 39 39 38 39 39 39 39 38 38 38 39 38 39 44 44 44 44 44 42 42 41 42 40 39 39 38 37 37 36 36 36 36 36 36 37 36
51 49 48 47 46 44 43 42 41 40 39 39 40 40 40 41 39 39 37 38 42 44 43 43 43 43 42 41 40 39 37 35 37 36 37 37 36 37 35 35 36 36 36
52 51 50 49 48 46 46 45 45 45 43 41 40 41 41 40 40 40 40 38 41 42 43 42 42 43 41 40 40 37 32 32 35 34 36 36 35 34 34 34 35 35 36